[[{"header":{"parameterUnit":"m.s-1","parameterCategory":1,"la1":30.6,"la2":29.2853,"lo1":-89.7004,"lo2":-87.6739,"dy":0.0162,"dx":0.0183,"nx":112,"ny":82,"refTime":"2023-05-23T00:00:00:Z","depth":0,"parameterNumber":2,"parameterNumberName":"U-component_of_WINDS"},"data":[0.0,0.0,0.0,0.0,0.0,0.0,0.0,0.0,0.0,0.0,0.0,0.0,0.0,0.0,0.0,0.0,0.0,0.0,0.0,0.0,0.0,0.0,0.0,0.0,0.0,0.0,0.0,0.0,0.0,0.0,0.0,0.0,0.0,0.0,0.0,0.0,0.0,0.0,0.0,0.0,0.0,0.0,0.0,0.0,0.0,0.0,0.0,0.0,0.0,0.0,0.0,0.0,0.0,0.0,0.0,0.0,0.0,0.0,0.0,0.0,0.0,0.0,0.0,0.0,0.0,0.0,0.0,0.0,0.0,0.0,0.0,0.0,0.0,0.0,0.0,0.0,0.0,0.0,0.0,0.0,0.0,0.0,0.0,0.0,0.0,0.0,0.0,0.0,0.0,0.0,-4.0247,-4.0005,-3.9963,-3.987,-3.9703,-3.9679,-3.9588,-3.9324,0.0,0.0,0.0,0.0,0.0,0.0,0.0,0.0,0.0,0.0,0.0,0.0,0.0,0.0,0.0,0.0,0.0,0.0,0.0,0.0,0.0,0.0,0.0,0.0,0.0,0.0,0.0,0.0,0.0,0.0,0.0,0.0,0.0,0.0,0.0,0.0,0.0,0.0,0.0,0.0,0.0,0.0,0.0,0.0,0.0,0.0,0.0,0.0,0.0,0.0,0.0,0.0,0.0,0.0,0.0,0.0,0.0,0.0,0.0,0.0,0.0,0.0,0.0,0.0,0.0,0.0,0.0,0.0,0.0,0.0,0.0,0.0,0.0,0.0,0.0,0.0,0.0,0.0,0.0,0.0,0.0,0.0,0.0,0.0,0.0,0.0,0.0,0.0,0.0,0.0,0.0,0.0,0.0,0.0,0.0,0.0,0.0,0.0,0.0,0.0,0.0,0.0,0.0,0.0,-4.0155,-4.038,-4.0267,-4.0139,-4.012,-4.012,-4.002,-3.9807,0.0,0.0,0.0,0.0,0.0,0.0,0.0,0.0,0.0,0.0,0.0,0.0,0.0,0.0,0.0,0.0,0.0,0.0,0.0,0.0,0.0,0.0,0.0,0.0,0.0,0.0,0.0,0.0,0.0,0.0,0.0,0.0,0.0,0.0,0.0,0.0,0.0,0.0,0.0,0.0,0.0,0.0,0.0,0.0,0.0,0.0,0.0,0.0,0.0,0.0,0.0,0.0,0.0,0.0,0.0,0.0,0.0,0.0,0.0,0.0,0.0,0.0,0.0,0.0,0.0,0.0,0.0,0.0,0.0,0.0,0.0,0.0,0.0,0.0,0.0,0.0,0.0,0.0,0.0,0.0,0.0,0.0,0.0,0.0,0.0,0.0,0.0,0.0,0.0,0.0,0.0,0.0,0.0,0.0,0.0,0.0,0.0,0.0,0.0,0.0,0.0,0.0,0.0,-4.0446,-4.0408,-4.0501,-4.0427,-4.0312,-4.021,-4.021,-4.0101,-3.9918,-3.9794,0.0,0.0,0.0,0.0,0.0,0.0,0.0,0.0,0.0,0.0,0.0,0.0,0.0,0.0,0.0,0.0,0.0,0.0,0.0,0.0,0.0,0.0,0.0,0.0,0.0,0.0,0.0,0.0,0.0,0.0,0.0,0.0,0.0,0.0,0.0,0.0,0.0,0.0,0.0,0.0,0.0,0.0,0.0,0.0,0.0,0.0,0.0,0.0,0.0,0.0,0.0,0.0,0.0,0.0,0.0,0.0,0.0,0.0,0.0,0.0,0.0,0.0,0.0,0.0,0.0,0.0,0.0,0.0,0.0,0.0,0.0,0.0,0.0,0.0,0.0,0.0,0.0,0.0,0.0,0.0,0.0,0.0,0.0,0.0,0.0,0.0,0.0,0.0,0.0,0.0,0.0,0.0,0.0,0.0,0.0,0.0,0.0,0.0,0.0,0.0,0.0,0.0,-4.0706,-4.0706,-4.0617,-4.0584,-4.0524,-4.0335,-4.0354,-4.0257,-4.0043,-4.0193,0.0,0.0,0.0,0.0,0.0,0.0,0.0,0.0,0.0,0.0,0.0,0.0,0.0,0.0,0.0,0.0,0.0,0.0,0.0,0.0,0.0,0.0,0.0,0.0,0.0,0.0,0.0,0.0,0.0,0.0,0.0,0.0,0.0,0.0,0.0,0.0,0.0,0.0,0.0,0.0,0.0,0.0,0.0,0.0,0.0,0.0,0.0,0.0,0.0,0.0,0.0,0.0,0.0,0.0,0.0,0.0,0.0,0.0,0.0,0.0,0.0,0.0,0.0,0.0,0.0,0.0,0.0,0.0,0.0,0.0,0.0,0.0,0.0,0.0,0.0,0.0,0.0,0.0,0.0,0.0,0.0,0.0,0.0,0.0,0.0,0.0,0.0,0.0,0.0,0.0,0.0,0.0,0.0,0.0,0.0,0.0,0.0,0.0,0.0,0.0,0.0,0.0,-4.0773,-4.0877,-4.0867,-4.0826,-4.0776,-4.0765,-4.0765,-4.0674,-4.0462,-4.0462,0.0,0.0,0.0,0.0,0.0,0.0,0.0,0.0,0.0,0.0,0.0,0.0,0.0,0.0,0.0,0.0,0.0,0.0,0.0,0.0,0.0,0.0,0.0,0.0,0.0,0.0,0.0,0.0,0.0,0.0,0.0,0.0,0.0,0.0,0.0,0.0,0.0,0.0,0.0,0.0,0.0,0.0,0.0,0.0,0.0,0.0,0.0,0.0,0.0,0.0,0.0,0.0,0.0,0.0,0.0,0.0,0.0,0.0,0.0,0.0,0.0,0.0,0.0,0.0,0.0,0.0,0.0,0.0,0.0,0.0,0.0,0.0,0.0,0.0,0.0,0.0,0.0,0.0,0.0,0.0,0.0,0.0,0.0,0.0,0.0,0.0,0.0,0.0,0.0,0.0,0.0,0.0,0.0,0.0,0.0,0.0,0.0,0.0,0.0,0.0,0.0,0.0,-4.0781,-4.0856,-4.0908,-4.0888,-4.0859,-4.0859,-4.0859,-4.0776,-4.0577,0.0,0.0,0.0,0.0,0.0,0.0,0.0,0.0,0.0,0.0,0.0,0.0,0.0,0.0,0.0,0.0,0.0,0.0,0.0,0.0,0.0,0.0,0.0,0.0,0.0,0.0,0.0,0.0,0.0,0.0,0.0,0.0,0.0,0.0,0.0,0.0,0.0,0.0,0.0,0.0,0.0,0.0,0.0,0.0,0.0,0.0,0.0,0.0,0.0,0.0,0.0,0.0,0.0,0.0,0.0,0.0,0.0,0.0,0.0,0.0,0.0,0.0,0.0,0.0,0.0,0.0,0.0,0.0,0.0,0.0,0.0,0.0,0.0,0.0,0.0,0.0,0.0,0.0,0.0,0.0,0.0,0.0,0.0,0.0,0.0,0.0,0.0,0.0,0.0,0.0,0.0,0.0,0.0,0.0,0.0,0.0,0.0,0.0,0.0,0.0,0.0,0.0,-4.0859,-4.0849,-4.0876,-4.0932,-4.0932,-4.0924,-4.0888,-4.0907,-4.0849,-4.0687,0.0,0.0,0.0,0.0,0.0,0.0,0.0,0.0,0.0,0.0,0.0,0.0,0.0,0.0,0.0,0.0,0.0,0.0,0.0,0.0,0.0,0.0,0.0,0.0,0.0,0.0,0.0,0.0,0.0,0.0,0.0,0.0,0.0,0.0,0.0,0.0,0.0,0.0,0.0,0.0,0.0,0.0,0.0,0.0,0.0,0.0,0.0,0.0,0.0,0.0,0.0,0.0,0.0,0.0,0.0,0.0,0.0,0.0,0.0,0.0,0.0,0.0,0.0,0.0,0.0,0.0,0.0,0.0,0.0,0.0,0.0,0.0,0.0,0.0,0.0,0.0,0.0,0.0,0.0,0.0,0.0,0.0,0.0,0.0,0.0,0.0,0.0,0.0,0.0,0.0,0.0,0.0,0.0,0.0,0.0,0.0,0.0,0.0,0.0,0.0,0.0,0.0,-4.1,-4.0992,-4.1007,-4.1,-4.0994,-4.0967,-4.0897,-4.0888,-4.0898,0.0,0.0,0.0,0.0,0.0,0.0,0.0,0.0,0.0,0.0,0.0,0.0,0.0,0.0,0.0,0.0,0.0,0.0,0.0,0.0,0.0,0.0,0.0,0.0,0.0,0.0,0.0,0.0,0.0,0.0,0.0,0.0,0.0,0.0,0.0,0.0,0.0,0.0,0.0,0.0,0.0,0.0,0.0,0.0,0.0,0.0,0.0,0.0,0.0,0.0,0.0,0.0,0.0,0.0,0.0,0.0,0.0,0.0,0.0,0.0,0.0,0.0,0.0,0.0,0.0,0.0,0.0,0.0,0.0,0.0,0.0,0.0,0.0,0.0,0.0,0.0,0.0,0.0,0.0,0.0,0.0,0.0,0.0,0.0,0.0,0.0,0.0,0.0,0.0,0.0,0.0,0.0,0.0,0.0,0.0,0.0,0.0,0.0,0.0,0.0,0.0,0.0,0.0,-4.1003,-4.0994,-4.1004,-4.0994,-4.0994,-4.0991,-4.098,-4.0976,-4.0979,-4.0974,0.0,0.0,0.0,0.0,0.0,0.0,0.0,0.0,0.0,0.0,0.0,0.0,0.0,0.0,0.0,0.0,0.0,0.0,0.0,0.0,0.0,0.0,0.0,0.0,0.0,0.0,0.0,0.0,0.0,0.0,0.0,0.0,0.0,0.0,0.0,0.0,0.0,0.0,0.0,0.0,0.0,0.0,0.0,0.0,0.0,0.0,0.0,0.0,0.0,0.0,0.0,0.0,0.0,0.0,0.0,0.0,0.0,0.0,0.0,0.0,0.0,0.0,0.0,0.0,0.0,0.0,0.0,0.0,0.0,0.0,0.0,0.0,0.0,0.0,0.0,0.0,0.0,0.0,0.0,0.0,0.0,0.0,0.0,0.0,0.0,0.0,0.0,0.0,0.0,0.0,0.0,0.0,0.0,0.0,0.0,0.0,0.0,0.0,0.0,0.0,0.0,0.0,-4.1058,-4.1035,-4.1033,-4.0996,-4.0996,-4.0995,-4.0991,-4.1009,-4.1004,-4.1,0.0,0.0,0.0,0.0,0.0,0.0,0.0,0.0,0.0,0.0,0.0,0.0,0.0,0.0,0.0,0.0,0.0,0.0,0.0,0.0,0.0,0.0,0.0,0.0,0.0,0.0,0.0,0.0,0.0,0.0,0.0,0.0,0.0,0.0,0.0,0.0,0.0,0.0,0.0,0.0,0.0,0.0,0.0,0.0,0.0,0.0,0.0,0.0,0.0,0.0,0.0,0.0,0.0,0.0,0.0,0.0,0.0,0.0,0.0,0.0,0.0,0.0,0.0,0.0,0.0,0.0,0.0,0.0,0.0,0.0,0.0,0.0,0.0,0.0,0.0,0.0,0.0,0.0,0.0,0.0,0.0,0.0,0.0,0.0,0.0,0.0,0.0,0.0,0.0,0.0,0.0,0.0,0.0,0.0,0.0,0.0,0.0,0.0,0.0,0.0,0.0,0.0,-4.1093,-4.1091,-4.1076,-4.1023,-4.1006,-4.1012,-4.1015,-4.1014,-4.1013,-4.0992,0.0,0.0,0.0,0.0,0.0,0.0,0.0,0.0,0.0,0.0,0.0,0.0,0.0,0.0,0.0,0.0,0.0,0.0,0.0,0.0,0.0,0.0,0.0,0.0,0.0,0.0,0.0,0.0,0.0,0.0,0.0,0.0,0.0,0.0,0.0,0.0,0.0,0.0,0.0,0.0,0.0,0.0,0.0,0.0,0.0,0.0,0.0,0.0,0.0,0.0,0.0,0.0,0.0,0.0,0.0,0.0,0.0,0.0,0.0,0.0,-4.069,-4.0246,0.0,0.0,0.0,0.0,0.0,0.0,0.0,0.0,0.0,0.0,0.0,0.0,0.0,0.0,0.0,0.0,0.0,0.0,0.0,0.0,0.0,0.0,0.0,0.0,0.0,0.0,0.0,0.0,0.0,0.0,0.0,0.0,0.0,0.0,0.0,0.0,0.0,0.0,0.0,0.0,-4.1091,-4.109,-4.1084,-4.1081,-4.1081,-4.1086,-4.1076,-4.1076,-4.1058,-4.1008,-4.0991,0.0,0.0,0.0,0.0,0.0,0.0,0.0,0.0,0.0,0.0,0.0,0.0,0.0,0.0,0.0,0.0,0.0,0.0,0.0,0.0,0.0,0.0,0.0,0.0,0.0,0.0,0.0,0.0,0.0,0.0,0.0,0.0,0.0,0.0,0.0,0.0,0.0,0.0,0.0,0.0,0.0,0.0,0.0,0.0,0.0,0.0,0.0,0.0,0.0,0.0,0.0,0.0,0.0,0.0,0.0,0.0,0.0,0.0,0.0,-4.0976,-4.0462,0.0,0.0,0.0,0.0,0.0,0.0,0.0,0.0,0.0,0.0,0.0,0.0,0.0,0.0,0.0,0.0,0.0,0.0,0.0,0.0,0.0,0.0,0.0,0.0,0.0,0.0,0.0,0.0,0.0,0.0,0.0,0.0,0.0,0.0,0.0,0.0,0.0,0.0,0.0,0.0,-4.1094,-4.1091,-4.111,-4.111,-4.111,-4.111,-4.111,-4.111,-4.1089,-4.1046,-4.1051,0.0,0.0,0.0,0.0,0.0,0.0,0.0,0.0,0.0,0.0,0.0,0.0,0.0,0.0,0.0,0.0,0.0,0.0,0.0,0.0,0.0,0.0,0.0,0.0,0.0,0.0,0.0,0.0,0.0,0.0,0.0,0.0,0.0,0.0,0.0,0.0,0.0,0.0,0.0,0.0,0.0,0.0,0.0,0.0,0.0,0.0,0.0,0.0,0.0,0.0,0.0,0.0,0.0,-4.0486,-4.1208,-4.1361,-4.2084,-4.1958,-4.1219,-4.1328,-4.0855,-3.9975,-4.0057,0.0,0.0,0.0,0.0,0.0,0.0,0.0,0.0,0.0,0.0,0.0,0.0,0.0,0.0,0.0,0.0,0.0,0.0,0.0,0.0,0.0,0.0,-4.0749,-4.0696,-4.0707,-4.0606,-3.998,0.0,0.0,0.0,0.0,0.0,0.0,0.0,0.0,0.0,0.0,0.0,-4.1061,-4.1089,-4.1078,-4.1078,-4.1085,-4.111,-4.111,-4.111,-4.1085,-4.1052,-4.1046,-4.1026,0.0,0.0,0.0,0.0,0.0,0.0,0.0,0.0,0.0,0.0,0.0,0.0,0.0,0.0,0.0,0.0,0.0,0.0,0.0,0.0,0.0,0.0,0.0,0.0,0.0,0.0,0.0,0.0,0.0,0.0,0.0,0.0,-3.1462,-3.2902,0.0,0.0,0.0,0.0,0.0,0.0,0.0,0.0,0.0,0.0,0.0,0.0,0.0,-3.7828,-3.781,-3.8041,-3.8316,-3.8611,-3.9826,-4.0542,-4.0847,-4.1917,-4.1958,-4.12,-4.12,0.0,-3.9911,-3.9975,0.0,0.0,0.0,0.0,0.0,0.0,0.0,0.0,0.0,0.0,0.0,0.0,0.0,0.0,0.0,0.0,0.0,0.0,0.0,0.0,0.0,0.0,-4.0612,-4.0631,-4.0621,-4.059,-4.0501,-4.0625,-4.051,-3.9697,-4.0121,-4.0403,0.0,0.0,0.0,0.0,0.0,0.0,-4.0922,-4.0979,-4.1003,-4.1003,-4.1071,-4.111,-4.111,-4.111,-4.1038,-4.0849,-4.084,-4.0751,-4.0591,-4.0572,0.0,0.0,0.0,0.0,0.0,0.0,0.0,0.0,0.0,0.0,0.0,0.0,0.0,0.0,0.0,0.0,0.0,0.0,0.0,0.0,0.0,0.0,0.0,0.0,0.0,0.0,0.0,0.0,0.0,-3.1246,-3.2321,-3.3439,-3.3951,-3.4366,0.0,0.0,0.0,0.0,0.0,0.0,0.0,0.0,0.0,-3.7017,-3.7504,-3.7775,-3.7739,-3.7757,-3.7949,-3.8285,-3.9342,-4.0118,-4.0626,-4.1644,-4.1995,-4.1747,-4.1274,-4.0835,-4.0368,-4.0056,-3.9933,-3.9954,0.0,0.0,0.0,0.0,-3.9954,-3.9954,-3.9994,-3.9933,-3.9911,-3.9933,0.0,0.0,0.0,0.0,0.0,0.0,0.0,-4.045,-4.0573,-4.0607,-4.0588,-4.0539,-4.0569,-4.0598,-4.0598,-4.0699,-4.0684,-4.0388,-4.0637,-4.0794,-4.0437,-4.0661,0.0,0.0,0.0,-4.0894,-4.0894,-4.0924,-4.0935,-4.0935,-4.098,-4.0952,-4.0869,-4.0888,-4.081,-4.0641,-4.0629,-4.0591,-4.0491,-4.0491,-4.0532,0.0,0.0,0.0,0.0,0.0,0.0,0.0,0.0,0.0,0.0,0.0,0.0,0.0,0.0,0.0,0.0,0.0,0.0,0.0,0.0,0.0,0.0,0.0,0.0,0.0,0.0,0.0,0.0,-3.217,-3.2917,-3.3984,-3.4448,-3.4739,0.0,0.0,0.0,0.0,0.0,0.0,-3.595,-3.6803,-3.7264,-3.7073,-3.7468,-3.7649,-3.7577,-3.7613,-3.7739,-3.8018,-3.9316,-4.0209,-4.0719,-4.1986,-4.2513,-4.241,-4.1625,-4.1086,-4.0766,-4.0071,-3.9804,-3.9848,-3.9848,-3.9867,-3.9889,-3.9867,-3.9848,-3.9826,-3.9804,-3.9804,-3.9804,-3.9804,-3.9895,-3.9982,-3.988,0.0,0.0,0.0,0.0,-4.0248,-4.046,-4.0492,-4.0492,-4.0489,-4.0539,-4.0573,-4.0573,-4.064,-4.0713,-4.0765,-4.0829,-4.0863,-4.0863,-4.0879,0.0,-4.0874,-4.083,-4.0798,-4.0798,-4.0768,-4.0768,-4.0768,-4.0798,-4.0757,-4.0667,-4.0648,-4.0578,-4.0434,-4.0419,-4.0389,-4.0361,-4.0361,-4.0358,-4.0419,0.0,0.0,0.0,0.0,0.0,0.0,0.0,0.0,0.0,0.0,0.0,0.0,0.0,0.0,0.0,0.0,0.0,0.0,0.0,0.0,0.0,0.0,0.0,0.0,0.0,0.0,0.0,0.0,0.0,-3.448,-3.4691,0.0,0.0,0.0,0.0,-3.5571,-3.6474,-3.6974,-3.686,-3.7376,-3.7631,-3.7577,-3.7577,-3.7613,-3.7577,-3.7667,-3.7703,-3.7757,-4.0032,-4.1138,-4.1224,-4.3388,-4.3933,-4.3088,-4.2307,-4.1518,-4.0722,-3.9883,-3.9599,-3.9717,-3.9717,-3.9781,-3.9889,-3.9758,-3.9717,-3.9693,-3.9556,-3.9526,-3.9526,-3.9526,-3.9609,-3.9709,-3.9709,-3.9802,0.0,0.0,-3.9922,-3.9982,-4.0158,-4.0214,-4.0269,-4.0457,-4.0504,-4.0523,-4.0523,-4.0596,-4.0699,-4.0694,-4.0771,-4.0815,-4.0815,0.0,-4.0815,-4.0815,-4.0648,-4.0526,-4.0526,-4.0457,-4.0423,-4.0423,-4.0482,-4.0524,-4.0505,-4.0505,-4.0438,-4.0227,-4.0229,-4.0139,-3.9935,-3.9914,-4.0021,-4.021,-4.0229,0.0,0.0,0.0,0.0,0.0,0.0,0.0,0.0,0.0,0.0,0.0,0.0,0.0,0.0,0.0,0.0,0.0,0.0,0.0,0.0,0.0,0.0,0.0,0.0,0.0,0.0,0.0,0.0,-3.5568,-3.6024,0.0,-3.6324,-3.6455,-3.6712,-3.6975,-3.761,-3.8143,-3.8427,-3.8866,-3.9113,-3.9075,-3.9075,-3.9075,-3.9075,-3.9113,-3.9208,-3.9409,-4.0673,-4.1553,-4.2149,-4.3336,-4.3893,-4.383,-4.2445,-4.166,-4.1222,-3.9823,-3.9376,-3.9556,-3.9556,-3.9599,-3.9647,-3.9599,-3.9556,-3.9556,-3.9526,-3.9502,-3.9502,-3.9502,-3.9483,-3.9439,-3.9439,-3.9421,-3.9427,-3.9585,-3.9632,-3.9702,-3.988,-4.0062,-4.0214,-4.0286,-4.0408,-4.0489,-4.0489,-4.0564,-4.064,-4.0631,-4.07,-4.0711,-4.0681,-4.07,-4.072,-4.0612,-4.0545,-4.0462,-4.0383,-4.0348,-4.0332,-4.0332,-4.0364,-4.0348,-4.0247,-4.0247,-4.0194,-4.002,-4.002,-3.9958,-3.9911,-3.9889,-3.9935,-4.002,-4.002,-4.0081,0.0,0.0,0.0,0.0,0.0,0.0,0.0,0.0,0.0,0.0,0.0,0.0,0.0,0.0,0.0,0.0,0.0,0.0,0.0,0.0,0.0,0.0,0.0,0.0,0.0,-3.5078,-3.605,-3.6437,-3.6865,-3.7102,-3.7102,-3.7236,-3.7467,-3.7787,-3.8373,-3.8877,-3.9252,-3.9678,-3.9914,-3.9914,-3.9914,-3.9914,-3.9914,-3.9914,-3.9991,-4.0181,-4.1007,-4.1687,-4.2283,-4.3039,-4.3627,-4.3992,-4.2616,-4.1991,-4.1869,-4.0215,-3.9639,-3.9788,-3.9539,-3.9477,-3.9502,-3.9357,-3.9331,-3.9305,-3.9298,-3.9324,-3.9376,-3.9376,-3.9298,-3.9219,-3.9219,-3.9165,-3.9156,-3.9324,-3.9376,-3.9408,-3.9637,-3.9816,-3.9982,-4.0042,-4.0157,-4.0266,-4.0266,-4.0302,-4.0339,-4.0339,-4.0457,-4.0552,-4.0511,-4.0466,-4.0415,-4.037,-4.0334,-4.0281,-4.0248,-4.0194,-4.0177,-4.0177,-4.0177,-4.0139,-4.004,-4.004,-3.9979,-3.9911,-3.9889,-3.9889,-3.9889,-3.9889,-4.0022,-4.0347,-4.0302,-4.0176,-3.9962,0.0,0.0,0.0,0.0,0.0,0.0,0.0,0.0,0.0,0.0,0.0,0.0,0.0,0.0,0.0,0.0,0.0,0.0,0.0,0.0,0.0,0.0,0.0,-3.5854,-3.5991,-3.6344,-3.7067,-3.7168,-3.7168,-3.7168,-3.7584,-3.7858,-3.7905,-3.8745,-3.9263,-3.9305,-3.9731,-3.9985,-3.9985,-3.9985,-3.9985,-3.9985,-3.9985,-3.9985,-4.0003,-4.1081,-4.1629,-4.1684,-4.2705,-4.3321,-4.3542,-4.2732,-4.253,-4.2667,-4.1089,-4.042,-4.0374,-3.96,-3.9357,-3.9452,-3.911,-3.9017,-3.8989,-3.8862,-3.895,-3.9101,-3.9101,-3.9101,-3.9101,-3.9101,-3.9101,-3.9101,-3.9101,-3.9101,-3.9156,-3.9427,-3.9483,-3.9556,-3.9731,-3.9797,-3.9797,-3.9797,-3.9797,-3.9797,-3.9797,-4.0063,-4.0283,-4.0281,-4.0062,-3.9947,-4.0081,-3.9984,0.0,-4.0061,-3.9977,-3.9889,-3.9889,-3.9889,-3.9889,-3.9889,-3.9889,-3.9889,-3.9889,-3.9867,-3.9867,-3.9867,-3.9867,-4.0287,-4.112,-4.1024,-4.0547,-3.9687,0.0,0.0,0.0,0.0,0.0,0.0,0.0,0.0,0.0,0.0,0.0,0.0,0.0,0.0,0.0,0.0,0.0,0.0,0.0,0.0,0.0,-3.6273,-3.6715,-3.659,-3.7513,-3.8307,-3.8676,-3.8676,-3.8676,-3.8676,-3.8816,-3.9194,-3.9898,-4.0227,-4.0682,-4.1422,-4.1586,-4.1645,-4.1645,-4.1645,-4.1645,-4.1645,-4.1645,-4.1645,-4.1627,-4.194,-4.2228,-4.2405,-4.2698,-4.3032,-4.3249,-4.2426,-4.2197,-4.2424,-4.1391,-4.1089,-4.1126,-3.9714,-3.9183,-3.9192,-3.9101,-3.9073,-3.9073,-3.9017,-3.9045,-3.9101,-3.9101,-3.9101,-3.9101,-3.9101,-3.9101,-3.9101,-3.9101,-3.9101,-3.9129,-3.9192,-3.935,-3.9508,-3.958,-3.9705,-3.9797,-3.9797,-3.9797,-3.9797,-3.9797,-3.9772,-3.9772,-3.9924,-3.9924,-3.9882,-3.9835,-3.9772,-3.9728,-3.9656,-3.9628,-3.9647,-3.9739,-3.9739,-3.9739,-3.9739,-3.9585,-3.9421,-3.9401,-3.9216,-3.909,-3.909,-3.9287,-3.9571,-3.9962,-3.9932,-3.9801,0.0,0.0,0.0,0.0,0.0,0.0,0.0,0.0,0.0,0.0,0.0,0.0,0.0,0.0,0.0,0.0,0.0,0.0,0.0,0.0,0.0,0.0,-3.6692,-3.7152,-3.7278,-3.8345,-3.9148,-3.9272,-3.9272,-3.9272,-3.9272,-3.9272,-3.9573,-4.0137,-4.0563,-4.1036,-4.164,-4.2061,-4.2287,-4.2287,-4.2287,-4.2287,-4.2287,-4.2287,-4.2287,-4.2287,-4.2287,-4.2391,-4.2534,-4.2534,-4.2691,-4.2958,-4.2449,-4.2431,-4.2674,-4.1849,-4.165,-4.1773,0.0,0.0,0.0,0.0,-3.896,-3.896,-3.896,-3.9017,-3.9101,-3.9101,-3.9101,-3.9101,-3.9101,-3.9101,-3.9101,-3.9101,-3.9101,-3.9101,-3.9101,-3.9219,-3.9324,-3.9324,-3.9414,-3.9519,-3.9519,-3.9519,-3.9519,-3.9519,-3.9414,0.0,-3.9494,-3.9543,-3.9561,-3.9551,-3.9537,-3.9519,-3.9483,-3.9502,-3.9526,-3.9623,-3.9623,-3.9623,-3.9623,-3.9464,0.0,0.0,0.0,-3.8915,-3.881,-3.9258,0.0,0.0,0.0,-3.9589,-3.9219,-3.9364,0.0,0.0,-3.9804,-3.9887,0.0,0.0,0.0,0.0,0.0,0.0,0.0,0.0,0.0,0.0,0.0,0.0,0.0,0.0,0.0,0.0,-3.6707,-3.7413,-3.7879,-3.8733,-3.9272,-3.9272,-3.9272,-3.9272,-3.9272,-3.9272,-3.9325,-3.9362,-4.0237,-4.0754,-4.0802,-4.164,0.0,0.0,0.0,-4.2246,-4.2287,-4.2287,-4.2287,-4.2287,-4.2287,-4.2287,-4.2287,-4.2287,-4.2432,-4.2673,-4.2673,-4.2844,-4.3069,-4.2323,-4.2134,-4.2235,-4.1019,-4.0476,-4.0261,-3.9316,-3.8895,-3.8822,-3.8822,0.0,0.0,-3.9101,-3.9101,-3.9101,-3.9101,-3.9101,-3.9073,-3.9073,-3.9073,-3.9073,-3.9073,-3.9073,-3.9073,-3.9073,-3.9073,-3.9101,-3.9101,-3.9101,-3.9101,-3.9101,-3.9101,-3.9101,-3.9101,-3.9101,-3.9156,-3.9272,-3.9272,-3.9324,-3.9452,-3.9433,-3.9477,-3.9477,-3.9477,0.0,-3.9452,-3.9408,-3.9383,-3.9338,-3.9146,-3.8933,-3.8722,-3.9405,-3.9399,-3.8597,-3.9508,-3.9605,-3.8762,-3.896,-3.9073,-3.9073,-3.958,-3.9802,0.0,0.0,0.0,0.0,0.0,0.0,0.0,0.0,0.0,0.0,0.0,0.0,0.0,0.0,0.0,-3.735,-3.7847,-3.8294,-3.8898,-3.9202,-3.9272,-3.9272,-3.9272,-3.9272,-3.9272,-3.9272,-3.9468,-3.9817,-4.0053,-4.0351,-4.0802,-4.099,-4.1265,-4.1622,-4.1666,-4.1856,-4.2287,-4.2287,-4.2287,-4.2287,-4.2287,0.0,-4.2287,-4.2287,-4.2328,-4.2391,-4.2391,-4.2534,-4.277,-4.2607,-4.2322,-4.1951,-4.1521,-4.0958,-4.0364,-4.0187,-3.9542,-3.8803,-3.9007,-3.896,-3.8892,-3.9045,-3.9101,-3.9101,-3.9101,-3.9045,0.0,-3.9007,-3.8979,-3.895,-3.895,-3.895,-3.895,-3.9007,-3.9007,-3.9036,-3.9073,-3.9101,-3.9101,-3.9101,-3.9101,-3.9101,-3.9101,-3.9101,-3.9101,-3.911,-3.9156,-3.9156,-3.9165,-3.9183,-3.9219,-3.9324,-3.935,-3.9272,-3.911,-3.8894,-3.864,-3.8314,-3.805,-3.7982,-3.8168,-3.8295,-3.838,-3.8446,-3.8656,-3.8656,-3.8496,-3.8743,-3.8862,-3.8862,-3.9119,-3.9234,0.0,0.0,0.0,0.0,0.0,0.0,0.0,0.0,0.0,0.0,0.0,-3.5016,-3.5365,0.0,-3.5991,-3.6843,-3.7456,-3.8067,-3.8606,-3.904,-3.9272,-3.9272,-3.9272,-3.9272,-3.9272,-3.9272,-3.9415,-3.9644,-3.9868,-4.0103,-4.04,-4.0659,-4.0896,-4.1111,-4.1383,-4.1622,-4.1917,-4.2187,-4.2287,-4.2287,-4.2287,-4.2287,-4.2287,-4.2287,-4.2287,-4.2287,-4.2287,-4.2391,-4.2494,-4.2634,-4.2535,-4.2286,-4.2242,-4.1511,-4.0546,-4.0546,-3.9968,-3.9158,-3.9283,-3.9056,-3.8725,-3.8815,-3.8931,-3.9007,-3.9007,-3.8979,-3.895,-3.895,-3.8939,-3.891,-3.891,-3.891,-3.891,-3.8921,-3.895,-3.895,-3.9007,-3.9007,-3.9007,-3.9007,-3.9007,-3.9007,-3.9045,-3.9064,-3.9045,-3.9101,-3.9101,-3.9101,-3.9101,-3.9101,-3.9101,-3.9045,-3.9045,-3.8942,-3.8707,-3.8585,-3.8364,-3.8018,-3.788,-3.7792,-3.7792,-3.7792,-3.7845,-3.7984,-3.8119,-3.8186,-3.8186,-3.8446,-3.859,-3.8621,-3.8844,-3.8989,0.0,0.0,0.0,0.0,0.0,0.0,0.0,-3.5082,-3.5001,-3.5148,-3.5148,-3.5133,-3.5118,-3.5459,-3.5831,-3.629,-3.7055,-3.778,-3.8181,-3.8805,-3.9218,-3.9218,-3.9272,-3.9272,-3.9272,-3.9272,-3.9272,-3.9272,-3.9644,-3.9868,-3.9868,-4.0269,-4.0563,-4.0659,-4.1019,-4.1248,-4.1338,-4.1856,-4.2145,-4.2145,-4.2246,-4.2287,-4.2287,-4.2287,-4.2287,-4.2287,-4.2246,-4.2246,-4.2246,-4.2396,-4.2476,-4.2498,-4.2559,-4.1881,-4.0872,-4.0817,-4.0236,-3.9494,-3.9418,-3.9046,-3.8579,-3.8446,-3.8535,-3.8676,-3.8676,-3.8646,-3.8646,-3.8646,-3.8695,-3.8725,-3.8725,-3.8803,-3.8881,-3.8881,-3.8881,-3.8862,-3.891,-3.891,-3.891,-3.891,-3.891,-3.8939,-3.895,-3.8979,-3.9007,-3.9073,-3.9101,-3.9073,-3.9045,-3.9045,-3.896,-3.8743,-3.8713,-3.8621,-3.835,-3.8285,-3.8153,-3.7949,-3.7915,-3.7828,-3.7631,-3.7577,-3.7577,-3.7577,-3.781,-3.7915,-3.7915,-3.8186,-3.8318,-3.8285,-3.8674,-3.8951,-3.2946,-3.3087,-3.3311,-3.4113,-3.452,-3.4735,0.0,-3.5096,-3.5359,-3.5001,-3.4935,-3.5184,-3.5958,-3.629,-3.6814,-3.7679,-3.827,-3.8678,-3.8733,-3.8876,-3.9056,-3.9023,-3.9202,-3.9272,-3.9272,-3.9272,-3.9272,-3.9272,-3.9379,-3.9362,-3.9362,-3.9415,-3.9644,-4.0053,-4.0153,-4.04,-4.0896,-4.1338,-4.1578,-4.1622,-4.2044,-4.2287,-4.2287,-4.2287,-4.2287,-4.2287,-4.2061,-4.1917,-4.1917,-4.1805,-4.1719,-4.1719,-4.1719,-4.1656,-4.1478,-4.121,-4.048,-3.9536,-3.9102,-3.8779,-3.8452,-3.7953,-3.7823,-3.7839,-3.7839,-3.7807,-3.7755,-3.7755,-3.7964,-3.8201,-3.8201,-3.8465,-3.8719,-3.8792,-3.8822,-3.8822,-3.8881,-3.891,-3.891,-3.891,-3.891,-3.8892,-3.891,-3.891,-3.895,-3.9073,-3.9101,-3.9045,-3.8862,-3.8833,-3.8743,-3.8478,-3.8446,-3.835,-3.8052,-3.7828,-3.7685,-3.7649,-3.7649,-3.7613,-3.7577,-3.7577,-3.7577,-3.7577,-3.7613,-3.7649,-3.7667,-3.7915,-3.7949,-3.7792,-3.8739,-3.9039,-3.3143,-3.352,-3.3977,-3.4346,-3.4481,-3.4601,-3.4698,-3.4898,-3.503,-3.4935,-3.4935,-3.5001,-3.5264,-3.5479,-3.5961,-3.7055,-3.7488,-3.7969,-3.8678,-3.8876,-3.8876,-3.886,-3.904,-3.9148,-3.9272,-3.9272,-3.9272,-3.9272,-3.9272,-3.9272,-3.9272,-3.9272,-3.9362,-3.9609,-3.9765,-3.9986,-4.0235,-4.0607,-4.0827,-4.0827,-4.141,-4.1666,-4.1552,-4.1917,-4.2019,-4.1909,-4.1762,-4.1736,-4.1719,-4.1648,-4.1604,-4.1604,-4.1408,-4.1363,-4.1356,-4.1425,-4.0848,-4.0034,-3.9863,-3.9195,-3.838,-3.8178,-3.7862,-3.7578,-3.7578,-3.7542,-3.7524,-3.7524,-3.765,-3.7756,-3.7756,-3.7879,-3.8016,-3.805,-3.8032,-3.8117,-3.8364,-3.8249,-3.8165,-3.8396,-3.8249,-3.8099,-3.8132,-3.8147,-3.818,-3.8255,-3.848,-3.853,-3.8194,-3.8162,-3.808,-3.7844,-3.7685,-3.7541,-3.7411,-3.7317,-3.7241,-3.7241,-3.7241,-3.7241,-3.7241,-3.7241,-3.7241,-3.7241,-3.7241,-3.7241,-3.7241,-3.778,-3.7993,-3.7952,-3.8948,-3.9372,-3.3451,-3.3962,-3.4414,-3.4414,-3.4414,-3.4481,-3.4631,-3.4698,-3.475,-3.4735,-3.4802,-3.4817,-3.4698,-3.4868,-3.535,-3.6197,-3.6569,-3.7131,-3.827,-3.843,-3.8525,-3.875,-3.8876,-3.8985,-3.9164,-3.9218,-3.9202,-3.9148,-3.9148,-3.9148,-3.9148,-3.9148,-3.9148,-3.9148,-3.9418,-3.9542,-3.9542,-3.9919,-4.0102,-4.0085,-4.0716,-4.103,-4.1036,-4.1552,-4.1719,-4.1604,-4.1498,-4.1498,-4.1498,-4.1426,-4.1426,-4.138,-4.118,-4.1117,-4.1117,-4.1335,-4.1014,-4.0507,-4.028,-3.9563,-3.8708,-3.8538,-3.8003,-3.7506,-3.7506,-3.7347,-3.717,-3.717,-3.7246,-3.734,-3.734,-3.7432,-3.7505,-3.7505,-3.7505,-3.7578,-3.7879,-3.7721,-3.7578,-3.7879,-3.7685,-3.7542,-3.756,-3.7596,-3.7542,-3.7506,-3.7719,-3.7841,-3.7649,-3.756,-3.7433,-3.7319,-3.7126,-3.6987,-3.6987,-3.6987,-3.6987,-3.6987,-3.6987,-3.6987,-3.6987,-3.6987,-3.6987,-3.6987,-3.718,-3.7286,-3.7303,-3.8041,-3.8368,-3.8321,-3.9306,-3.9764,-3.4113,-3.4414,-3.4414,-3.4414,-3.4563,-3.4631,-3.4481,-3.4668,-3.4802,-3.4481,-3.4563,-3.4698,-3.4698,-3.5118,-3.5464,-3.5672,-3.6087,-3.6646,-3.7342,-3.754,-3.7891,-3.8528,-3.8704,-3.8815,-3.8805,-3.8914,-3.8969,-3.8805,-3.8805,-3.8805,-3.8805,-3.8805,-3.8805,-3.8805,-3.8805,-3.886,-3.886,-3.9348,-3.9594,-3.9662,-4.0102,-4.0542,-4.1036,-4.1436,-4.1604,-4.1604,-4.1318,-4.1209,-4.1209,-4.1012,-4.0935,-4.0935,-4.0918,-4.0935,-4.0935,-4.0935,-4.0918,-4.078,-4.0003,-3.9709,-3.9554,-3.8829,-3.8087,-3.7482,-3.7482,-3.6947,-3.6343,-3.6343,-3.6597,-3.69,-3.69,-3.7208,-3.7505,-3.7505,-3.7505,-3.7505,-3.7505,-3.7505,-3.7505,-3.7505,-3.7505,-3.7505,-3.7505,-3.7505,-3.7377,-3.6978,-3.6939,-3.7055,-3.7376,-3.7185,-3.7009,-3.7009,-3.7009,-3.6987,-3.6987,-3.6987,-3.6987,-3.6987,-3.6987,-3.6987,-3.6987,-3.6987,-3.6987,-3.6987,-3.769,-3.8076,-3.8076,-3.8789,-3.9091,-3.8912,-3.9712,-4.0193,-3.352,-3.3962,-3.4414,-3.4414,-3.4481,-3.4481,-3.4414,-3.4481,-3.4549,-3.4414,-3.4481,-3.4481,-3.4481,-3.4601,-3.4905,-3.5415,-3.5642,-3.5961,-3.6646,-3.7172,-3.7526,-3.777,-3.8319,-3.8632,-3.856,-3.8766,-3.886,-3.8805,-3.8805,-3.8805,-3.8805,-3.8805,-3.8805,-3.8805,-3.8711,-3.8672,-3.8672,-3.875,-3.8805,-3.8805,-3.9242,-3.9749,-4.0351,-4.0597,-4.0728,-4.0776,-4.0901,-4.0995,-4.1012,-4.0918,-4.0888,-4.0888,-4.0888,-4.0888,-4.0888,-4.0888,-4.0888,-4.0836,-4.0578,-4.0146,-3.9664,-3.9405,-3.8819,-3.8129,-3.7629,-3.7301,-3.6973,-3.6456,-3.6409,-3.6492,-3.6492,-3.6597,-3.6719,-3.6719,-3.6719,-3.6799,-3.7055,-3.69,-3.6781,-3.7055,-3.69,-3.6719,-3.6719,-3.6719,-3.6678,-3.6533,-3.6492,-3.6516,-3.6655,-3.6574,-3.655,-3.655,-3.655,-3.6468,-3.6199,-3.6426,-3.6326,-3.5837,-3.6071,-3.6071,-3.5837,-3.6534,-3.6939,-3.6939,-3.7652,-3.8047,-3.8064,-3.8786,-3.9118,-3.9059,-4.0129,-4.0678,-3.352,-3.4045,-3.4414,-3.4414,-3.4414,-3.4414,-3.4414,-3.4414,-3.4414,-3.4414,-3.4414,-3.4414,-3.4414,-3.4414,-3.4534,-3.4971,-3.5023,-3.527,-3.5961,-3.6399,-3.6845,-3.7342,-3.7844,-3.8205,-3.8408,-3.856,-3.8655,-3.8655,-3.8655,-3.8655,-3.8655,-3.8655,-3.8655,-3.8655,-3.856,-3.852,-3.852,-3.8448,-3.8391,-3.8391,-3.8821,-3.9222,-3.9662,-3.9952,-4.0121,-4.0288,-4.0583,-4.0776,-4.0888,-4.0888,-4.0888,-4.0888,-4.0888,-4.0888,-4.0888,-4.0888,-4.0888,-4.084,-4.0871,-4.0543,-4.0112,-4.0112,-3.9595,-3.8888,-3.8422,-3.8094,-3.7715,-3.6939,-3.6715,-3.6663,-3.637,-3.6301,-3.6301,-3.6276,-3.6276,-3.6301,-3.6516,-3.6367,-3.6259,-3.6516,-3.6367,-3.6174,-3.6174,-3.6216,-3.6276,-3.6276,-3.6259,-3.6301,-3.6301,-3.6301,-3.6259,-3.6131,-3.6131,-3.6002,-3.5633,-3.5766,-3.5841,-3.5609,-3.5857,-3.5975,-3.5964,-3.67,-3.7094,-3.7094,-3.7694,-3.8016,-3.8016,-3.864,-3.8941,-3.8992,-3.9949,-4.0451,-3.4128,-3.4414,-3.4414,-3.4414,-3.4414,-3.4414,-3.4414,-3.4414,-3.4414,-3.4414,-3.4414,-3.4414,-3.4414,-3.4414,-3.4414,-3.4414,-3.4414,-3.4587,-3.527,-3.54,-3.5897,-3.7163,-3.7358,-3.7669,-3.8278,-3.8391,-3.8391,-3.8391,-3.8391,-3.8391,-3.8391,-3.8391,-3.8391,-3.8391,-3.8391,-3.8391,-3.8391,-3.8391,-3.8391,-3.8391,-3.8766,-3.8969,-3.8969,-3.9418,-3.9833,-4.0255,-4.0288,-4.0534,-4.0888,-4.0888,-4.0888,-4.0888,-4.0888,-4.0888,-4.0888,-4.0888,-4.0793,-4.0697,-4.084,-4.0888,-4.0888,-4.0888,-4.0371,-3.975,-3.9715,-3.9215,-3.8491,-3.7749,-3.7542,-3.737,-3.6611,-3.6362,-3.6319,-3.6277,-3.6234,-3.6174,-3.6036,-3.6019,-3.6019,-3.6019,-3.6019,-3.6019,-3.6019,-3.6079,-3.614,-3.6174,-3.6242,-3.6251,-3.6259,-3.6259,-3.6114,-3.5827,-3.58,-3.5656,-3.5228,-3.5261,-3.5532,-3.6202,-3.6252,-3.6552,-3.7269,-3.7336,-3.7353,-3.7353,-3.7781,-3.8025,-3.8025,-3.8471,-3.869,-3.869,-3.9262,-3.9542,-3.3908,-3.4278,-3.4414,-3.4414,-3.4414,-3.4414,-3.4414,-3.4414,-3.4414,-3.4414,-3.4414,-3.4414,-3.4414,-3.4414,-3.4414,-3.4414,-3.4414,-3.4467,-3.4654,-3.5088,-3.5529,-3.5897,-3.6784,-3.7476,-3.7653,-3.8091,-3.8391,-3.8391,-3.8391,-3.8391,-3.8391,-3.8391,-3.8391,-3.8391,-3.8391,-3.8391,-3.8391,-3.8391,-3.8391,-3.8391,-3.8504,-3.856,-3.856,-3.8969,-3.9365,-3.9782,-4.0138,-4.0534,-4.0888,-4.0888,-4.0888,-4.0888,-4.0888,-4.084,-4.0745,-4.0745,-4.0648,-4.0534,-4.0583,-4.0583,-4.0583,-4.0583,-4.0446,-4.0172,-3.9624,-3.9333,-3.9025,-3.8237,-3.8031,-3.798,-3.7775,-3.7369,-3.703,-3.6904,-3.6508,-3.6139,-3.6034,-3.6019,-3.6019,-3.6019,-3.6019,-3.6019,-3.6019,-3.5722,-3.5605,-3.6114,-3.5883,-3.573,-3.5878,-3.5915,-3.5766,-3.5407,-3.5866,-3.5902,-3.5333,-3.6009,-3.6186,-3.561,-3.5861,-3.5942,-3.5828,-3.6621,-3.7113,-3.7113,-3.7718,-3.8091,-3.8091,-3.8213,-3.8254,-3.8254,-3.8707,-3.8908,-3.3868,-3.421,-3.4414,-3.4278,-3.4346,-3.4414,-3.4414,-3.4414,-3.4414,-3.4414,-3.4414,-3.4414,-3.4414,-3.4414,-3.4414,-3.4414,-3.4414,-3.4414,-3.4414,-3.4721,-3.5088,-3.5335,-3.6087,-3.6723,-3.7342,-3.7727,-3.8091,-3.8391,-3.8391,-3.8391,-3.8391,-3.8391,-3.8391,-3.8391,-3.8391,-3.8391,-3.8391,-3.8391,-3.8391,-3.8391,-3.8391,-3.8391,-3.8408,-3.86,-3.8969,-3.9365,-3.9799,-4.0221,-4.0648,-4.0745,-4.0793,-4.0793,-4.0728,-4.068,-4.0583,-4.0583,-4.0534,-4.0387,-4.0387,-4.0221,-3.9952,-4.0054,-4.0104,-3.9969,-3.9329,-3.9093,-3.8925,-3.8103,-3.7885,-3.7818,-3.75,-3.717,-3.6854,-3.6768,-3.6455,-3.6175,-3.6054,-3.6067,-3.6067,-3.6067,-3.6067,-3.6067,-3.6067,-3.5841,-3.5762,-3.6108,-3.5973,-3.5841,-3.5859,-3.5954,-3.5906,-3.5531,-3.5909,-3.5901,-3.5358,-3.5856,-3.6066,-3.5805,-3.5975,-3.6158,-3.619,-3.6842,-3.7189,-3.7189,-3.7446,-3.761,-3.761,-3.7476,-3.7417,-3.7417,-3.7895,-3.8149,-3.3896,-3.4088,-3.4278,-3.4128,-3.4196,-3.4346,-3.4414,-3.4414,-3.4414,-3.4414,-3.4414,-3.4414,-3.4414,-3.4414,-3.4414,-3.4414,-3.4414,-3.4414,-3.4414,-3.4414,-3.4601,-3.5219,-3.5335,-3.5834,-3.7027,-3.7222,-3.7535,-3.8221,-3.8278,-3.8335,-3.8408,-3.8391,-3.8391,-3.8391,-3.8391,-3.8391,-3.8391,-3.8391,-3.8391,-3.8391,-3.8391,-3.8391,-3.8391,-3.8335,-3.86,-3.9023,-3.9295,-3.9679,-4.0188,-4.037,-4.0419,-4.0419,-4.0303,-4.0254,-4.0254,-4.0254,-4.0171,-4.002,-4.002,-3.9644,-3.9135,-3.9454,-3.9489,-3.9332,-3.8816,-3.8635,-3.8504,-3.7796,-3.7616,-3.7469,-3.6812,-3.6596,-3.6474,-3.6377,-3.6254,-3.6185,-3.6136,-3.612,-3.612,-3.612,-3.612,-3.612,-3.612,-3.6088,-3.6088,-3.6185,-3.6254,-3.6196,-3.6014,-3.6201,-3.6178,-3.5851,-3.5892,-3.5792,-3.5392,-3.5487,-3.5802,-3.6358,-3.6389,-3.6641,-3.7282,-3.7298,-3.7298,-3.7298,-3.7044,-3.6938,-3.6938,-3.6616,-3.6492,-3.6492,-3.7074,-3.7298,-3.3675,-3.3827,-3.402,-3.4059,-3.4128,-3.4196,-3.4346,-3.4414,-3.4414,-3.4414,-3.4414,-3.4414,-3.4414,-3.4414,-3.4414,-3.4414,-3.4414,-3.4414,-3.4414,-3.4414,-3.4467,-3.4534,-3.5088,-3.5464,-3.5706,-3.6259,-3.6829,-3.7535,-3.7594,-3.7844,-3.8391,-3.8391,-3.8391,-3.8391,-3.8391,-3.8391,-3.8391,-3.8391,-3.8391,-3.8391,-3.8391,-3.8391,-3.8391,-3.8132,-3.8343,-3.8969,-3.8551,-3.8756,-3.9365,-3.9156,-3.9016,-3.9016,-3.9016,-3.8924,-3.8832,-3.8832,-3.8778,-3.8629,-3.8629,-3.8557,-3.8574,-3.9082,-3.8903,-3.8502,-3.839,-3.839,-3.8358,-3.8172,-3.814,-3.8107,-3.7994,-3.7584,-3.717,-3.7083,-3.6662,-3.6222,-3.6142,-3.612,-3.612,-3.612,-3.612,-3.612,-3.612,-3.5742,-3.5657,-3.6188,-3.5954,-3.5836,-3.635,-3.614,-3.5851,-3.5475,-3.5941,-3.6159,-3.581,-3.6357,-3.6627,-3.6492,-3.6492,-3.6538,-3.6662,-3.6662,-3.6662,-3.6662,-3.6616,-3.6554,-3.6554,-3.6554,-3.6492,-3.6492,-3.66,-3.6662,-3.2988,-3.3368,-3.3882,-3.3868,-3.3937,-3.4005,-3.4157,-3.4157,-3.4074,-3.377,-3.3991,-3.4128,-3.3811,-3.4113,-3.4414,-3.4414,-3.4414,-3.4414,-3.4414,-3.4414,-3.4414,-3.4414,-3.4654,-3.5037,-3.54,-3.5706,-3.615,-3.6829,-3.7027,-3.7535,-3.8335,-3.8205,-3.796,-3.7637,-3.7786,-3.7902,-3.7902,-3.7902,-3.7902,-3.7902,-3.7902,-3.7902,-3.7844,-3.7711,-3.7812,-3.8157,-3.81,-3.8327,-3.8662,-3.8613,-3.8596,-3.8596,-3.8541,-3.843,-3.8407,-3.8407,-3.8351,-3.8278,-3.8278,-3.8067,-3.7911,-3.8197,-3.8084,-3.7796,-3.7445,-3.7326,-3.7326,-3.7326,-3.7326,-3.7326,-3.7326,-3.7178,-3.6919,-3.6873,-3.6617,-3.636,-3.631,-3.629,-3.629,-3.629,-3.629,-3.629,-3.629,-3.6072,-3.602,-3.6347,-3.6182,-3.6122,-3.6445,-3.6315,-3.6131,-3.5926,-3.6222,-3.6364,-3.6228,-3.6553,-3.6677,-3.6492,-3.6492,-3.6492,-3.6492,-3.6492,-3.6492,-3.6492,-3.6492,-3.6492,-3.6492,-3.6492,-3.6492,-3.6492,-3.6492,-3.6492,-3.2232,-3.2761,-3.3521,-3.3605,-3.3591,-3.366,-3.3813,-3.366,-3.3283,-3.2988,-3.3255,-3.3465,-3.3157,-3.3604,-3.4059,-3.4278,-3.4346,-3.4346,-3.4346,-3.4346,-3.4346,-3.4346,-3.4278,-3.4534,-3.5023,-3.5088,-3.5335,-3.6009,-3.6446,-3.7071,-3.796,-3.7754,-3.731,-3.6692,-3.6951,-3.7087,-3.7087,-3.7087,-3.7087,-3.7087,-3.7087,-3.7147,-3.7222,-3.7163,-3.7238,-3.7417,-3.7637,-3.7828,-3.7886,-3.801,-3.8051,-3.8067,-3.7953,-3.7895,-3.7895,-3.7895,-3.7895,-3.7895,-3.7895,-3.7621,-3.7178,-3.7178,-3.7178,-3.7134,-3.6662,-3.6492,-3.6492,-3.6492,-3.6492,-3.6492,-3.6492,-3.6492,-3.6492,-3.6492,-3.6492,-3.6492,-3.6492,-3.6492,-3.6492,-3.6492,-3.6492,-3.6492,-3.6352,-3.6352,-3.6352,-3.6352,-3.6226,-3.6226,-3.6492,-3.6414,-3.6352,-3.6352,-3.6429,-3.6429,-3.6352,-3.6352,-3.6289,-3.6148,-3.6163,-3.6163,-3.6163,-3.6163,-3.6163,-3.6163,-3.6289,-3.6289,-3.6289,-3.6211,-3.6289,-3.6367,-3.6226,-3.6226,-3.1928,-3.216,-3.2461,-3.3382,-3.3058,-3.2747,-3.366,-3.2747,-3.1915,-3.2618,-3.2218,-3.1915,-3.2618,-3.2846,-3.3072,-3.3813,-3.4074,-3.4128,-3.4128,-3.4128,-3.4128,-3.4128,-3.4005,-3.3951,-3.402,-3.402,-3.4332,-3.5008,-3.5582,-3.6136,-3.6737,-3.6737,-3.6477,-3.5932,-3.5932,-3.5932,-3.5932,-3.5932,-3.5932,-3.5932,-3.5932,-3.6213,-3.6676,-3.643,-3.6693,-3.7358,-3.6892,-3.68,-3.706,-3.6785,-3.6662,-3.6662,-3.6662,-3.6662,-3.6662,-3.6662,-3.6662,-3.6662,-3.6662,-3.66,-3.66,-3.66,-3.66,-3.6554,-3.6492,-3.6492,-3.6492,-3.6492,-3.6492,-3.6492,-3.6492,-3.6492,-3.6492,-3.6492,-3.6492,-3.6492,-3.6492,-3.6492,-3.6492,-3.6492,-3.6492,-3.6352,-3.5879,-3.5752,-3.5752,-3.5752,-3.535,-3.5415,-3.6352,-3.6085,-3.5752,-3.5752,-3.6226,-3.6289,-3.5816,-3.5752,-3.5559,-3.5088,-3.5073,-3.5073,-3.5073,-3.5073,-3.5073,-3.5073,-3.5559,-3.5672,-3.5529,-3.532,-3.5529,-3.6037,-3.535,-3.5429,-3.067,-3.1044,-3.1489,-3.1869,-3.1709,-3.1623,-3.2015,-3.1636,-3.1106,-3.1106,-3.118,-3.1476,-3.1882,-3.2403,-3.3002,-3.3744,-3.3951,-3.3951,-3.3951,-3.3951,-3.3951,-3.3951,-3.3951,-3.3896,-3.3896,-3.3896,-3.4088,-3.4587,-3.4824,-3.4993,-3.5094,-3.5612,-3.5563,-3.4993,-3.5175,-3.529,-3.529,-3.529,-3.529,-3.529,-3.529,-3.5355,-3.5563,-3.5464,-3.5785,-3.6368,-3.6133,-3.6289,-3.6677,-3.6554,-3.6492,-3.6492,-3.6492,-3.6492,-3.6492,-3.6492,-3.6492,-3.6492,-3.6492,-3.6492,-3.6492,-3.6492,-3.6492,-3.6492,-3.6492,-3.6492,-3.6492,-3.6492,-3.6492,-3.6492,-3.6492,-3.6289,-3.6022,-3.6022,-3.5752,-3.5544,-3.5544,-3.5544,-3.5479,-3.519,-3.519,-3.5059,-3.4566,-3.4499,-3.4499,-3.4499,-3.4298,-3.4298,-3.4765,-3.4633,-3.4499,-3.4499,-3.54,-3.5816,-3.5285,-3.5219,-3.5008,-3.4595,-3.4528,-3.4447,-3.4163,-3.4163,-3.4163,-3.4163,-3.4365,-3.4432,-3.4365,-3.4283,-3.4365,-3.4647,-3.4298,-3.4298,-2.9691,-3.0063,-3.0594,-3.082,-3.0745,-3.0594,-3.082,-3.0519,-3.0152,-2.9922,-3.0139,-3.0594,-3.1206,-3.1796,-3.2475,-3.3521,-3.3758,-3.3827,-3.3827,-3.3827,-3.3827,-3.3827,-3.3744,-3.3744,-3.3744,-3.3744,-3.3813,-3.4074,-3.4074,-3.3991,-3.3894,-3.4423,-3.4558,-3.4074,-3.4303,-3.4423,-3.4423,-3.4423,-3.4423,-3.4423,-3.4423,-3.4491,-3.4677,-3.4677,-3.4957,-3.5479,-3.5479,-3.5752,-3.6289,-3.6289,-3.6352,-3.6492,-3.6414,-3.6414,-3.6429,-3.6367,-3.6367,-3.6367,-3.6367,-3.6367,-3.6367,-3.6367,-3.6367,-3.6289,-3.6085,-3.6226,-3.6492,-3.6289,-3.6148,-3.6022,-3.5879,-3.5544,-3.527,-3.5124,-3.4795,-3.4528,-3.4528,-3.4528,-3.4447,-3.4163,-3.4095,-3.3959,-3.3547,-3.3463,-3.3463,-3.3463,-3.3339,-3.3339,-3.3671,-3.3533,-3.3463,-3.3463,-3.4298,-3.4728,-3.4327,-3.4327,-3.4109,-3.3699,-3.363,-3.3492,-3.3269,-3.3199,-3.3199,-3.3199,-3.3408,-3.3478,-3.3408,-3.3325,-3.3394,-3.3547,-3.3325,-3.3325,-2.9225,-2.9537,-2.9922,-3.067,-3.0291,-2.9922,-3.0745,-2.9704,-2.8736,-2.9561,-2.9106,-2.904,-3.0594,-3.0895,-3.1415,-3.3016,-3.3466,-3.3605,-3.3605,-3.3605,-3.3605,-3.3605,-3.3466,-3.3326,-3.3326,-3.3326,-3.3326,-3.3326,-3.3326,-3.3326,-3.3326,-3.3326,-3.3326,-3.3326,-3.3312,-3.3326,-3.3326,-3.3326,-3.3326,-3.3326,-3.3326,-3.3563,-3.407,-3.407,-3.4409,-3.4876,-3.4876,-3.5219,0.0,-3.5688,-3.6022,-3.6492,-3.6274,-3.6196,-3.6211,-3.6022,-3.6037,-3.6037,-3.6037,-3.6037,-3.6037,-3.6037,-3.6037,-3.5894,-3.5154,-3.5688,-3.6414,-3.5879,-3.535,-3.481,-3.4447,-3.4312,-3.423,-3.3808,-3.3739,-3.3739,-3.3739,-3.3739,-3.3739,-3.3739,-3.3739,-3.3533,-3.3003,-3.2932,-3.2932,-3.2932,-3.2461,-3.2533,-3.3533,-3.3269,-3.2932,-3.2932,-3.2932,-3.2932,-3.2932,-3.2932,-3.2662,-3.2128,-3.2128,-3.2128,-3.2128,-3.2128,-3.2128,-3.2128,-3.2662,-3.2804,-3.2704,-3.2519,-3.272,-3.3213,-3.2434,-3.2506,-2.8474,-2.8712,-2.8961,-2.9184,-2.9028,-2.8961,-2.9184,-2.8882,-2.8578,-2.8803,-2.8657,-2.8803,-2.9845,-3.0075,-3.0607,-3.2245,-3.2533,-3.2775,-3.3312,-3.3396,-3.3396,-3.3396,-3.3326,-3.3326,-3.3326,-3.3326,-3.3326,-3.3326,-3.3326,-3.3171,-3.2931,-3.286,-3.3016,-3.3326,-3.3326,-3.3326,-3.3326,-3.3326,-3.3326,-3.3326,-3.3326,-3.3227,-3.3115,-3.3115,-3.3311,-3.3561,-3.3561,-3.3822,-3.4365,-3.4365,-3.4432,-3.4566,-3.4499,-3.4485,-3.4566,-3.5073,-3.5219,-3.5285,-3.5831,-3.5703,-3.5219,-3.5219,-3.4861,-3.4365,-3.4163,-3.4714,-3.527,-3.4514,-3.423,-3.4027,-3.3945,-3.3616,-3.3283,-3.3199,-3.2861,-3.2605,-3.2605,-3.2605,-3.2533,-3.2318,-3.2232,-3.2101,-3.169,-3.1616,-3.1616,-3.1616,-3.1482,-3.1482,-3.1809,-3.1676,-3.1616,-3.1616,-3.1616,-3.1823,-3.2331,-3.2331,-3.2187,-3.1776,-3.1776,-3.1629,-3.1347,-3.1347,-3.1347,-3.1347,-3.1542,-3.1542,-3.1556,-3.1468,-3.1542,-3.169,-3.1468,-3.1468,-2.7938,-2.8271,-2.8431,-2.851,-2.851,-2.851,-2.851,-2.851,-2.851,-2.851,-2.851,-2.8736,-2.9549,-2.9704,-3.0152,-3.1415,-3.1928,-3.2304,-3.2775,-3.3086,-3.3326,-3.3326,-3.3326,-3.3326,-3.3326,-3.3157,-3.3086,-3.3086,-3.2945,-3.2731,-3.2489,-3.2489,-3.2561,-3.2874,-3.2874,-3.2874,-3.2874,-3.2874,-3.2874,-3.2874,-3.2874,-3.2717,-3.2489,-3.2489,-3.2547,-3.2605,-3.2605,-3.2932,0.0,-3.3408,-3.3533,-3.3671,-3.3602,-3.3616,-3.3685,-3.4109,-3.4259,-3.4327,-3.4795,-3.4662,-3.4259,-3.4259,-3.3754,-3.3115,-3.3115,-3.3616,-3.4041,-3.3547,-3.3269,-3.3073,-3.2918,-3.2648,-3.239,-3.2245,-3.1896,-3.1703,-3.1703,-3.1703,-3.1629,-3.1421,-3.1347,-3.1272,-3.1061,-3.0986,-3.0986,-3.0986,-3.0986,-3.0986,-3.0986,-3.0986,-3.0986,-3.0986,-3.0986,-3.1198,-3.1629,-3.1703,-3.1629,-3.1421,-3.1347,-3.1272,-3.0986,-3.0986,-3.0986,-3.0986,-3.0986,-3.0986,-3.0986,-3.0986,-3.0986,-3.0986,-3.0986,-3.0986,0.0,-2.7857,-2.8087,-2.8339,-2.8351,-2.8431,-2.8431,-2.851,0.0,-2.851,-2.851,-2.8736,-2.9484,-2.9626,-2.9858,-3.067,-3.1489,-3.2001,-3.2074,-3.2775,-3.3326,-3.3326,-3.3241,-3.3255,-3.3255,-3.286,-3.2632,-3.2632,-3.2345,-3.2055,-3.2055,-3.2055,-3.2055,-3.1982,-3.1982,-3.2055,-3.2128,-3.2128,-3.2128,-3.2128,-3.2128,-3.2055,-3.2055,-3.2055,-3.2055,-3.1982,-3.1982,-3.2318,-3.2791,-3.2791,-3.3059,-3.3533,-3.3353,-3.3297,-3.3297,-3.3143,-3.3143,-3.3143,-3.3143,-3.3143,-3.3073,-3.3087,-3.2577,-3.2015,-3.2015,-3.2376,-3.2791,-3.2791,-3.239,-3.1909,-3.1629,-3.1556,-3.1482,-3.1061,-3.0986,-3.0986,-3.0986,-3.0986,-3.0986,-3.0986,-3.0986,-3.0986,-3.0986,-3.0986,-3.0986,-3.0986,-3.0986,-3.0986,-3.0986,-3.0986,-3.0911,-3.0911,-3.0911,-3.0823,-3.0823,-3.0911,-3.0911,-3.0911,-3.0911,-3.0823,-3.0823,-3.0823,-3.0823,-3.0823,-3.0911,-3.0911,-3.0823,-3.0911,-3.0898,-3.0911,-3.0823,-3.0823,-2.54,0.0,-2.6894,-2.6987,-2.7069,-2.7406,0.0,-2.8419,-2.851,-2.851,-2.851,-2.859,-2.8736,-2.8803,-2.9028,-2.9845,-3.067,-3.1415,-3.2001,-3.2775,-3.3326,-3.3326,-3.3016,-3.2846,-3.2846,-3.2489,-3.2273,-3.2273,-3.2128,-3.1982,-3.1703,-3.1703,-3.1556,-3.1272,-3.1272,-3.1556,-3.2055,-3.2128,-3.2128,-3.2128,-3.2128,-3.1982,-3.1703,-3.1703,-3.1556,-3.1272,-3.1272,-3.1334,-3.1482,-3.1482,-3.1542,-3.1603,-3.1616,-3.1616,-3.1616,-3.216,-3.2362,-3.2434,-3.3003,-3.2861,-3.2304,-3.1676,-3.1408,-3.1259,-3.1259,-3.1334,-3.1482,-3.1482,-3.1334,-3.1272,-3.1123,-3.1123,-3.1123,-3.0986,-3.0986,-3.0986,-3.0986,-3.0986,-3.0986,-3.0986,-3.0986,-3.0986,-3.0986,-3.0986,-3.0986,-3.0986,-3.0986,-3.0986,-3.0986,-3.0508,-3.0279,-3.0279,-2.9793,-2.9561,-2.9561,-2.996,-3.0279,-3.0279,-2.9793,-2.9561,-2.9561,-2.9561,-2.9561,-2.9561,-3.0037,-3.0037,-2.9561,-3.0037,-3.019,-3.0024,-2.9303,-2.9225,-2.3434,-2.4532,-2.5714,-2.5797,-2.5964,-2.6307,-2.7244,-2.758,-2.7834,-2.8259,-2.8431,-2.851,-2.851,-2.851,-2.8657,-2.9106,-2.9858,-3.0594,-3.1415,-3.2245,-3.2704,-3.2489,-3.2632,-3.2632,-3.2417,-3.2055,-3.1836,-3.1836,-3.1703,-3.1482,-3.1347,-3.1035,-3.0885,-3.0986,-3.0432,-3.057,-3.1556,-3.1629,-3.1629,-3.1629,-3.1629,-3.1482,-3.1347,-3.1347,-3.1198,-3.0986,-3.0986,-3.0986,-3.0986,-3.0986,-3.0986,-3.0986,-3.0986,-3.0986,-3.1061,-3.1468,-3.1603,-3.1676,-3.2028,-3.1969,-3.1529,-3.1123,-3.0986,-3.0986,-3.0986,-3.0986,-3.0986,-3.0986,-3.0986,-3.0986,-3.0986,-3.0986,-3.0986,-3.0986,-3.0986,-3.0986,-3.0986,-3.0986,-3.0986,-3.0986,-3.0748,-3.0508,-3.0508,-3.0279,-3.0114,-3.0114,-2.9947,-2.9781,-2.9781,-2.9303,-2.8978,-2.8978,-2.8743,-2.8493,-2.8493,-2.8505,-2.8834,-2.9561,-2.9238,-2.9081,-2.9081,-2.8912,-2.8676,-2.8505,-2.8809,-2.8821,-2.8493,-2.8821,-2.8888,-2.8809,-2.8323,-2.8255,-2.1909,-2.3008,-2.4361,-2.4702,-2.4787,-2.5126,-2.6058,-2.6472,-2.6987,-2.7753,-2.8179,-2.8431,-2.8431,-2.8431,-2.8431,-2.8431,-2.9094,-2.9922,-3.067,-3.1415,-3.1709,-3.1355,-3.1882,-3.2114,-3.175,-3.1381,-3.1246,-3.1246,-3.0885,-3.0748,-3.0748,-3.019,-3.0114,-3.0672,-2.9639,-2.9561,-3.0583,-3.0659,-3.0748,-3.0748,-3.0748,-3.0748,-3.0748,-3.0823,-3.0823,-3.0823,-3.0986,0.0,-3.0986,-3.0986,-3.0986,-3.0986,-3.0986,-3.0986,-3.0986,-3.0986,-3.0986,-3.0986,-3.0986,-3.0986,-3.0986,-3.0986,-3.0986,-3.0986,-3.0986,-3.0986,-3.0986,-3.0986,-3.0986,-3.0986,-3.0986,-3.0986,-3.0986,-3.0986,-3.0898,-3.0823,-3.0823,-3.0748,-3.0748,-3.0748,-3.019,-2.9793,-2.9793,-2.9316,-2.8912,-2.8912,-2.8585,-2.8335,-2.8335,-2.7924,-2.7683,-2.7683,-2.7522,-2.7522,-2.7522,-2.6976,-2.7232,-2.853,-2.8609,-2.8609,-2.8609,-2.8199,-2.7867,-2.7533,-2.7602,-2.7602,-2.7522,-2.7602,-2.7602,-2.7602,-2.7441,-2.7441,-2.1731,-2.19,-2.2334,-2.3173,-2.3521,-2.3943,-2.4872,-2.5797,-2.6565,-2.673,-2.7429,-2.7962,-2.7962,-2.8111,-2.8259,-2.8259,-2.8924,-2.9679,-3.0266,-3.0506,-3.0568,-3.0506,-3.0291,-3.0152,-3.0075,-2.9691,-2.9471,-2.9471,-2.9394,-2.9394,-2.9394,-2.9316,-2.9316,-2.9394,-2.916,-2.8991,-2.8821,-2.9147,-2.9394,-2.9394,-2.9394,-2.9394,-2.9406,-2.996,-3.0114,-3.019,0.0,-3.0986,-3.0986,-3.0986,-3.0986,-3.0986,-3.0986,-3.0986,-3.0986,-3.0986,-3.0986,-3.0986,-3.0986,-3.0986,-3.0986,-3.0986,-3.0986,-3.0986,-3.0986,-3.0986,-3.0986,-3.0986,-3.0986,-3.0986,-3.0986,-3.0986,-3.0986,-3.0986,-3.0596,-3.0114,-3.0114,-2.9716,-2.9394,-2.9394,-2.8991,-2.8664,-2.8664,-2.8255,-2.8004,-2.8004,-2.7924,-2.7924,-2.7924,-2.736,-2.6976,-2.6976,-2.6517,-2.6207,-2.6207,-2.6135,-2.6135,-2.6385,-2.6385,-2.6385,-2.6385,-2.6302,-2.6207,-2.6207,-2.6659,-2.6659,-2.6207,-2.6659,-2.6905,-2.667,-2.5935,-2.5757,-2.1651,-2.1741,-2.182,-2.2246,-2.2413,-2.2755,-2.3684,-2.4361,-2.5126,-2.6163,-2.6764,-2.7267,-2.78,-2.7962,-2.803,-2.803,-2.8339,-2.8712,-2.8924,-2.9381,-2.9537,-2.9316,-2.9549,-2.9626,-2.9394,-2.9238,-2.9081,-2.9081,-2.9081,-2.9081,-2.9081,-2.8518,-2.8347,-2.8676,-2.7799,-2.7406,-2.7533,-2.7406,-2.7718,-2.8414,-2.8414,-2.8414,-2.8414,-2.8652,-2.9069,-2.9561,0.0,-3.0114,-3.0343,-3.0583,-3.0508,-3.0343,-3.0596,-3.0672,-3.0672,-3.0672,-3.0748,-3.0849,-3.0849,-3.0911,-3.0986,-3.0836,-3.0849,-3.0849,-3.0685,-3.0672,-3.0596,-3.0114,-3.0508,-3.0911,-3.0508,-3.0432,-3.0355,-3.0037,-2.9716,-2.9471,-2.9147,-2.8912,-2.8664,-2.8414,-2.7936,-2.7545,-2.7545,-2.7151,-2.6753,-2.6753,-2.6577,-2.64,-2.64,-2.5913,-2.56,-2.56,-2.5285,-2.5137,-2.5137,-2.5137,-2.5391,-2.5895,-2.5895,-2.5812,-2.5549,-2.5549,-2.538,-2.5137,-2.5443,-2.5443,-2.5137,-2.5443,-2.5527,-2.5369,-2.4605,-2.4337,-2.1562,-2.1651,-2.1741,-2.1741,-2.1741,-2.1909,-2.2589,-2.3096,-2.378,-2.5158,-2.5735,-2.6329,-2.7196,-2.7626,-2.78,-2.78,-2.78,-2.78,-2.7719,-2.8247,-2.8554,-2.8271,-2.8712,-2.9003,-2.87,-2.87,-2.8609,-2.8518,-2.8518,-2.8438,-2.8371,-2.7557,-2.7313,-2.7799,-2.6528,-2.6041,-2.6412,-2.5957,-2.6279,-2.7371,-2.7371,-2.7371,-2.7371,-2.7522,-2.7936,-2.8597,-2.8755,-2.8991,-2.9291,-2.9626,-2.9549,-2.9291,-2.9626,-2.996,-3.0126,-3.0279,-3.0533,-3.0622,-3.0622,-3.0761,-3.0823,-3.0685,-3.0622,-3.0609,-3.0444,-3.0279,-2.996,-2.9328,-2.9639,-3.0101,-2.9626,-2.9459,-2.9394,-2.8912,-2.8676,-2.8438,-2.8108,-2.7947,-2.7706,-2.7371,-2.6812,-2.6412,-2.6412,-2.5946,-2.5559,-2.5559,-2.5295,-2.5031,-2.5031,-2.4615,-2.4282,-2.4282,-2.41,-2.4003,-2.4003,-2.4003,-2.4348,-2.502,-2.52,-2.5115,-2.4584,-2.4584,-2.4423,-2.4003,-2.4003,-2.4003,-2.4003,-2.4003,-2.4003,-2.4013,-2.3484,-2.3222,-2.1401,-2.1562,-2.1741,-2.1741,-2.1741,-2.1741,-2.182,-2.2501,-2.3183,-2.327,-2.4049,-2.4914,-2.583,-2.6846,-2.7522,-2.7522,-2.7522,-2.7441,-2.7313,-2.7313,-2.7313,-2.7313,-2.7301,-2.7383,-2.7301,-2.7301,-2.7126,-2.6693,-2.6693,-2.6528,-2.6135,-2.6063,-2.6063,-2.6063,-2.5979,-2.5717,-2.5359,-2.5285,-2.5549,-2.6052,-2.6052,-2.6052,-2.6063,-2.6588,-2.6894,-2.6976,-2.7602,-2.7912,-2.7924,-2.7992,-2.8004,-2.7924,-2.7992,-2.8493,-2.9316,-3.0126,-3.0444,-3.0444,-3.0444,-3.0444,-3.0444,-3.0444,-3.0444,-3.0444,-3.0368,-2.9806,-2.916,-2.9081,-2.8573,-2.8004,-2.7992,-2.7992,-2.7924,-2.7924,-2.7452,-2.6976,-2.6894,-2.6517,-2.6052,-2.6052,-2.5622,-2.5359,-2.5359,-2.4956,-2.4625,-2.4625,-2.454,-2.454,-2.454,-2.4024,-2.359,-2.359,-2.295,-2.257,-2.257,-2.257,-2.257,-2.2658,-2.3299,-2.3309,-2.2658,-2.257,-2.257,-2.257,-2.257,-2.257,-2.257,-2.257,-2.257,-2.257,-2.2482,-2.2482,-2.1105,-2.1186,-2.1275,-2.1275,-2.1374,-2.1571,-2.1651,-2.1989,-2.2413,-2.3008,-2.3357,-2.4039,-2.5568,-2.6163,-2.6588,-2.7208,-2.7301,-2.7301,-2.7231,-2.7231,-2.7231,-2.7231,-2.6962,-2.6787,-2.6787,-2.6561,-2.6313,-2.6135,-2.6135,-2.6063,-2.5895,-2.5633,-2.5464,-2.5464,-2.5211,-2.4967,-2.4786,-2.4786,-2.4871,-2.5052,-2.5052,-2.5052,-2.5052,-2.5285,-2.5673,-2.6152,-2.6472,-2.6719,-2.6987,-2.7302,-2.7221,-2.6987,-2.7302,-2.7545,-2.7867,-2.8199,-2.8438,-2.8597,-2.8597,-2.8664,-2.873,-2.8676,-2.8597,-2.8597,-2.8438,-2.8108,-2.7706,-2.7209,-2.6801,-2.6637,-2.7046,-2.7209,-2.7046,-2.667,-2.6445,-2.6196,-2.5852,-2.5611,-2.538,-2.5052,-2.4882,-2.4786,-2.4786,-2.4625,-2.4368,-2.3937,-2.3851,-2.3754,-2.329,-2.294,-2.2853,-2.2853,-2.258,-2.2394,-2.2394,-2.2394,-2.2227,-2.1793,-2.2413,-2.2677,-2.2394,-2.2394,-2.2394,-2.2394,-2.2394,-2.2394,-2.2394,-2.2394,-2.2394,-2.2394,-2.1961,-2.1606,-2.0916,-2.0907,-2.0997,-2.0997,-2.1105,-2.1293,-2.1463,-2.1553,-2.19,-2.2501,-2.2921,-2.3521,-2.4713,-2.54,-2.5997,-2.661,-2.6974,-2.7231,-2.7231,-2.7056,-2.6974,-2.6974,-2.6539,-2.629,-2.629,-2.6063,-2.5812,-2.5728,-2.5644,-2.5633,-2.5475,-2.5126,-2.4956,-2.4956,-2.4711,-2.454,-2.454,-2.454,-2.454,-2.454,-2.454,-2.454,-2.454,-2.454,-2.4861,-2.5421,-2.5421,-2.56,-2.5863,-2.6174,-2.6102,-2.5946,-2.6494,-2.6648,-2.673,-2.6987,-2.7232,-2.7383,-2.7383,-2.7452,-2.7533,-2.7383,-2.7383,-2.7313,-2.7151,-2.6894,-2.6565,-2.5986,-2.5579,-2.5505,-2.5913,-2.608,-2.6008,-2.5549,-2.5475,-2.5391,-2.5041,-2.4956,-2.4871,-2.454,-2.4368,-2.4196,-2.4196,-2.4013,-2.3657,-2.3222,-2.3135,-2.295,-2.2482,-2.2227,-2.1961,-2.1784,-2.1695,-2.1695,-2.1695,-2.1695,-2.1526,-2.1087,-2.1526,-2.1695,-2.1695,-2.1695,-2.1695,-2.1695,-2.1695,-2.1695,-2.1695,-2.1695,-2.1695,-2.1507,-2.1078,-2.0546,-2.0744,-2.0826,-2.0988,-2.0988,-2.0997,-2.0997,-2.0997,-2.1365,-2.1731,-2.1731,-2.2413,-2.3096,-2.3096,-2.4542,-2.5819,-2.583,-2.661,-2.7149,-2.7149,-2.6798,-2.6517,-2.6517,-2.6135,-2.5895,-2.5895,-2.5906,-2.5728,-2.52,-2.52,-2.4946,-2.454,-2.454,-2.454,-2.454,-2.4454,-2.4454,-2.454,-2.4454,-2.4454,-2.454,-2.454,-2.454,-2.454,-2.454,-2.454,-2.454,-2.454,-2.454,-2.454,-2.454,-2.454,-2.4625,-2.5421,-2.583,-2.5902,-2.6741,-2.7069,-2.7069,-2.7069,-2.7069,-2.7069,-2.7069,-2.7069,-2.7069,-2.7069,-2.6483,-2.583,-2.583,-2.5189,-2.454,-2.454,-2.454,-2.454,-2.454,-2.454,-2.454,-2.4454,-2.4454,-2.4454,-2.4454,-2.3937,-2.3503,-2.3503,-2.2853,-2.2394,-2.2394,-2.2394,-2.2394,-2.2394,-2.1793,-2.1087,-2.0382,-2.0292,-2.0292,-2.0292,-2.0292,-2.0292,-2.0292,-2.0292,-2.0292,-2.0292,-2.0292,-2.0292,-2.0292,-2.0292,-2.0292,-2.0292,-2.0292,-2.0011,-1.9546,-1.9546,-1.9271,-2.0382,-2.0464,-2.0464,-2.0464,-2.0645,-2.0826,-2.0826,-2.1006,-2.1177,-2.1177,-2.1544,-2.2069,-2.2746,-2.3694,-2.4648,-2.5263,-2.5884,-2.6313,-2.6313,-2.6146,-2.6052,-2.6052,-2.5717,-2.538,-2.538,-2.5126,-2.4882,-2.4711,-2.47,-2.4625,-2.454,-2.454,-2.454,-2.454,-2.4024,-2.4024,-2.454,-2.4024,-2.4024,-2.454,-2.454,-2.454,-2.454,-2.454,-2.454,-2.454,-2.454,-2.454,-2.454,-2.454,-2.454,-2.454,-2.4775,-2.4861,-2.4946,-2.5189,-2.5274,-2.5274,-2.5274,-2.5274,-2.5274,-2.5274,-2.5274,-2.5274,-2.5274,-2.5105,-2.4861,-2.4861,-2.47,-2.454,-2.454,-2.454,-2.454,-2.454,-2.454,-2.4368,-2.3937,-2.3764,-2.3667,-2.3115,-2.2843,-2.2765,-2.2765,-2.258,-2.2227,-2.1793,-2.1704,-2.1526,-2.0997,-2.0736,-2.0555,-2.0292,-2.0292,-2.0292,-2.0292,-2.0011,-1.9538,-1.8964,-1.8611,-1.8711,-1.9255,-1.9911,-1.982,-1.8796,-1.8872,-1.8788,-1.8434,-1.7855,-1.7569,-1.7382,-1.7382,-1.7203,-2.0292,-2.0292,-2.0292,-2.0292,-2.0382,-2.0564,-2.0564,-2.0826,-2.0997,-2.0997,-2.1096,-2.1365,-2.1952,-2.2648,-2.3444,-2.3973,-2.4659,-2.5094,-2.5094,-2.4925,-2.4765,-2.4765,-2.4402,-2.4059,-2.4059,-2.381,-2.3647,-2.3647,-2.3647,-2.3647,-2.3647,-2.3474,-2.3387,-2.3387,-2.2755,-2.2658,-2.3096,-2.2853,-2.295,-2.3387,-2.3841,-2.411,-2.411,-2.4368,-2.454,-2.454,-2.454,-2.454,-2.454,-2.454,-2.454,-2.454,-2.454,-2.454,-2.454,-2.454,-2.454,-2.454,-2.454,-2.454,-2.454,-2.454,-2.454,-2.454,-2.454,-2.454,-2.4454,-2.4196,-2.411,-2.4024,-2.3734,-2.3647,-2.382,-2.4368,-2.4282,-2.4024,-2.359,-2.3309,-2.295,-2.2492,-2.2227,-2.1961,-2.1961,-2.1784,-2.1436,-2.0997,-2.1006,-2.0637,-1.982,-1.9629,-1.9438,-1.9163,-1.8888,-1.8788,-1.8972,-1.8603,-1.8133,-1.7654,-1.739,-1.7203,-1.7289,-1.8226,-1.8411,-1.7483,-1.7561,-1.7475,-1.721,-1.6734,-1.6445,-1.6264,-1.6264,-1.5981,-2.0292,-2.0292,-2.0292,-2.0292,-2.0292,-2.0292,-2.0292,-2.0645,-2.0907,-2.0907,-2.0997,-2.0997,-2.0997,-2.1695,-2.2306,-2.2306,-2.3076,-2.3664,-2.3664,-2.3337,-2.3008,-2.3008,-2.257,-2.2306,-2.2306,-2.2296,-2.2296,-2.2296,-2.2296,-2.2296,-2.2296,-2.1863,-2.1606,-2.1606,-2.1123,-2.0845,-2.0935,-2.132,-2.1606,-2.1606,-2.2775,-2.3319,-2.3319,-2.411,-2.4368,-2.4272,-2.4272,-2.4368,-2.4454,-2.4454,-2.4454,-2.4454,-2.4454,-2.4454,-2.4454,-2.4454,-2.454,-2.4454,-2.4454,-2.4454,-2.4368,-2.4358,-2.4272,-2.4272,-2.4272,-2.4272,-2.4186,-2.358,-2.3406,-2.3232,-2.258,-2.2394,-2.2755,-2.4003,-2.3841,-2.3406,-2.3319,-2.2775,-2.2306,-2.2129,-2.1606,-2.1266,-2.1177,-2.0645,-2.0201,-2.0102,-2.0102,-1.972,-1.8696,-1.8403,-1.7933,-1.7289,-1.6821,-1.6626,-1.6807,-1.6626,-1.6445,-1.6351,-1.6257,-1.5792,-1.4854,-1.588,-1.6445,-1.6257,-1.6351,-1.6351,-1.6257,-1.6163,-1.5974,-1.5514,-1.5514,-1.5229,-1.9828,-2.0011,-2.0292,-2.0292,-2.0292,-2.0292,-2.0292,-2.0382,-2.0464,-2.0464,-2.0645,-2.0736,-2.0736,-2.1347,-2.1872,-2.1872,-2.2306,-2.2736,-2.2736,-2.257,-2.2394,-2.2041,-2.1872,-2.1686,-2.1293,-2.1203,-2.1203,-2.1203,-2.1203,-2.1203,-2.1203,-2.1123,-2.1033,-2.1033,-2.0413,-2.0413,-2.0935,-2.0512,-2.0512,-2.1123,-2.1302,-2.1676,-2.2148,-2.3222,-2.3396,-2.2843,-2.2843,-2.3202,-2.3764,-2.3764,-2.3764,-2.3764,-2.4282,-2.4196,-2.3764,-2.4282,-2.454,-2.4454,-2.3937,-2.3764,-2.358,-2.3028,-2.2843,-2.2843,-2.2843,-2.2843,-2.2843,-2.2668,-2.2668,-2.258,-2.2394,-2.2394,-2.2482,-2.2755,-2.2755,-2.2492,-2.198,-2.1713,-2.1347,-2.0357,-2.0093,-1.982,-1.9455,-1.9554,-1.9546,-1.8872,-1.8772,-1.8403,-1.7196,-1.6908,-1.6821,-1.6727,-1.6539,-1.6539,-1.6532,-1.617,-1.5697,-1.5032,-1.4657,-1.4094,-1.3335,-1.5317,-1.5981,-1.4765,-1.4937,-1.4841,-1.4472,-1.3902,-1.3522,-1.3426,-1.3426,-1.2931,-1.9279,-1.9371,-1.9563,-1.9563,-1.9563,-1.9563,-1.9563,-1.9563,-1.9563,-1.9563,-2.011,-2.0473,-2.0473,-2.0637,-2.0709,-2.0709,-2.0709,-2.0701,-2.0701,-2.0701,-2.0619,-2.0348,-2.0357,-2.0167,-1.9877,-1.9877,-1.9877,-1.9877,-1.9877,-1.9877,-1.9877,-1.9695,-1.9604,-1.9604,-1.8972,-1.878,-1.9131,-1.9063,-1.9255,-1.9604,-2.0141,-2.0692,-2.1257,-2.2413,-2.2765,-2.2394,-2.2394,-2.258,-2.295,-2.295,-2.295,-2.3038,-2.3387,-2.329,-2.3038,-2.3387,-2.3474,-2.3474,-2.3125,-2.295,-2.295,-2.2482,-2.2394,-2.2394,-2.2394,-2.2394,-2.2306,-2.205,-2.1872,-2.1784,-2.1239,-2.106,-2.097,-2.0701,-2.115,-2.1427,-2.1078,-2.0546,-2.0002,-1.9371,-1.9188,-1.9096,-1.8827,-1.8719,-1.8419,-1.7654,-1.7468,-1.7095,-1.5886,-1.569,-1.5507,-1.5134,-1.4848,-1.4752,-1.4848,-1.4567,-1.4184,-1.3806,-1.3022,-1.2446,-1.2063,-1.2807,-1.329,-1.3624,-1.3709,-1.3619,-1.3335,-1.2457,-1.2063,-1.2063,-1.1477,-1.0984,-1.8735,-1.8735,-1.8827,-1.8827,-1.8827,-1.8827,-1.8827,-1.8827,-1.8827,-1.8827,-1.9471,-2.0019,-2.0019,-1.9737,-1.9463,-1.9463,-1.9104,-1.8827,-1.8827,-1.8827,-1.8735,-1.8735,-1.8643,-1.8643,-1.855,-1.8542,-1.8542,-1.8542,-1.8542,-1.8542,-1.8542,-1.8172,-1.7986,-1.7986,-1.752,-1.7326,-1.7326,-1.7707,-1.7986,-1.7994,-1.908,-1.9812,-2.0184,-2.1418,-2.1952,-2.205,-2.205,-2.2138,-2.2217,-2.2217,-2.2217,-2.2227,-2.2306,-2.2306,-2.2227,-2.2403,-2.2394,-2.2394,-2.2315,-2.2217,-2.2227,-2.2041,-2.205,-2.205,-2.205,-2.1952,-2.1774,-2.1257,-2.0997,-2.0727,-1.9729,-1.9463,-1.9371,-1.892,-1.9363,-1.9985,-2.0266,-1.9463,-1.8735,-1.8542,-1.8265,-1.8164,-1.8265,-1.7785,-1.7117,-1.6257,-1.6163,-1.5785,-1.4752,-1.4472,-1.4088,-1.3437,-1.3055,-1.2861,-1.305,-1.2759,-1.2559,-1.2559,-1.1473,-1.0877,-1.0877,-1.0096,-1.0395,-1.217,-1.2268,-1.2268,-1.2268,-1.1375,-1.0877,-1.0877,-0.9998,-0.9509,-1.8272,-1.8458,-1.8827,-1.8827,-1.8827,-1.8827,-1.8827,-1.8827,-1.8827,-1.8827,-1.892,-1.9012,-1.9012,-1.892,-1.892,-1.892,-1.8827,-1.8827,-1.8827,-1.8827,-1.8643,-1.8272,-1.8179,-1.7986,-1.7512,-1.7512,-1.7512,-1.7512,-1.7512,-1.7512,-1.7512,-1.7426,-1.7426,-1.7426,-1.7333,-1.7326,-1.7326,-1.7326,-1.7426,-1.7426,-1.8079,-1.8357,-1.845,-1.9546,-2.0184,-2.0555,-2.0555,-2.0907,-2.1526,-2.1526,-2.1526,-2.1615,-2.2138,-2.205,-2.1615,-2.2227,-2.2394,-2.2306,-2.1704,-2.1526,-2.1445,-2.0826,-2.0555,-2.0555,-2.0555,-2.0275,-1.9994,-1.9911,-1.9554,-1.9096,-1.892,-1.892,-1.892,-1.8827,-1.8064,-1.7677,-1.8819,-1.892,-1.845,-1.7404,-1.6278,-1.571,-1.6177,-1.6082,-1.5792,-1.4937,-1.4841,-1.4465,-1.3238,-1.305,-1.305,-1.2861,-1.2861,-1.2764,-1.2861,-1.1965,-1.137,-1.137,-1.0391,-0.9805,-0.9805,-0.9706,-0.9706,-1.0002,-1.0002,-1.0002,-1.0002,-0.9899,-0.9805,-0.9805,-0.9706,-0.911,-1.7707,-1.7512,-1.7412,-1.7885,-1.7986,-1.7986,-1.7986,-1.7986,-1.7986,-1.7986,-1.7986,-1.8172,-1.8735,-1.855,-1.8365,-1.8365,-1.8172,-1.7986,-1.7986,-1.7986,-1.7893,-1.7707,-1.7613,-1.752,-1.7326,-1.7326,-1.7326,-1.7326,-1.7326,-1.7326,-1.7326,-1.7326,-1.7326,-1.7326,-1.7326,-1.7326,-1.7326,-1.7326,-1.7326,-1.7326,-1.752,-1.78,-1.8087,-1.8542,-1.9188,-1.992,-1.992,-2.0102,-2.0365,-2.0093,-2.0093,-2.0456,-2.0709,-2.0808,-2.0826,-2.1078,-2.1069,-2.0799,-2.0817,-2.0637,-2.0365,-2.0011,-1.992,-1.9828,-1.9563,-1.9279,-1.9188,-1.9188,-1.9012,-1.8735,-1.8458,-1.8071,-1.7692,-1.7412,-1.656,-1.5994,-1.656,-1.6749,-1.656,-1.5994,-1.5432,-1.5051,-1.4758,-1.4758,-1.4472,-1.3709,-1.3613,-1.3426,-1.2856,-1.2764,-1.2764,-1.2764,-1.2262,-1.1868,-1.1868,-1.0881,-1.0293,-1.0293,-0.9308,-0.8715,-0.8715,-0.812,-0.7826,-0.7826,-0.9011,-0.9608,-0.9608,-0.9011,-0.8715,-0.8715,-0.812,-0.7428,-1.7044,-1.6473,-1.6096,-1.6567,-1.6756,-1.6763,-1.6951,-1.6951,-1.6951,-1.7145,-1.7145,-1.7326,-1.8079,-1.7994,-1.7807,-1.7714,-1.7426,-1.7145,-1.7145,-1.7145,-1.7145,-1.7145,-1.7145,-1.7145,-1.7239,-1.7239,-1.7239,-1.7326,-1.7326,-1.7326,-1.7326,-1.7326,-1.7326,-1.7326,-1.7326,-1.7326,-1.7326,-1.7326,-1.7326,-1.7326,-1.7326,-1.7426,-1.7613,-1.7986,-1.8357,-1.8896,-1.9271,-1.9371,-1.9371,-1.892,-1.9004,-1.9371,-1.9371,-1.9646,-1.9928,-1.9928,-1.9737,-1.9463,-1.9837,-1.9646,-1.9371,-1.918,-1.908,-1.8988,-1.8434,-1.8164,-1.8071,-1.8071,-1.7978,-1.7792,-1.7419,-1.685,-1.6372,-1.6001,-1.5337,-1.486,-1.5051,-1.4956,-1.4765,-1.4765,-1.4669,-1.4292,-1.3715,-1.3619,-1.3431,-1.2856,-1.2764,-1.2662,-1.2462,-1.2365,-1.2268,-1.197,-1.1277,-1.0779,-1.0779,-0.9801,-0.9213,-0.9213,-0.8219,-0.7528,-0.7528,-0.6736,-0.6237,-0.6237,-0.7723,-0.8616,-0.8814,-0.7822,-0.7425,-0.7428,-0.6634,-0.5937,-1.6285,-1.5717,-1.5146,-1.5242,-1.5242,-1.5432,-1.6096,-1.6103,-1.6116,-1.6878,-1.6784,-1.6676,-1.6676,-1.6878,-1.6972,-1.6683,-1.6676,-1.6676,-1.6676,-1.6676,-1.6676,-1.6676,-1.6676,-1.6777,-1.6979,-1.6979,-1.7066,-1.7333,-1.7326,-1.7326,-1.7326,-1.7326,-1.7326,-1.7326,-1.7326,-1.7326,-1.7326,-1.7326,-1.7326,-1.7326,-1.7326,-1.6951,-1.6379,-1.7512,-1.7699,-1.7124,-1.835,-1.8827,-1.8827,-1.8827,-1.8827,-1.8827,-1.8827,-1.8827,-1.892,-1.892,-1.8827,-1.8827,-1.8827,-1.8827,-1.8735,-1.8064,-1.7785,-1.7684,-1.6828,-1.6358,-1.5988,-1.5988,-1.5615,-1.5337,-1.5242,-1.5242,-1.5146,-1.5146,-1.4573,-1.419,-1.4956,-1.4478,-1.3998,-1.3998,-1.3431,-1.2953,-1.2861,-1.2861,-1.2856,-1.2764,-1.2764,-1.2462,-1.137,-1.1268,-1.0881,-0.9903,-0.9706,-0.9706,-0.9706,-0.8715,-0.812,-0.812,-0.703,-0.6337,-0.6142,-0.6042,-0.5939,-0.5634,-0.5734,-0.6034,-0.6534,-0.6034,-0.5837,-0.6142,-0.5737,-0.5131,-1.6096,-1.5038,-1.3986,-1.4465,-1.4364,-1.4166,-1.4453,-1.4358,-1.4555,-1.5527,-1.5622,-1.5717,-1.6211,-1.6595,-1.6683,-1.6588,-1.6588,-1.6588,-1.6588,-1.6588,-1.6588,-1.6588,-1.6588,-1.6683,-1.6683,-1.6103,-1.6103,-1.7066,-1.5994,-1.5704,-1.6567,-1.619,-1.5906,-1.5906,-1.5906,-1.5906,-1.5906,-1.6379,-1.6379,-1.5906,-1.6379,-1.619,-1.5527,-1.6001,-1.6001,-1.5805,-1.6183,-1.6842,-1.7598,-1.7225,-1.7318,-1.7598,-1.7598,-1.7785,-1.8071,-1.8071,-1.7598,-1.6929,-1.721,-1.7117,-1.6835,-1.6553,-1.6459,-1.6365,-1.5798,-1.552,-1.533,-1.533,-1.5242,-1.5051,-1.5051,-1.4765,-1.419,-1.3715,-1.3431,-1.3238,-1.3528,-1.3431,-1.3147,-1.3147,-1.2953,-1.2764,-1.2764,-1.2764,-1.2565,-1.1868,-1.1765,-1.1375,-1.0293,-1.0194,-0.9998,-0.9608,-0.9015,-0.8616,-0.8616,-0.7627,-0.693,-0.693,-0.6634,-0.6337,-0.6237,-0.6042,-0.5639,-0.483,-0.4531,-0.4832,-0.5934,-0.5031,-0.4628,-0.473,-0.3924,-0.3219,-1.5717,-1.4274,-1.2834,-1.3409,-1.3113,-1.2818,-1.3006,-1.3006,-1.3301,-1.4172,-1.4274,-1.437,-1.4956,-1.514,-1.5425,-1.5724,-1.5717,-1.5615,-1.5229,-1.5038,-1.5038,-1.5134,-1.5134,-1.5235,-1.5425,-1.4752,-1.4752,-1.5717,-1.4848,-1.4651,-1.552,-1.5242,-1.5051,-1.5051,-1.5051,-1.5051,-1.5051,-1.5622,-1.5622,-1.5146,-1.5622,-1.5432,-1.4669,-1.4956,-1.4956,-1.4669,-1.4956,-1.552,-1.6278,-1.6001,-1.6001,-1.6271,-1.6271,-1.6553,-1.6842,-1.6842,-1.6271,-1.5609,-1.5886,-1.5798,-1.552,-1.5229,-1.5134,-1.5045,-1.4478,-1.4292,-1.4292,-1.4292,-1.4292,-1.4292,-1.4292,-1.3908,-1.3431,-1.2958,-1.2559,-1.2262,-1.2262,-1.2565,-1.2662,-1.2365,-1.2262,-1.2165,-1.1775,-1.1775,-1.1477,-1.0783,-1.0681,-1.0288,-0.9209,-0.911,-0.8913,-0.8517,-0.7922,-0.7428,-0.7428,-0.6734,-0.6237,-0.6237,-0.5834,-0.5532,-0.5434,-0.4931,-0.4327,-0.3524,-0.3123,-0.3324,-0.4227,-0.3524,-0.3221,-0.332,-0.2517,-0.1813,0.0,0.0,0.0,-1.198,-1.1585,-1.1385,-1.2052,-1.2047,-1.215,-1.2926,-1.2829,-1.263,-1.2727,-1.2727,-1.3022,-1.4004,-1.3986,-1.3494,-1.2431,-1.2047,-1.2042,-1.2242,-1.2339,-1.2533,-1.3022,-1.3022,-1.321,-1.3488,-1.3974,-1.4268,-1.4268,-1.4758,-1.5051,-1.5051,-1.5051,-1.5051,-1.5051,-1.5051,-1.5051,-1.5051,-1.5051,-1.4669,-1.3902,-1.4669,-1.4573,-1.3908,-1.4669,-1.5051,-1.5051,-1.5057,-1.5051,-1.5051,-1.5051,-1.5051,-1.5051,-1.5051,-1.5051,-1.5051,-1.5051,-1.5051,-1.486,-1.4094,-1.3902,-1.3715,-1.305,-1.2764,-1.2764,-1.2764,-1.2764,-1.2764,-1.2764,-1.2764,-1.2759,-1.2662,-1.1868,-1.117,-1.117,-1.1965,-1.2365,-1.137,-1.117,-1.0779,-0.9805,-0.9608,-0.9608,-0.9509,-0.9509,-0.9209,-0.812,-0.7922,-0.7528,-0.6534,-0.6334,-0.6337,-0.6337,-0.6039,-0.5942,-0.5942,-0.473,-0.3825,-0.3527,-0.2517,-0.1913,-0.1613,-0.1513,-0.1513,-0.1513,-0.1513,-0.1713,-0.1912,-0.1612,-0.0907,-1.4657,0.0,0.0,0.0,0.0,0.0,-1.031,-1.0306,-1.0498,-1.156,-1.1658,-1.1853,-1.2538,-1.2533,-1.2339,-1.215,-1.263,-1.2823,-1.2339,-1.2242,-1.2242,-1.2339,-1.2339,-1.2436,-1.2829,-1.2145,-1.2145,0.0,-1.2441,-1.2446,-1.3403,-1.3426,-1.3431,-1.3431,-1.3431,-1.3431,-1.3431,-1.4004,-1.4004,-1.3431,-1.4004,-1.3811,-1.3147,-1.3335,-1.3335,-1.3147,-1.3335,-1.3431,-1.3528,-1.4004,-1.419,-1.419,-1.419,-1.419,-1.419,-1.419,-1.3908,-1.3431,-1.3431,-1.3431,-1.3431,-1.3147,-1.3147,-1.305,-1.2861,-1.2764,-1.2764,-1.2764,-1.2764,-1.2662,-1.1868,-1.1668,-1.1473,-1.069,-1.0297,-0.9998,-0.9998,-1.0297,-1.0395,-1.0096,-0.9998,-0.9899,-0.9608,-0.9608,-0.9312,-0.8517,-0.8418,-0.8021,-0.693,-0.6833,-0.6637,-0.6139,-0.5434,-0.5233,-0.5737,-0.4327,-0.3723,-0.4528,-0.3522,-0.2819,-0.2718,-0.2214,-0.1611,-0.0706,-0.0504,-0.0101,0.0707,-0.0101,-0.0504,-0.0504,0.0303,0.0908,-1.4364,-1.2635,-1.0801,-1.0511,0.0,0.0,-0.9628,-0.9628,-0.9821,-1.04,-1.0498,-1.069,-1.1277,-1.1179,-1.0886,-1.04,-1.0886,-1.1179,-1.0984,-1.0881,-1.0877,-1.0984,-1.0984,-1.1082,-1.1375,-1.0886,-1.0886,-1.157,-1.1385,-1.1678,-1.2937,-1.2856,-1.2764,-1.2764,-1.2764,-1.2764,-1.2764,-1.3238,-1.3244,-1.2764,-1.3238,-1.3238,-1.2764,-1.2764,-1.2764,-1.2764,-1.2764,-1.2764,-1.2861,-1.3238,-1.3431,-1.3431,-1.3431,-1.3431,-1.3431,-1.3431,-1.3147,-1.2764,-1.2764,-1.2764,-1.2764,-1.2764,-1.2764,-1.2764,-1.2764,-1.2764,-1.2662,-1.2262,-1.1775,-1.1282,-1.0685,-1.0489,-1.0391,-0.9702,-0.9209,-0.8916,-0.8916,-0.8616,-0.8418,-0.8814,-0.8916,-0.8814,-0.8319,-0.8219,-0.8021,-0.7232,-0.7132,-0.6933,-0.6137,-0.5632,-0.5331,-0.5133,-0.4227,-0.3725,-0.4227,-0.3019,-0.2516,-0.3119,-0.2013,-0.1409,-0.1409,-0.0806,-0.0202,0.0404,0.0605,0.1009,0.1617,0.1009,0.0706,0.0706,0.1313,0.1818,-1.4268,-1.2344,-1.0413,-1.0314,-0.992,0.0,-0.9628,-0.9628,-0.9628,-0.9628,-0.9529,-0.9529,-0.9529,-0.9331,-0.9133,-0.9133,-0.9137,-0.9133,-0.9133,-0.8928,-0.8928,-0.9133,-0.9236,-0.9331,-0.9529,-0.9628,-0.9628,-0.9628,-1.0605,-1.1683,-1.2759,-1.2764,-1.2764,-1.2764,-1.2764,-1.2764,-1.2764,-1.2764,-1.2764,-1.2764,-1.2764,-1.2764,-1.2764,-1.2764,-1.2764,-1.2764,-1.2764,-1.2759,-1.2662,-1.2662,-1.2662,-1.2764,-1.2764,-1.2759,-1.2662,-1.2662,-1.2565,-1.2467,-1.2467,-1.2467,-1.2467,-1.2467,-1.2467,-1.2467,-1.2467,-1.2467,-1.2268,-1.1272,-1.0293,-0.9608,-0.941,-0.9406,-0.941,-0.9308,-0.8517,-0.7822,-0.7822,-0.703,-0.6634,-0.7627,-0.7826,-0.7528,-0.6537,-0.6337,-0.6237,-0.6042,-0.5842,-0.5739,-0.5434,-0.4528,-0.3823,-0.3823,-0.2818,-0.2215,-0.2316,-0.1913,-0.1611,-0.1812,-0.0504,0.0202,0.0202,0.1111,0.1617,0.1617,0.1718,0.1818,0.1919,0.1818,0.1818,0.1818,0.1919,0.2421,-1.3776,-1.2047,-1.0314,-0.9821,-0.9727,0.0,-0.9628,-0.9628,-0.9628,-0.9628,-0.943,-0.9236,-0.9236,-0.8836,-0.863,-0.8829,-0.873,-0.863,-0.8829,-0.9031,-0.9133,-0.9236,-0.9236,-0.9331,-0.9529,-0.9628,-0.9628,-0.9628,-1.0605,-1.1683,-1.2759,-1.2764,-1.2764,-1.2764,-1.2764,-1.2764,-1.2764,-1.2764,-1.2764,-1.2764,-1.2764,-1.2764,-1.2764,-1.2764,-1.2764,-1.2764,-1.2764,-1.2262,-1.1468,-1.1468,-1.2063,-1.2764,-1.2764,-1.2262,-1.1468,-1.1468,-1.0984,-1.0199,-1.0199,-1.0199,-1.0199,-1.0199,-1.0199,-1.0199,-1.0199,-1.0199,-1.0199,-0.9998,-0.9805,-0.941,-0.8517,-0.8319,-0.812,-0.7229,-0.6833,-0.6734,-0.6734,-0.6534,-0.6437,-0.6439,-0.6537,-0.6534,-0.6139,-0.6042,-0.5939,-0.5737,-0.4931,-0.4327,-0.4327,-0.3422,-0.2616,-0.2415,-0.141,-0.1008,-0.1713,-0.0101,0.0504,-0.0302,0.0706,0.1313,0.1313,0.1515,0.1617,0.1617,0.2421,0.3324,0.4124,0.3324,0.2923,0.2923,0.3725,0.4323,-1.3578,-1.1755,-0.992,-0.9628,-0.9628,0.0,0.0,-0.9628,-0.9529,-0.943,-0.9335,-0.9133,-0.9031,-0.863,-0.8432,-0.8531,-0.8627,-0.8627,-0.8627,-0.8931,-0.9236,-0.943,-0.943,-0.943,-0.9628,-0.9628,-0.9821,-1.0314,-1.0904,-1.1683,-1.2759,-1.2764,-1.2764,-1.2764,-1.2764,-1.2764,-1.2764,-1.2262,-1.1965,-1.1965,-1.1477,-1.1477,-1.1965,-1.1477,-1.1477,-1.1965,-1.1477,-1.0886,-1.0391,-1.0391,-1.0685,-1.1184,-1.1184,-1.0886,-1.0391,-1.0391,-1.0096,-0.9608,-0.9608,-0.9608,-0.9608,-0.9608,-0.9608,-0.9608,-0.9608,-0.9209,-0.8814,-0.8814,-0.8418,-0.7922,-0.7329,-0.7229,-0.7033,-0.6537,-0.6437,-0.6337,-0.6239,-0.6239,-0.5937,-0.5133,-0.5131,-0.5129,-0.5031,-0.5033,-0.473,-0.3922,-0.332,-0.2918,-0.282,-0.1913,-0.1108,-0.1007,0.0,0.0404,0.0,0.101,0.1414,0.0807,0.1313,0.1617,0.1617,0.1617,0.1818,0.2422,0.3423,0.4225,0.4824,0.4826,0.4528,0.4024,0.4524,0.5125,-1.3482,-1.1658,-0.9727,-0.9628,-0.9628,-0.9628,0.0,0.0,0.0,-0.9331,-0.9236,-0.9133,-0.8928,-0.8627,-0.8421,-0.8492,-0.8609,-0.8715,-0.859,-0.8913,-0.9236,-0.9529,-0.9529,-0.9628,-0.9628,-0.9628,-1.0019,-1.1096,-1.1194,-1.1683,-1.2759,-1.2764,-1.2764,-1.2764,-1.2565,-1.2462,-1.2462,-1.1473,-1.0881,-1.0877,-0.9998,-1.0096,-1.0877,-0.9998,-1.0096,-1.0877,-0.9998,-0.9509,-0.9312,-0.9312,-0.9209,-0.9011,-0.941,-0.9509,-0.9312,-0.9312,-0.9209,-0.9015,-0.9015,-0.9015,-0.9015,-0.9015,-0.9015,-0.9015,-0.9015,-0.8418,-0.7726,-0.7726,-0.703,-0.6437,-0.6437,-0.6437,-0.6437,-0.6437,-0.6337,-0.6237,-0.5739,-0.5639,-0.5233,-0.3924,-0.3621,-0.3621,-0.3621,-0.3621,-0.3219,-0.2114,-0.1711,-0.1511,-0.131,-0.0403,0.0303,0.0303,0.1111,0.1617,0.1617,0.1617,0.1617,0.1617,0.1617,0.1617,0.1617,0.1818,0.2422,0.3524,0.4526,0.5227,0.5425,0.6331,0.6132,0.5127,0.5325,0.5929,-1.3584,-1.195,-1.0216,0.0,-0.9628,-0.9628,-0.9628,0.0,-0.9628,-0.9529,0.0,-0.9236,-0.9133,0.0,0.0,-0.8642,-0.8735,-0.8871,-0.8925,-0.9037,-0.9236,-0.9236,-0.943,-0.9628,-0.9628,-0.9628,-1.0019,-1.1096,-1.1194,-1.1683,-1.2759,-1.2764,-1.2764,-1.2764,-1.1868,-1.137,-1.137,-1.0293,-0.9801,-0.9801,-0.9706,-0.9706,-0.9805,-0.9608,-0.9706,-0.9805,-0.9608,-0.9011,-0.8219,-0.8219,-0.7627,-0.6933,-0.8814,-0.9011,-0.8219,-0.8219,-0.7627,-0.6734,-0.6734,-0.6734,-0.6734,-0.6734,-0.6734,-0.6734,-0.6734,-0.6634,-0.6537,-0.6537,-0.6534,-0.6437,-0.6437,-0.6437,-0.6437,-0.6437,-0.6239,-0.5739,-0.483,-0.4427,-0.3823,-0.2516,-0.2214,-0.2214,-0.2214,-0.2214,-0.2114,-0.1713,-0.0806,-0.0202,-0.0202,0.0706,0.1414,0.1414,0.1516,0.1617,0.1617,0.1617,0.1617,0.1617,0.1617,0.1617,0.1617,0.2521,0.3524,0.4624,0.5629,0.6734,0.7637,0.7739,0.7238,0.6234,0.7235,0.7736,-1.407,-1.2436,0.0,0.0,0.0,0.0,-0.9628,0.0,-0.9529,-0.943,0.0,0.0,0.0,0.0,0.0,0.0,-0.8488,-0.8312,-0.8241,-0.8093,-0.8435,-0.9331,-0.9529,-0.9628,-0.9628,-0.992,-1.0113,-1.0301,-1.0596,-1.0788,-1.0988,-1.0988,-1.0988,-1.0988,-1.0493,-1.0293,-1.0293,-0.9209,-0.8715,-0.8616,-0.8021,-0.8021,-0.8616,-0.8021,-0.812,-0.8616,-0.8021,-0.7528,-0.703,-0.703,-0.6833,-0.6534,-0.7428,-0.7428,-0.703,-0.703,-0.6833,-0.6437,-0.6437,-0.6437,-0.6437,-0.6437,-0.6437,-0.6437,-0.6437,-0.6437,-0.6437,-0.6437,-0.6437,-0.6437,-0.6437,-0.5937,-0.5434,-0.5233,-0.463,-0.3925,-0.3219,-0.2918,-0.2415,-0.1108,-0.0806,-0.0604,0.0,-0.0403,-0.0605,0.0101,0.0606,0.0908,0.0908,0.1313,0.1617,0.1617,0.1617,0.1617,0.1617,0.1617,0.1617,0.1617,0.2221,0.2521,0.2521,0.4128,0.5231,0.5729,0.6734,0.754,0.8038,0.8038,0.7739,0.7338,0.7839,0.8038,-1.4364,0.0,0.0,0.0,0.0,0.0,0.0,0.0,0.0,0.0,-0.8935,0.0,0.0,0.0,-0.8612,-0.8368,0.0,-0.7922,-0.748,-0.731,-0.7633,-0.8726,-0.8928,-0.8928,-0.9027,-0.9418,-0.9513,-0.941,-0.9702,-0.9903,-0.9608,-0.9608,-0.9608,-0.9608,-0.9308,-0.9209,-0.9209,-0.812,-0.7528,-0.7528,-0.6734,-0.6833,-0.7528,-0.6734,-0.6833,-0.7528,-0.6734,-0.6437,-0.6437,-0.6437,-0.6437,-0.6437,-0.6437,-0.6437,-0.6437,-0.6437,-0.6437,-0.6437,-0.6437,-0.6437,-0.6437,-0.6437,-0.6437,-0.6337,-0.6034,-0.5934,-0.5934,-0.5634,-0.5532,-0.5532,-0.5532,-0.4931,-0.423,-0.4028,-0.3221,-0.2416,-0.1711,-0.151,-0.1108,0.0202,0.0403,0.0706,0.1515,0.0908,0.0706,0.1515,0.1617,0.1617,0.1617,0.1617,0.1617,0.1617,0.1617,0.1617,0.1617,0.1919,0.212,0.2421,0.3224,0.3624,0.3624,0.5432,0.6437,0.6437,0.7437,0.8038,0.8038,0.8038,0.8038,0.8038,0.8038,0.8038,0.0,0.0,0.0,-1.1292,0.0,0.0,0.0,0.0,-0.9331,0.0,0.0,-0.8233,-0.7437,-0.7932,-0.8082,0.0,-0.7838,0.0,0.0,-0.7153,-0.7135,-0.693,-0.7135,-0.7335,-0.763,-0.763,-0.8028,-0.8722,-0.8825,-0.9118,-0.9608,-0.9608,-0.9608,-0.9608,-0.8616,-0.8021,-0.8021,-0.7033,-0.6437,-0.6437,-0.6437,-0.6437,-0.6437,-0.6437,-0.6437,-0.6437,-0.6437,-0.6437,-0.6437,-0.6437,-0.6437,-0.6437,-0.6437,-0.6437,-0.6437,-0.6437,-0.6437,-0.6437,-0.6437,-0.6437,-0.6437,-0.6437,-0.6437,-0.6234,-0.5133,-0.4834,-0.4634,-0.3626,-0.3324,-0.3324,-0.3324,-0.3122,-0.282,-0.282,-0.2416,-0.1711,-0.0705,-0.0202,0.0303,0.1313,0.1516,0.1516,0.1617,0.1617,0.1516,0.1617,0.1617,0.1617,0.1617,0.1617,0.1617,0.1617,0.1617,0.1617,0.1617,0.2521,0.3624,0.4624,0.4724,0.4724,0.4724,0.5832,0.6437,0.6437,0.7437,0.8038,0.8038,0.8038,0.8038,0.8038,0.8038,0.8038,0.0,0.0,-1.237,-1.1878,0.0,0.0,0.0,0.0,0.0,0.0,0.0,0.0,-0.7238,-0.7534,-0.7813,0.0,0.0,-0.7223,0.0,-0.6412,-0.6134,-0.6034,-0.6833,-0.7531,-0.763,-0.8127,-0.8226,-0.7733,-0.8028,-0.8024,-0.7528,-0.7528,-0.7528,-0.7528,-0.7129,-0.6933,-0.6933,-0.6537,-0.6437,-0.6437,-0.6437,-0.6437,-0.6437,-0.6437,-0.6437,-0.6437,-0.6437,-0.6437,-0.6337,-0.5636,-0.5334,-0.5236,-0.4529,-0.4327,-0.4427,-0.5834,-0.5937,-0.5233,-0.4529,-0.4327,-0.4327,-0.4327,-0.4327,-0.4228,-0.3827,-0.3728,-0.3626,-0.3324,-0.3224,-0.3123,-0.3021,-0.2317,-0.1612,-0.131,-0.0504,0.0303,0.0808,0.101,0.1212,0.1516,0.1617,0.1617,0.1617,0.1617,0.1617,0.1617,0.1617,0.1617,0.1617,0.1617,0.1617,0.1617,0.222,0.2622,0.2622,0.3624,0.4423,0.4824,0.5429,0.5832,0.5832,0.6936,0.7437,0.7437,0.8035,0.8233,0.8233,0.8432,0.8531,0.8531,0.8531,0.8432,-1.4765,-1.3715,0.0,-1.237,-1.2175,0.0,-1.0002,0.0,-0.8916,0.0,0.0,0.0,0.0,0.0,0.0,0.0,0.0,-0.6742,0.0,-0.5937,-0.5636,-0.5636,-0.6334,-0.6933,-0.7036,-0.7534,-0.7534,-0.6936,-0.7232,-0.7129,-0.6434,-0.6437,-0.6437,-0.6437,-0.6437,-0.6437,-0.6437,-0.6437,-0.6437,-0.6437,-0.6437,-0.6234,-0.5834,-0.5834,-0.5634,-0.5231,-0.5231,-0.5231,-0.5231,-0.4531,-0.423,-0.413,-0.3425,-0.3224,-0.3324,-0.4728,-0.483,-0.413,-0.3425,-0.3224,-0.3224,-0.3224,-0.3224,-0.3123,-0.272,-0.262,-0.2519,-0.2217,-0.2016,-0.1915,-0.1713,-0.1008,-0.0303,0.0101,0.0808,0.1415,0.1516,0.1617,0.1617,0.1617,0.1617,0.1617,0.1617,0.1617,0.1617,0.1617,0.1617,0.1617,0.1617,0.1617,0.1717,0.2119,0.2822,0.3525,0.4227,0.4926,0.5527,0.5927,0.6631,0.7132,0.7132,0.7836,0.8233,0.8233,0.8432,0.8528,0.8528,0.8726,0.8825,0.8825,0.8928,0.8829]},{"header":{"parameterUnit":"m.s-1","parameterCategory":1,"la1":30.6,"la2":29.2853,"lo1":-89.7004,"lo2":-87.6739,"dy":0.0162,"dx":0.0183,"nx":112,"ny":82,"refTime":"2023-05-23T00:00:00:Z","depth":0,"parameterNumber":3,"parameterNumberName":"V-component_of_WINDS"},"data":[0.0,0.0,0.0,0.0,0.0,0.0,0.0,0.0,0.0,0.0,0.0,0.0,0.0,0.0,0.0,0.0,0.0,0.0,0.0,0.0,0.0,0.0,0.0,0.0,0.0,0.0,0.0,0.0,0.0,0.0,0.0,0.0,0.0,0.0,0.0,0.0,0.0,0.0,0.0,0.0,0.0,0.0,0.0,0.0,0.0,0.0,0.0,0.0,0.0,0.0,0.0,0.0,0.0,0.0,0.0,0.0,0.0,0.0,0.0,0.0,0.0,0.0,0.0,0.0,0.0,0.0,0.0,0.0,0.0,0.0,0.0,0.0,0.0,0.0,0.0,0.0,0.0,0.0,0.0,0.0,0.0,0.0,0.0,0.0,0.0,0.0,0.0,0.0,0.0,0.0,-0.8006,-0.8777,-0.9318,-1.0033,-1.0824,-1.0911,-1.1165,-1.1929,0.0,0.0,0.0,0.0,0.0,0.0,0.0,0.0,0.0,0.0,0.0,0.0,0.0,0.0,0.0,0.0,0.0,0.0,0.0,0.0,0.0,0.0,0.0,0.0,0.0,0.0,0.0,0.0,0.0,0.0,0.0,0.0,0.0,0.0,0.0,0.0,0.0,0.0,0.0,0.0,0.0,0.0,0.0,0.0,0.0,0.0,0.0,0.0,0.0,0.0,0.0,0.0,0.0,0.0,0.0,0.0,0.0,0.0,0.0,0.0,0.0,0.0,0.0,0.0,0.0,0.0,0.0,0.0,0.0,0.0,0.0,0.0,0.0,0.0,0.0,0.0,0.0,0.0,0.0,0.0,0.0,0.0,0.0,0.0,0.0,0.0,0.0,0.0,0.0,0.0,0.0,0.0,0.0,0.0,0.0,0.0,0.0,0.0,0.0,0.0,0.0,0.0,0.0,0.0,-0.8261,-0.7302,-0.8101,-0.8807,-0.8894,-0.8894,-0.9331,-1.0202,0.0,0.0,0.0,0.0,0.0,0.0,0.0,0.0,0.0,0.0,0.0,0.0,0.0,0.0,0.0,0.0,0.0,0.0,0.0,0.0,0.0,0.0,0.0,0.0,0.0,0.0,0.0,0.0,0.0,0.0,0.0,0.0,0.0,0.0,0.0,0.0,0.0,0.0,0.0,0.0,0.0,0.0,0.0,0.0,0.0,0.0,0.0,0.0,0.0,0.0,0.0,0.0,0.0,0.0,0.0,0.0,0.0,0.0,0.0,0.0,0.0,0.0,0.0,0.0,0.0,0.0,0.0,0.0,0.0,0.0,0.0,0.0,0.0,0.0,0.0,0.0,0.0,0.0,0.0,0.0,0.0,0.0,0.0,0.0,0.0,0.0,0.0,0.0,0.0,0.0,0.0,0.0,0.0,0.0,0.0,0.0,0.0,0.0,0.0,0.0,0.0,0.0,0.0,-0.7041,-0.7034,-0.6596,-0.7037,-0.7562,-0.8089,-0.8089,-0.8615,-0.9676,-1.0014,0.0,0.0,0.0,0.0,0.0,0.0,0.0,0.0,0.0,0.0,0.0,0.0,0.0,0.0,0.0,0.0,0.0,0.0,0.0,0.0,0.0,0.0,0.0,0.0,0.0,0.0,0.0,0.0,0.0,0.0,0.0,0.0,0.0,0.0,0.0,0.0,0.0,0.0,0.0,0.0,0.0,0.0,0.0,0.0,0.0,0.0,0.0,0.0,0.0,0.0,0.0,0.0,0.0,0.0,0.0,0.0,0.0,0.0,0.0,0.0,0.0,0.0,0.0,0.0,0.0,0.0,0.0,0.0,0.0,0.0,0.0,0.0,0.0,0.0,0.0,0.0,0.0,0.0,0.0,0.0,0.0,0.0,0.0,0.0,0.0,0.0,0.0,0.0,0.0,0.0,0.0,0.0,0.0,0.0,0.0,0.0,0.0,0.0,0.0,0.0,0.0,0.0,-0.563,-0.563,-0.598,-0.6065,-0.6328,-0.7112,-0.7115,-0.7643,-0.8877,-0.8269,0.0,0.0,0.0,0.0,0.0,0.0,0.0,0.0,0.0,0.0,0.0,0.0,0.0,0.0,0.0,0.0,0.0,0.0,0.0,0.0,0.0,0.0,0.0,0.0,0.0,0.0,0.0,0.0,0.0,0.0,0.0,0.0,0.0,0.0,0.0,0.0,0.0,0.0,0.0,0.0,0.0,0.0,0.0,0.0,0.0,0.0,0.0,0.0,0.0,0.0,0.0,0.0,0.0,0.0,0.0,0.0,0.0,0.0,0.0,0.0,0.0,0.0,0.0,0.0,0.0,0.0,0.0,0.0,0.0,0.0,0.0,0.0,0.0,0.0,0.0,0.0,0.0,0.0,0.0,0.0,0.0,0.0,0.0,0.0,0.0,0.0,0.0,0.0,0.0,0.0,0.0,0.0,0.0,0.0,0.0,0.0,0.0,0.0,0.0,0.0,0.0,0.0,-0.5277,-0.4748,-0.4837,-0.5013,-0.5097,-0.5186,-0.5186,-0.5716,-0.6953,-0.6953,0.0,0.0,0.0,0.0,0.0,0.0,0.0,0.0,0.0,0.0,0.0,0.0,0.0,0.0,0.0,0.0,0.0,0.0,0.0,0.0,0.0,0.0,0.0,0.0,0.0,0.0,0.0,0.0,0.0,0.0,0.0,0.0,0.0,0.0,0.0,0.0,0.0,0.0,0.0,0.0,0.0,0.0,0.0,0.0,0.0,0.0,0.0,0.0,0.0,0.0,0.0,0.0,0.0,0.0,0.0,0.0,0.0,0.0,0.0,0.0,0.0,0.0,0.0,0.0,0.0,0.0,0.0,0.0,0.0,0.0,0.0,0.0,0.0,0.0,0.0,0.0,0.0,0.0,0.0,0.0,0.0,0.0,0.0,0.0,0.0,0.0,0.0,0.0,0.0,0.0,0.0,0.0,0.0,0.0,0.0,0.0,0.0,0.0,0.0,0.0,0.0,0.0,-0.5369,-0.4926,-0.448,-0.4478,-0.4565,-0.4565,-0.4565,-0.5097,-0.6245,0.0,0.0,0.0,0.0,0.0,0.0,0.0,0.0,0.0,0.0,0.0,0.0,0.0,0.0,0.0,0.0,0.0,0.0,0.0,0.0,0.0,0.0,0.0,0.0,0.0,0.0,0.0,0.0,0.0,0.0,0.0,0.0,0.0,0.0,0.0,0.0,0.0,0.0,0.0,0.0,0.0,0.0,0.0,0.0,0.0,0.0,0.0,0.0,0.0,0.0,0.0,0.0,0.0,0.0,0.0,0.0,0.0,0.0,0.0,0.0,0.0,0.0,0.0,0.0,0.0,0.0,0.0,0.0,0.0,0.0,0.0,0.0,0.0,0.0,0.0,0.0,0.0,0.0,0.0,0.0,0.0,0.0,0.0,0.0,0.0,0.0,0.0,0.0,0.0,0.0,0.0,0.0,0.0,0.0,0.0,0.0,0.0,0.0,0.0,0.0,0.0,0.0,-0.4565,-0.4293,-0.4026,-0.3851,-0.3851,-0.3941,-0.4297,-0.43,-0.4654,-0.5628,0.0,0.0,0.0,0.0,0.0,0.0,0.0,0.0,0.0,0.0,0.0,0.0,0.0,0.0,0.0,0.0,0.0,0.0,0.0,0.0,0.0,0.0,0.0,0.0,0.0,0.0,0.0,0.0,0.0,0.0,0.0,0.0,0.0,0.0,0.0,0.0,0.0,0.0,0.0,0.0,0.0,0.0,0.0,0.0,0.0,0.0,0.0,0.0,0.0,0.0,0.0,0.0,0.0,0.0,0.0,0.0,0.0,0.0,0.0,0.0,0.0,0.0,0.0,0.0,0.0,0.0,0.0,0.0,0.0,0.0,0.0,0.0,0.0,0.0,0.0,0.0,0.0,0.0,0.0,0.0,0.0,0.0,0.0,0.0,0.0,0.0,0.0,0.0,0.0,0.0,0.0,0.0,0.0,0.0,0.0,0.0,0.0,0.0,0.0,0.0,0.0,0.0,-0.2777,-0.1879,-0.1522,-0.2777,-0.2867,-0.3224,-0.4208,-0.4297,-0.4389,0.0,0.0,0.0,0.0,0.0,0.0,0.0,0.0,0.0,0.0,0.0,0.0,0.0,0.0,0.0,0.0,0.0,0.0,0.0,0.0,0.0,0.0,0.0,0.0,0.0,0.0,0.0,0.0,0.0,0.0,0.0,0.0,0.0,0.0,0.0,0.0,0.0,0.0,0.0,0.0,0.0,0.0,0.0,0.0,0.0,0.0,0.0,0.0,0.0,0.0,0.0,0.0,0.0,0.0,0.0,0.0,0.0,0.0,0.0,0.0,0.0,0.0,0.0,0.0,0.0,0.0,0.0,0.0,0.0,0.0,0.0,0.0,0.0,0.0,0.0,0.0,0.0,0.0,0.0,0.0,0.0,0.0,0.0,0.0,0.0,0.0,0.0,0.0,0.0,0.0,0.0,0.0,0.0,0.0,0.0,0.0,0.0,0.0,0.0,0.0,0.0,0.0,0.0,-0.2059,-0.1342,-0.0984,-0.1342,-0.1342,-0.1431,-0.17,-0.1789,-0.2148,-0.3135,0.0,0.0,0.0,0.0,0.0,0.0,0.0,0.0,0.0,0.0,0.0,0.0,0.0,0.0,0.0,0.0,0.0,0.0,0.0,0.0,0.0,0.0,0.0,0.0,0.0,0.0,0.0,0.0,0.0,0.0,0.0,0.0,0.0,0.0,0.0,0.0,0.0,0.0,0.0,0.0,0.0,0.0,0.0,0.0,0.0,0.0,0.0,0.0,0.0,0.0,0.0,0.0,0.0,0.0,0.0,0.0,0.0,0.0,0.0,0.0,0.0,0.0,0.0,0.0,0.0,0.0,0.0,0.0,0.0,0.0,0.0,0.0,0.0,0.0,0.0,0.0,0.0,0.0,0.0,0.0,0.0,0.0,0.0,0.0,0.0,0.0,0.0,0.0,0.0,0.0,0.0,0.0,0.0,0.0,0.0,0.0,0.0,0.0,0.0,0.0,0.0,0.0,-0.1165,-0.0179,0.0358,-0.0089,-0.0179,-0.0268,-0.0626,-0.0716,-0.0984,-0.17,0.0,0.0,0.0,0.0,0.0,0.0,0.0,0.0,0.0,0.0,0.0,0.0,0.0,0.0,0.0,0.0,0.0,0.0,0.0,0.0,0.0,0.0,0.0,0.0,0.0,0.0,0.0,0.0,0.0,0.0,0.0,0.0,0.0,0.0,0.0,0.0,0.0,0.0,0.0,0.0,0.0,0.0,0.0,0.0,0.0,0.0,0.0,0.0,0.0,0.0,0.0,0.0,0.0,0.0,0.0,0.0,0.0,0.0,0.0,0.0,0.0,0.0,0.0,0.0,0.0,0.0,0.0,0.0,0.0,0.0,0.0,0.0,0.0,0.0,0.0,0.0,0.0,0.0,0.0,0.0,0.0,0.0,0.0,0.0,0.0,0.0,0.0,0.0,0.0,0.0,0.0,0.0,0.0,0.0,0.0,0.0,0.0,0.0,0.0,0.0,0.0,0.0,-0.0179,0.1345,0.2153,0.0985,0.0895,0.0537,-0.0268,-0.0358,-0.0447,-0.0537,0.0,0.0,0.0,0.0,0.0,0.0,0.0,0.0,0.0,0.0,0.0,0.0,0.0,0.0,0.0,0.0,0.0,0.0,0.0,0.0,0.0,0.0,0.0,0.0,0.0,0.0,0.0,0.0,0.0,0.0,0.0,0.0,0.0,0.0,0.0,0.0,0.0,0.0,0.0,0.0,0.0,0.0,0.0,0.0,0.0,0.0,0.0,0.0,0.0,0.0,0.0,0.0,0.0,0.0,0.0,0.0,0.0,0.0,0.0,0.0,1.186,1.1636,0.0,0.0,0.0,0.0,0.0,0.0,0.0,0.0,0.0,0.0,0.0,0.0,0.0,0.0,0.0,0.0,0.0,0.0,0.0,0.0,0.0,0.0,0.0,0.0,0.0,0.0,0.0,0.0,0.0,0.0,0.0,0.0,0.0,0.0,0.0,0.0,0.0,0.0,0.0,0.0,0.0448,0.1884,0.2693,0.2423,0.2423,0.2333,0.2153,0.2153,0.1703,0.0805,0.0626,0.0,0.0,0.0,0.0,0.0,0.0,0.0,0.0,0.0,0.0,0.0,0.0,0.0,0.0,0.0,0.0,0.0,0.0,0.0,0.0,0.0,0.0,0.0,0.0,0.0,0.0,0.0,0.0,0.0,0.0,0.0,0.0,0.0,0.0,0.0,0.0,0.0,0.0,0.0,0.0,0.0,0.0,0.0,0.0,0.0,0.0,0.0,0.0,0.0,0.0,0.0,0.0,0.0,0.0,0.0,0.0,0.0,0.0,0.0,1.098,1.0936,0.0,0.0,0.0,0.0,0.0,0.0,0.0,0.0,0.0,0.0,0.0,0.0,0.0,0.0,0.0,0.0,0.0,0.0,0.0,0.0,0.0,0.0,0.0,0.0,0.0,0.0,0.0,0.0,0.0,0.0,0.0,0.0,0.0,0.0,0.0,0.0,0.0,0.0,0.0,0.0,0.1256,0.2243,0.2875,0.2875,0.2875,0.2875,0.2875,0.2875,0.2603,0.1972,0.1882,0.0,0.0,0.0,0.0,0.0,0.0,0.0,0.0,0.0,0.0,0.0,0.0,0.0,0.0,0.0,0.0,0.0,0.0,0.0,0.0,0.0,0.0,0.0,0.0,0.0,0.0,0.0,0.0,0.0,0.0,0.0,0.0,0.0,0.0,0.0,0.0,0.0,0.0,0.0,0.0,0.0,0.0,0.0,0.0,0.0,0.0,0.0,0.0,0.0,0.0,0.0,0.0,0.0,1.4337,1.3489,1.314,1.1375,1.0461,1.0277,0.9827,0.962,0.9689,0.9432,0.0,0.0,0.0,0.0,0.0,0.0,0.0,0.0,0.0,0.0,0.0,0.0,0.0,0.0,0.0,0.0,0.0,0.0,0.0,0.0,0.0,0.0,0.5003,0.5267,0.5179,0.4716,0.3762,0.0,0.0,0.0,0.0,0.0,0.0,0.0,0.0,0.0,0.0,0.0,0.2062,0.2603,0.3053,0.3053,0.2963,0.2875,0.2875,0.2875,0.2963,0.3141,0.296,0.2959,0.0,0.0,0.0,0.0,0.0,0.0,0.0,0.0,0.0,0.0,0.0,0.0,0.0,0.0,0.0,0.0,0.0,0.0,0.0,0.0,0.0,0.0,0.0,0.0,0.0,0.0,0.0,0.0,0.0,0.0,0.0,0.0,2.6283,2.4457,0.0,0.0,0.0,0.0,0.0,0.0,0.0,0.0,0.0,0.0,0.0,0.0,0.0,1.6252,1.6245,1.5952,1.5384,1.4628,1.3616,1.2686,1.1809,1.0938,1.0461,1.0272,1.0272,0.0,0.9951,0.9689,0.0,0.0,0.0,0.0,0.0,0.0,0.0,0.0,0.0,0.0,0.0,0.0,0.0,0.0,0.0,0.0,0.0,0.0,0.0,0.0,0.0,0.0,0.6523,0.6526,0.6343,0.6157,0.5963,0.418,0.2478,0.2341,0.2103,0.1941,0.0,0.0,0.0,0.0,0.0,0.0,0.3041,0.3315,0.3497,0.3497,0.3142,0.2875,0.2875,0.2875,0.332,0.4293,0.4383,0.4823,0.5885,0.5883,0.0,0.0,0.0,0.0,0.0,0.0,0.0,0.0,0.0,0.0,0.0,0.0,0.0,0.0,0.0,0.0,0.0,0.0,0.0,0.0,0.0,0.0,0.0,0.0,0.0,0.0,0.0,0.0,0.0,2.6569,2.5252,2.3852,2.3117,2.2531,0.0,0.0,0.0,0.0,0.0,0.0,0.0,0.0,0.0,1.7755,1.6796,1.6327,1.6409,1.6319,1.5816,1.4985,1.4514,1.3423,1.1938,1.1647,1.1253,1.0894,1.077,1.0751,1.0911,1.0173,0.9864,0.9777,0.0,0.0,0.0,0.0,0.9777,0.9777,0.9694,0.9864,0.9951,0.9864,0.0,0.0,0.0,0.0,0.0,0.0,0.0,0.7132,0.6881,0.6795,0.6792,0.6966,0.6789,0.6612,0.6612,0.5539,0.4366,0.38,0.2931,0.2316,0.2385,0.2576,0.0,0.0,0.0,0.3848,0.3848,0.3941,0.4032,0.4032,0.3765,0.3853,0.4295,0.4297,0.465,0.5531,0.562,0.5885,0.6413,0.6413,0.6148,0.0,0.0,0.0,0.0,0.0,0.0,0.0,0.0,0.0,0.0,0.0,0.0,0.0,0.0,0.0,0.0,0.0,0.0,0.0,0.0,0.0,0.0,0.0,0.0,0.0,0.0,0.0,0.0,2.5475,2.4469,2.3139,2.2478,2.2025,0.0,0.0,0.0,0.0,0.0,0.0,1.9825,1.8149,1.7277,1.7683,1.6878,1.6566,1.673,1.6648,1.6312,1.565,1.519,1.4239,1.2839,1.2437,1.209,1.1662,1.1348,1.1394,1.1593,1.0737,1.0294,1.012,1.012,1.0125,1.0038,1.0125,1.012,1.0207,1.0294,1.0294,1.0294,1.0294,0.9854,0.9323,0.9666,0.0,0.0,0.0,0.0,0.8097,0.7408,0.7231,0.7231,0.7139,0.6966,0.6881,0.6881,0.6346,0.5722,0.5186,0.4111,0.3306,0.3306,0.3576,0.0,0.3846,0.4472,0.4919,0.4919,0.5006,0.5006,0.5006,0.4919,0.5095,0.5625,0.5622,0.5974,0.6766,0.6854,0.7031,0.7298,0.7298,0.7207,0.6854,0.0,0.0,0.0,0.0,0.0,0.0,0.0,0.0,0.0,0.0,0.0,0.0,0.0,0.0,0.0,0.0,0.0,0.0,0.0,0.0,0.0,0.0,0.0,0.0,0.0,0.0,0.0,0.0,0.0,2.2392,2.2101,0.0,0.0,0.0,0.0,2.0537,1.8886,1.7934,1.8078,1.7033,1.6558,1.673,1.673,1.6648,1.673,1.6476,1.6394,1.6319,1.5067,1.4366,1.4295,1.3265,1.2597,1.2355,1.2031,1.1807,1.1677,1.1342,1.0982,1.0549,1.0549,1.0381,1.0038,1.0467,1.0549,1.0636,1.1063,1.1241,1.1241,1.1241,1.0799,1.0269,1.0269,0.974,0.0,0.0,0.9492,0.9323,0.8627,0.8456,0.8193,0.7316,0.7051,0.7054,0.7054,0.6248,0.5539,0.5991,0.573,0.5555,0.5555,0.0,0.5555,0.5555,0.6166,0.6691,0.6691,0.6861,0.6946,0.6946,0.6593,0.6328,0.6325,0.6325,0.6858,0.8002,0.8093,0.8623,0.9772,0.9859,0.924,0.8089,0.8093,0.0,0.0,0.0,0.0,0.0,0.0,0.0,0.0,0.0,0.0,0.0,0.0,0.0,0.0,0.0,0.0,0.0,0.0,0.0,0.0,0.0,0.0,0.0,0.0,0.0,0.0,0.0,0.0,2.3654,2.3061,0.0,2.2697,2.2449,2.195,2.1348,2.0208,1.9226,1.8742,1.7815,1.7312,1.7397,1.7397,1.7397,1.7397,1.7312,1.7048,1.6627,1.664,1.5847,1.4308,1.4395,1.3945,1.3087,1.2674,1.2638,1.28,1.2366,1.1757,1.1063,1.1063,1.0982,1.0809,1.0982,1.1063,1.1063,1.1241,1.1327,1.1327,1.1327,1.1322,1.1402,1.1402,1.1397,1.1305,1.0885,1.0712,1.0453,0.9666,0.8973,0.8456,0.8105,0.758,0.7139,0.7139,0.6697,0.6346,0.6526,0.5811,0.545,0.608,0.6083,0.6086,0.6523,0.6694,0.6953,0.7394,0.7478,0.7566,0.7566,0.739,0.7478,0.8006,0.8006,0.836,0.9331,0.9331,0.9593,0.9951,1.0038,0.9772,0.9331,0.9331,0.8886,0.0,0.0,0.0,0.0,0.0,0.0,0.0,0.0,0.0,0.0,0.0,0.0,0.0,0.0,0.0,0.0,0.0,0.0,0.0,0.0,0.0,0.0,0.0,0.0,0.0,2.5253,2.4546,2.4003,2.3486,2.3184,2.3184,2.293,2.2513,2.1816,2.0727,1.9809,1.9144,1.8292,1.7771,1.7771,1.7771,1.7771,1.7771,1.7771,1.7597,1.7159,1.7512,1.6843,1.5285,1.5665,1.5235,1.4082,1.3641,1.3543,1.3604,1.3067,1.2498,1.188,1.1618,1.1413,1.1327,1.1752,1.1837,1.1923,1.2015,1.1929,1.1757,1.1757,1.2015,1.2272,1.2272,1.2443,1.2534,1.1929,1.1757,1.158,1.0621,0.9927,0.9323,0.9061,0.8536,0.8009,0.8009,0.7925,0.7841,0.7841,0.6861,0.6151,0.6779,0.7044,0.7217,0.7573,0.7658,0.783,0.8097,0.836,0.854,0.854,0.854,0.8715,0.9244,0.9244,0.9506,0.9951,1.0038,1.0038,1.0038,1.0038,1.0071,1.006,1.0236,1.0017,0.941,0.0,0.0,0.0,0.0,0.0,0.0,0.0,0.0,0.0,0.0,0.0,0.0,0.0,0.0,0.0,0.0,0.0,0.0,0.0,0.0,0.0,0.0,0.0,2.5105,2.4736,2.4284,2.3387,2.3225,2.3225,2.3225,2.2471,2.1967,2.1885,2.0277,1.9256,1.917,1.8316,1.7803,1.7803,1.7803,1.7803,1.7803,1.7803,1.7803,1.7811,1.7438,1.7243,1.716,1.6822,1.6197,1.5419,1.5132,1.4644,1.3863,1.335,1.3133,1.3021,1.2296,1.1752,1.1499,1.2613,1.296,1.3045,1.3476,1.3222,1.2705,1.2705,1.2705,1.2705,1.2705,1.2705,1.2705,1.2705,1.2705,1.2534,1.1585,1.1322,1.1063,1.0183,0.9923,0.9923,0.9923,0.9923,0.9923,0.9923,0.879,0.7921,0.783,0.8607,0.9039,0.8611,0.9139,0.0,0.9065,0.9598,1.0038,1.0038,1.0038,1.0038,1.0038,1.0038,1.0038,1.0038,1.0125,1.0125,1.0125,1.0125,1.0138,1.0348,1.0801,1.077,1.0356,0.0,0.0,0.0,0.0,0.0,0.0,0.0,0.0,0.0,0.0,0.0,0.0,0.0,0.0,0.0,0.0,0.0,0.0,0.0,0.0,0.0,2.7707,2.6921,2.562,2.5066,2.464,2.4167,2.4167,2.4167,2.4167,2.3903,2.3202,2.1889,2.1277,2.0394,1.8986,1.8624,1.8541,1.8541,1.8541,1.8541,1.8541,1.8541,1.8541,1.8533,1.8454,1.8034,1.7565,1.7468,1.6951,1.6278,1.5968,1.5463,1.4711,1.4353,1.3848,1.3363,1.2713,1.2448,1.2357,1.2705,1.279,1.279,1.296,1.2875,1.2705,1.2705,1.2705,1.2705,1.2705,1.2705,1.2705,1.2705,1.2705,1.2619,1.2357,1.1843,1.1235,1.0977,1.0361,0.9923,0.9923,0.9923,0.9923,0.9923,1.0101,1.0101,0.9401,0.9401,0.9575,0.9932,1.0101,1.0274,1.0626,1.0804,1.0809,1.0463,1.0463,1.0463,1.0463,1.0885,1.1397,1.1671,1.2083,1.2419,1.2419,1.1918,1.144,1.0989,1.1168,1.1131,0.0,0.0,0.0,0.0,0.0,0.0,0.0,0.0,0.0,0.0,0.0,0.0,0.0,0.0,0.0,0.0,0.0,0.0,0.0,0.0,0.0,0.0,2.8028,2.7117,2.6102,2.526,2.47,2.454,2.454,2.454,2.454,2.454,2.4013,2.294,2.2138,2.1248,2.0085,1.9279,1.8827,1.8827,1.8827,1.8827,1.8827,1.8827,1.8827,1.8827,1.8827,1.8542,1.8164,1.8164,1.7792,1.703,1.6936,1.6394,1.5638,1.5335,1.4851,1.4079,0.0,0.0,0.0,0.0,1.313,1.313,1.313,1.296,1.2705,1.2705,1.2705,1.2705,1.2705,1.2705,1.2705,1.2705,1.2705,1.2705,1.2705,1.2272,1.1929,1.1929,1.1488,1.1052,1.1052,1.1052,1.1052,1.1052,1.1488,0.0,1.1139,1.0966,1.0971,1.1154,1.1058,1.1052,1.1322,1.1327,1.1241,1.0895,1.0895,1.0895,1.0895,1.1316,0.0,0.0,0.0,1.3021,1.3269,1.304,0.0,0.0,0.0,1.2198,1.2272,1.166,0.0,0.0,0.9648,0.93,0.0,0.0,0.0,0.0,0.0,0.0,0.0,0.0,0.0,0.0,0.0,0.0,0.0,0.0,0.0,0.0,2.8039,2.7058,2.64,2.5274,2.454,2.454,2.454,2.454,2.454,2.454,2.4454,2.4358,2.2765,2.1784,2.1695,2.0085,0.0,0.0,0.0,1.892,1.8827,1.8827,1.8827,1.8827,1.8827,1.8827,1.8827,1.8827,1.845,1.7785,1.7785,1.7419,1.6749,1.6458,1.5858,1.4956,1.3625,1.3151,1.3179,1.3538,1.3678,1.3652,1.3652,0.0,0.0,1.2705,1.2705,1.2705,1.2705,1.2705,1.279,1.279,1.279,1.279,1.279,1.279,1.279,1.279,1.279,1.2705,1.2705,1.2705,1.2705,1.2705,1.2705,1.2705,1.2705,1.2705,1.2534,1.21,1.21,1.1929,1.1499,1.1494,1.1413,1.1413,1.1413,0.0,1.1499,1.158,1.1666,1.1746,1.2437,1.3027,1.3522,1.3761,1.3952,1.4048,1.37,1.354,1.3822,1.313,1.279,1.279,1.0605,0.974,0.0,0.0,0.0,0.0,0.0,0.0,0.0,0.0,0.0,0.0,0.0,0.0,0.0,0.0,0.0,2.7012,2.6378,2.583,2.502,2.4615,2.454,2.454,2.454,2.454,2.454,2.454,2.4186,2.3454,2.3008,2.2482,2.1695,2.1338,2.0799,2.0076,1.9985,1.9629,1.8827,1.8827,1.8827,1.8827,1.8827,0.0,1.8827,1.8827,1.8735,1.8542,1.8542,1.8164,1.7498,1.7431,1.6885,1.5789,1.4094,1.3308,1.3115,1.3155,1.3423,1.3646,1.3052,1.313,1.3392,1.2875,1.2705,1.2705,1.2705,1.2875,0.0,1.3052,1.3137,1.3222,1.3222,1.3222,1.3222,1.3052,1.3052,1.2966,1.279,1.2705,1.2705,1.2705,1.2705,1.2705,1.2705,1.2705,1.2705,1.2613,1.2534,1.2534,1.2443,1.2448,1.2272,1.1929,1.1843,1.21,1.2613,1.3203,1.3873,1.4803,1.547,1.5636,1.5228,1.5278,1.5118,1.4566,1.4453,1.4453,1.4489,1.3815,1.3476,1.3476,1.2522,1.2089,0.0,0.0,0.0,0.0,0.0,0.0,0.0,0.0,0.0,0.0,0.0,3.0305,2.9806,0.0,2.9015,2.7763,2.6964,2.6163,2.5432,2.4871,2.454,2.454,2.454,2.454,2.454,2.454,2.4272,2.382,2.3367,2.2921,2.2394,2.1961,2.1516,2.106,2.052,2.0076,1.9546,1.9004,1.8827,1.8827,1.8827,1.8827,1.8827,1.8827,1.8827,1.8827,1.8827,1.8542,1.8257,1.7878,1.7402,1.687,1.5793,1.5006,1.4458,1.4458,1.4449,1.4446,1.4104,1.3926,1.3808,1.3555,1.3215,1.3052,1.3052,1.3137,1.3222,1.3222,1.3313,1.3398,1.3398,1.3398,1.3398,1.3307,1.3222,1.3222,1.3052,1.3052,1.3052,1.3052,1.3052,1.3052,1.2875,1.2881,1.2875,1.2705,1.2705,1.2705,1.2705,1.2705,1.2705,1.2875,1.2875,1.3124,1.3802,1.4139,1.4727,1.565,1.5982,1.6237,1.6237,1.6237,1.6064,1.5733,1.5401,1.5235,1.5235,1.4566,1.4237,1.4153,1.347,1.3045,0.0,0.0,0.0,0.0,0.0,0.0,0.0,3.0228,3.0292,3.0152,3.0152,3.0139,3.0126,2.9754,2.9275,2.8609,2.7545,2.6577,2.5997,2.52,2.4625,2.4625,2.454,2.454,2.454,2.454,2.454,2.454,2.382,2.3367,2.3367,2.2668,2.2138,2.1961,2.1239,2.0791,2.061,1.9629,1.9096,1.9096,1.892,1.8827,1.8827,1.8827,1.8827,1.8827,1.892,1.892,1.892,1.8434,1.8249,1.8149,1.7956,1.7348,1.6617,1.6284,1.6053,1.5857,1.5627,1.5184,1.4713,1.4566,1.4216,1.3886,1.3886,1.3971,1.3971,1.3971,1.3893,1.3808,1.3808,1.3646,1.3483,1.3483,1.3483,1.3476,1.3398,1.3398,1.3398,1.3398,1.3398,1.3313,1.3222,1.3137,1.3052,1.279,1.2705,1.279,1.2875,1.2875,1.313,1.3815,1.3899,1.4153,1.4817,1.4985,1.5318,1.5816,1.5899,1.6154,1.6656,1.673,1.673,1.673,1.6147,1.5899,1.5899,1.5235,1.4901,1.4985,1.446,1.3698,3.2376,3.2232,3.2028,3.1259,3.081,3.0596,0.0,3.0241,2.9934,3.0292,3.0368,3.005,2.9118,2.8609,2.7867,2.6753,2.5935,2.5359,2.5274,2.5126,2.4882,2.4861,2.4615,2.454,2.454,2.454,2.454,2.454,2.4368,2.4358,2.4358,2.4272,2.382,2.3008,2.2833,2.2394,2.1516,2.061,2.0167,2.0076,1.9271,1.8827,1.8827,1.8827,1.8827,1.8827,1.9279,1.9546,1.9546,1.9828,2.0011,2.0011,2.0011,1.9869,1.9562,1.8026,1.7601,1.7706,1.68,1.6761,1.702,1.611,1.5764,1.5674,1.5674,1.5854,1.6026,1.6026,1.5628,1.5144,1.5144,1.4573,1.3997,1.3737,1.3652,1.3652,1.3483,1.3398,1.3398,1.3398,1.3398,1.3392,1.3398,1.3398,1.3222,1.279,1.2705,1.2875,1.3476,1.3561,1.3815,1.4482,1.4566,1.4817,1.5567,1.6154,1.6484,1.6566,1.6566,1.6648,1.673,1.673,1.673,1.673,1.6648,1.6566,1.6574,1.5899,1.5816,1.6237,1.5848,1.4986,3.2146,3.1809,3.1408,3.1061,3.0911,3.0748,3.0698,3.047,3.0318,3.0368,3.0368,3.0292,2.9985,2.9639,2.8991,2.7545,2.6987,2.634,2.5359,2.5126,2.5126,2.5115,2.4871,2.47,2.454,2.454,2.454,2.454,2.454,2.454,2.454,2.454,2.4358,2.3917,2.3541,2.3086,2.2648,2.1933,2.148,2.148,2.0421,1.9985,2.0266,1.9546,1.9371,1.9654,1.992,2.0019,2.0011,2.0201,2.0292,2.0292,2.0645,2.0736,2.0619,1.9537,1.9156,1.9095,1.8589,1.8173,1.7795,1.7298,1.6857,1.6437,1.6437,1.6519,1.6609,1.6609,1.637,1.6124,1.6124,1.5884,1.5553,1.547,1.5462,1.5304,1.4727,1.497,1.513,1.4643,1.497,1.5296,1.5213,1.5123,1.5039,1.4685,1.4196,1.4119,1.4949,1.5032,1.5289,1.5966,1.6386,1.6714,1.7049,1.7302,1.7465,1.7465,1.7465,1.7465,1.7465,1.7465,1.7465,1.7465,1.7465,1.7465,1.7465,1.7417,1.7515,1.7697,1.7443,1.6915,3.1882,3.1394,3.0986,3.0986,3.0986,3.0911,3.0773,3.0698,3.0609,3.0596,3.052,3.0533,3.0698,3.0444,2.9793,2.8664,2.8187,2.7476,2.5935,2.5557,2.5378,2.5285,2.5126,2.4956,2.4711,2.4625,2.4615,2.47,2.47,2.47,2.47,2.47,2.47,2.47,2.4155,2.3877,2.3877,2.3163,2.2804,2.2795,2.1649,2.1132,2.1248,2.0266,2.0011,2.0292,2.0464,2.0464,2.0464,2.0654,2.0654,2.0744,2.1096,2.1177,2.1177,2.0835,2.0561,2.0307,2.0193,1.9618,1.8879,1.8692,1.8228,1.7589,1.7589,1.7514,1.7432,1.7432,1.7269,1.7017,1.7017,1.6862,1.6698,1.6698,1.6698,1.6535,1.5884,1.6206,1.6535,1.5884,1.6288,1.6617,1.6527,1.6445,1.6519,1.6503,1.6011,1.5771,1.6175,1.6429,1.6764,1.7204,1.7708,1.804,1.804,1.804,1.804,1.804,1.804,1.804,1.804,1.804,1.804,1.804,1.8134,1.8186,1.8194,1.8554,1.8817,1.9002,1.8853,1.8754,3.1259,3.0986,3.0986,3.0986,3.0849,3.0773,3.0911,3.0672,3.052,3.0911,3.0849,3.0698,3.0698,3.0126,2.9626,2.9406,2.8834,2.8119,2.7255,2.6408,2.5799,2.5622,2.5497,2.5327,2.52,2.5031,2.4946,2.52,2.52,2.52,2.52,2.52,2.52,2.52,2.52,2.5115,2.5115,2.4231,2.379,2.3714,2.2804,2.2013,2.1248,2.0546,2.0292,2.0292,2.0826,2.0997,2.0997,2.1463,2.1651,2.1651,2.1642,2.1651,2.1651,2.1651,2.1642,2.1569,2.1158,2.1003,2.0921,2.0537,2.0145,1.9825,1.9825,1.9542,1.9222,1.9222,1.8647,1.7997,1.7997,1.735,1.6698,1.6698,1.6698,1.6698,1.6698,1.6698,1.6698,1.6698,1.6698,1.6698,1.6698,1.6698,1.6935,1.7836,1.7917,1.7674,1.7033,1.7538,1.7951,1.7951,1.7951,1.804,1.804,1.804,1.804,1.804,1.804,1.804,1.804,1.804,1.804,1.804,1.8382,1.8571,1.8571,1.9024,1.9384,1.9827,2.0234,2.0149,3.1809,3.1394,3.0986,3.0986,3.0911,3.0911,3.0986,3.0911,3.0836,3.0986,3.0911,3.0911,3.0911,3.0748,3.0343,2.9716,2.9381,2.8991,2.8119,2.7256,2.6767,2.6693,2.5968,2.557,2.5644,2.5295,2.5115,2.52,2.52,2.52,2.52,2.52,2.52,2.52,2.538,2.5475,2.5475,2.5285,2.52,2.52,2.4402,2.3531,2.2482,2.2157,2.1998,2.1909,2.1633,2.1454,2.1463,2.1642,2.1741,2.1741,2.1741,2.1741,2.1741,2.1741,2.1741,2.1713,2.1575,2.1346,2.1089,2.0952,2.064,2.0273,2.0008,1.9833,1.9659,1.9384,1.9054,1.8895,1.8895,1.8647,1.8407,1.8407,1.8407,1.8247,1.7674,1.7997,1.8238,1.7674,1.7997,1.8407,1.8407,1.8407,1.8487,1.8816,1.8895,1.8807,1.8576,1.8736,1.8825,1.8825,1.8825,1.8984,1.945,1.9063,1.9213,2.007,1.9687,1.9687,2.007,1.994,1.9848,1.9848,2.0337,2.055,2.056,2.095,2.1239,2.1428,2.1337,2.1175,3.1809,3.1334,3.0986,3.0986,3.0986,3.0986,3.0986,3.0986,3.0986,3.0986,3.0986,3.0986,3.0986,3.0986,3.0823,3.0266,3.0177,2.9858,2.8991,2.8438,2.7891,2.7255,2.6622,2.6135,2.5906,2.5644,2.5464,2.5464,2.5464,2.5464,2.5464,2.5464,2.5464,2.5464,2.5644,2.5738,2.5738,2.5812,2.5895,2.5895,2.5211,2.4509,2.3714,2.3299,2.3047,2.2794,2.2264,2.1909,2.1741,2.1741,2.1741,2.1741,2.1741,2.1741,2.1741,2.1741,2.1741,2.183,2.1731,2.1557,2.1328,2.1328,2.1053,2.0677,2.0429,2.0255,2.0053,1.9641,1.9522,1.9494,1.9338,1.9301,1.9301,1.939,1.939,1.9301,1.8807,1.9134,1.9381,1.8807,1.9134,1.9539,1.9539,1.946,1.939,1.939,1.9381,1.9301,1.9301,1.9301,1.9381,1.9618,1.9618,1.9854,2.0469,2.0235,2.0381,2.1396,2.1016,2.1085,2.1716,2.151,2.1416,2.1416,2.2093,2.2393,2.2393,2.2988,2.3283,2.3198,2.2717,2.2422,3.1272,3.0986,3.0986,3.0986,3.0986,3.0986,3.0986,3.0986,3.0986,3.0986,3.0986,3.0986,3.0986,3.0986,3.0986,3.0986,3.0986,3.0735,2.9858,2.9704,2.9069,2.7499,2.7267,2.6869,2.6063,2.5895,2.5895,2.5895,2.5895,2.5895,2.5895,2.5895,2.5895,2.5895,2.5895,2.5895,2.5895,2.5895,2.5895,2.5895,2.5295,2.4946,2.4946,2.4155,2.3464,2.2891,2.2794,2.2353,2.1741,2.1741,2.1741,2.1741,2.1741,2.1741,2.1741,2.1741,2.1919,2.2097,2.183,2.1741,2.1741,2.1741,2.1465,2.1135,2.1117,2.0851,2.0466,2.0072,1.9962,1.987,1.9467,1.9436,1.9515,1.9594,1.9673,1.9743,1.9872,1.9863,1.9863,1.9863,1.9863,1.9863,1.9863,1.9794,1.9724,1.9743,1.9576,1.9478,1.9381,1.9381,1.9608,2.0167,2.0255,2.0586,2.1272,2.1292,2.1561,2.2076,2.2107,2.229,2.2727,2.2768,2.2778,2.2778,2.3608,2.3992,2.3992,2.4745,2.5126,2.5126,2.4296,2.3877,3.1482,3.1136,3.0986,3.0986,3.0986,3.0986,3.0986,3.0986,3.0986,3.0986,3.0986,3.0986,3.0986,3.0986,3.0986,3.0986,3.0986,3.0898,3.0659,3.0101,2.9549,2.9069,2.7971,2.7103,2.6857,2.6302,2.5895,2.5895,2.5895,2.5895,2.5895,2.5895,2.5895,2.5895,2.5895,2.5895,2.5895,2.5895,2.5895,2.5895,2.5728,2.5644,2.5644,2.4946,2.4241,2.3551,2.3057,2.2353,2.1741,2.1741,2.1741,2.1741,2.1741,2.183,2.2008,2.2008,2.2185,2.2353,2.2264,2.2264,2.2264,2.2264,2.2189,2.2039,2.1738,2.1579,2.141,2.0977,2.0865,2.0837,2.0724,2.125,2.1487,2.0562,2.0866,2.1076,2.0077,1.9863,1.9863,1.9863,1.9863,1.9863,1.9863,2.0313,2.0868,2.1273,2.1774,2.1575,2.0196,2.001,2.0235,2.0857,2.1232,2.1893,2.2836,2.283,2.3387,2.4704,2.4303,2.4357,2.4971,2.4818,2.4681,2.4681,2.5322,2.5572,2.5572,2.5775,2.5924,2.5924,2.5136,2.4787,3.1582,3.1211,3.0986,3.1136,3.1061,3.0986,3.0986,3.0986,3.0986,3.0986,3.0986,3.0986,3.0986,3.0986,3.0986,3.0986,3.0986,3.0986,3.0986,3.0583,3.0101,2.9781,2.8834,2.8051,2.7255,2.6787,2.6302,2.5895,2.5895,2.5895,2.5895,2.5895,2.5895,2.5895,2.5895,2.5895,2.5895,2.5895,2.5895,2.5895,2.5895,2.5895,2.5906,2.5549,2.4946,2.4241,2.356,2.2872,2.2185,2.2008,2.1919,2.1919,2.1998,2.2087,2.2264,2.2264,2.2353,2.2618,2.2618,2.2872,2.3299,2.3125,2.3038,2.3076,2.3166,2.3258,2.3158,2.2782,2.2651,2.2611,2.2421,2.2778,2.3029,2.2311,2.2559,2.2714,2.2094,2.1886,2.1886,2.1886,2.1886,2.1886,2.1886,2.2179,2.2564,2.2893,2.325,2.3165,2.2298,2.2033,2.2111,2.2745,2.2987,2.3538,2.4415,2.4414,2.4903,2.6014,2.5779,2.5791,2.6414,2.6279,2.6161,2.6161,2.671,2.6951,2.6951,2.7103,2.7185,2.7185,2.6412,2.5975,3.1609,3.1373,3.1136,3.1272,3.1198,3.1061,3.0986,3.0986,3.0986,3.0986,3.0986,3.0986,3.0986,3.0986,3.0986,3.0986,3.0986,3.0986,3.0986,3.0986,3.0748,2.9947,2.9781,2.9147,2.7649,2.7418,2.7021,2.6146,2.6063,2.5979,2.5906,2.5895,2.5895,2.5895,2.5895,2.5895,2.5895,2.5895,2.5895,2.5895,2.5895,2.5895,2.5895,2.5979,2.5549,2.4861,2.4317,2.3724,2.2969,2.2608,2.252,2.252,2.2687,2.2775,2.2775,2.2775,2.296,2.3222,2.3222,2.382,2.4573,2.4059,2.3963,2.4221,2.4967,2.521,2.5125,2.478,2.4662,2.4566,2.425,2.4223,2.4371,2.4306,2.4454,2.4522,2.4489,2.4478,2.4478,2.4478,2.4478,2.4478,2.4478,2.4456,2.4456,2.4522,2.4454,2.4645,2.5217,2.4533,2.4287,2.4871,2.5016,2.5295,2.5951,2.602,2.6251,2.6781,2.6804,2.6989,2.7336,2.7348,2.7348,2.7348,2.7788,2.7962,2.7962,2.8351,2.851,2.851,2.7684,2.7348,3.1817,3.1683,3.1447,3.1347,3.1272,3.1198,3.1061,3.0986,3.0986,3.0986,3.0986,3.0986,3.0986,3.0986,3.0986,3.0986,3.0986,3.0986,3.0986,3.0986,3.0898,3.0823,3.0101,2.9626,2.9303,2.8585,2.7879,2.7021,2.694,2.6622,2.5895,2.5895,2.5895,2.5895,2.5895,2.5895,2.5895,2.5895,2.5895,2.5895,2.5895,2.5895,2.5895,2.6207,2.5863,2.4946,2.5516,2.5168,2.4241,2.4467,2.4617,2.4617,2.4617,2.4798,2.4978,2.4978,2.5062,2.5326,2.5326,2.54,2.5411,2.4659,2.4904,2.5484,2.5652,2.5652,2.563,2.5626,2.5605,2.5583,2.5507,2.6073,2.6391,2.5249,2.5552,2.5837,2.4724,2.4478,2.4478,2.4478,2.4478,2.4478,2.4478,2.5027,2.5552,2.6052,2.6604,2.725,2.7767,2.6017,2.4871,2.5538,2.5993,2.6391,2.6863,2.7273,2.7726,2.8128,2.8128,2.8164,2.8259,2.8259,2.8259,2.8259,2.8351,2.8431,2.8431,2.8431,2.851,2.851,2.8339,2.8259,3.2417,3.2082,3.1596,3.1582,3.1508,3.1434,3.1299,3.1299,3.136,3.1629,3.1421,3.1272,3.1529,3.1259,3.0986,3.0986,3.0986,3.0986,3.0986,3.0986,3.0986,3.0986,3.0659,3.019,2.9704,2.9303,2.8755,2.7879,2.7649,2.7021,2.5979,2.6135,2.6456,2.6846,2.6704,2.6539,2.6539,2.6539,2.6539,2.6539,2.6539,2.6539,2.6622,2.6775,2.6599,2.6102,2.6185,2.5852,2.5348,2.5316,2.5305,2.5305,2.5389,2.5557,2.5663,2.5663,2.5746,2.5819,2.5819,2.6163,2.6423,2.6008,2.6174,2.6588,2.708,2.7244,2.7244,2.7244,2.7244,2.7244,2.7244,2.751,2.7695,2.7036,2.7219,2.7399,2.6746,2.6609,2.6609,2.6609,2.6609,2.6609,2.6609,2.6936,2.7266,2.7514,2.7889,2.8222,2.8474,2.749,2.6857,2.7195,2.7419,2.7652,2.7798,2.8048,2.8271,2.851,2.851,2.851,2.851,2.851,2.851,2.851,2.851,2.851,2.851,2.851,2.851,2.851,2.851,2.851,3.3087,3.2618,3.195,3.189,3.1877,3.1803,3.1669,3.1803,3.2141,3.2417,3.2114,3.1896,3.216,3.175,3.1347,3.1136,3.1061,3.1061,3.1061,3.1061,3.1061,3.1061,3.1136,3.0823,3.0177,3.0101,2.9781,2.89,2.8347,2.7557,2.6456,2.6682,2.7232,2.8028,2.7718,2.7568,2.7568,2.7568,2.7568,2.7568,2.7568,2.7487,2.7418,2.7499,2.7429,2.7185,2.6846,2.661,2.6528,2.6246,2.6152,2.6163,2.6329,2.6412,2.6412,2.6412,2.6412,2.6412,2.6412,2.6835,2.751,2.751,2.751,2.7603,2.8259,2.851,2.851,2.851,2.851,2.851,2.851,2.851,2.851,2.851,2.851,2.851,2.851,2.851,2.851,2.851,2.851,2.851,2.8657,2.8657,2.8657,2.8657,2.8816,2.8816,2.851,2.8578,2.8657,2.8657,2.859,2.859,2.8657,2.8657,2.8736,2.8882,2.8895,2.8895,2.8895,2.8895,2.8895,2.8895,2.8736,2.8736,2.8736,2.8803,2.8736,2.8669,2.8816,2.8816,3.3353,3.3157,3.2889,3.2096,3.2345,3.2605,3.1803,3.2605,3.3339,3.2761,3.3073,3.3339,3.2761,3.2561,3.2359,3.1669,3.136,3.1272,3.1272,3.1272,3.1272,3.1272,3.1434,3.1522,3.1447,3.1447,3.1048,3.0165,2.9332,2.8615,2.7936,2.7936,2.8243,2.8839,2.8839,2.8839,2.8839,2.8839,2.8839,2.8839,2.8839,2.8548,2.8016,2.8462,2.8155,2.7267,2.7926,2.8111,2.78,2.8099,2.8259,2.8259,2.8259,2.8259,2.8259,2.8259,2.8259,2.8259,2.8259,2.8339,2.8339,2.8339,2.8339,2.8431,2.851,2.851,2.851,2.851,2.851,2.851,2.851,2.851,2.851,2.851,2.851,2.851,2.851,2.851,2.851,2.851,2.851,2.8657,2.9184,2.9341,2.9341,2.9341,2.9793,2.9716,2.8657,2.8961,2.9341,2.9341,2.8816,2.8736,2.9263,2.9341,2.9574,3.0101,3.0088,3.0088,3.0088,3.0088,3.0088,3.0088,2.9574,2.9406,2.9549,2.9768,2.9549,2.9052,2.9793,2.9729,3.4514,3.4177,3.3768,3.3437,3.3561,3.3616,3.3297,3.363,3.4095,3.4095,3.4027,3.3754,3.3451,3.2974,3.2431,3.1743,3.1522,3.1522,3.1522,3.1522,3.1522,3.1522,3.1522,3.1609,3.1609,3.1609,3.1373,3.0735,3.0406,3.0152,2.9973,2.9356,2.9447,3.0152,2.9909,2.9743,2.9743,2.9743,2.9743,2.9743,2.9743,2.9666,2.9447,2.9626,2.9238,2.8542,2.887,2.8736,2.8271,2.8431,2.851,2.851,2.851,2.851,2.851,2.851,2.851,2.851,2.851,2.851,2.851,2.851,2.851,2.851,2.851,2.851,2.851,2.851,2.851,2.851,2.851,2.8736,2.904,2.904,2.9341,2.9561,2.9561,2.9561,2.9639,2.9922,2.9922,3.0075,3.0581,3.0657,3.0657,3.0657,3.0882,3.0882,3.0355,3.0506,3.0657,3.0657,2.9704,2.9263,2.9871,2.9947,3.0165,3.0607,3.0683,3.0745,3.1031,3.1031,3.1031,3.1031,3.0807,3.0732,3.0807,3.0869,3.0807,3.0519,3.0882,3.0882,3.5385,3.5044,3.4581,3.438,3.4447,3.4581,3.438,3.4647,3.4993,3.519,3.4978,3.4581,3.4056,3.3506,3.2903,3.195,3.1757,3.1683,3.1683,3.1683,3.1683,3.1683,3.1743,3.1743,3.1743,3.1743,3.1669,3.136,3.136,3.1421,3.1468,3.0859,3.0709,3.136,3.1022,3.0859,3.0859,3.0859,3.0859,3.0859,3.0859,3.0784,3.0545,3.0545,3.0254,2.9639,2.9639,2.9341,2.8736,2.8736,2.8657,2.851,2.8578,2.8578,2.859,2.8669,2.8669,2.8669,2.8669,2.8669,2.8669,2.8669,2.8669,2.8736,2.8961,2.8816,2.851,2.8736,2.8882,2.904,2.9184,2.9561,2.9858,2.9999,3.038,3.0683,3.0683,3.0683,3.0745,3.1031,3.1106,3.1254,3.1696,3.1756,3.1756,3.1756,3.1915,3.1915,3.1536,3.1683,3.1756,3.1756,3.0882,3.0456,3.0908,3.0908,3.1119,3.1563,3.1636,3.1783,3.1988,3.206,3.206,3.206,3.1842,3.1769,3.1842,3.1901,3.1829,3.1696,3.1901,3.1901,3.577,3.5514,3.519,3.4514,3.4846,3.519,3.4447,3.54,3.6289,3.5544,3.5943,3.6022,3.4581,3.4312,3.3837,3.2444,3.2036,3.189,3.189,3.189,3.189,3.189,3.2036,3.2182,3.2182,3.2182,3.2182,3.2182,3.2182,3.2182,3.2182,3.2182,3.2182,3.2182,3.2169,3.2182,3.2182,3.2182,3.2182,3.2182,3.2182,3.185,3.122,3.122,3.0846,3.0317,3.0317,2.9947,0.0,2.9419,2.904,2.851,2.8724,2.8791,2.8803,2.904,2.9052,2.9052,2.9052,2.9052,2.9052,2.9052,2.9052,2.9197,3.0024,2.9419,2.8578,2.9184,2.9793,3.0393,3.0745,3.0895,3.0957,3.1389,3.1462,3.1462,3.1462,3.1462,3.1462,3.1462,3.1462,3.1683,3.229,3.2362,3.2362,3.2362,3.2889,3.2818,3.1683,3.1988,3.2362,3.2362,3.2362,3.2362,3.2362,3.2362,3.2662,3.3269,3.3269,3.3269,3.3269,3.3269,3.3269,3.3269,3.2662,3.2519,3.2704,3.2804,3.2577,3.2074,3.2861,3.2791,3.6445,3.6258,3.6085,3.5879,3.6006,3.6085,3.5879,3.6148,3.6414,3.6211,3.6352,3.6211,3.5255,3.5059,3.4595,3.3101,3.2818,3.2632,3.2169,3.2109,3.2109,3.2109,3.2182,3.2182,3.2182,3.2182,3.2182,3.2182,3.2182,3.2314,3.2503,3.2574,3.2444,3.2182,3.2182,3.2182,3.2182,3.2182,3.2182,3.2182,3.2182,3.2228,3.2259,3.2259,3.2028,3.1709,3.1709,3.1402,3.0807,3.0807,3.0732,3.0581,3.0657,3.0644,3.0581,3.0088,2.9947,2.9871,2.9275,2.9431,2.9947,2.9947,3.0304,3.0807,3.1031,3.0443,2.9858,3.067,3.0957,3.118,3.1241,3.1623,3.2001,3.206,3.2434,3.2747,3.2747,3.2747,3.2818,3.303,3.3087,3.3241,3.3687,3.3756,3.3756,3.3756,3.3908,3.3908,3.352,3.3673,3.3756,3.3756,3.3756,3.3534,3.3044,3.3044,3.3185,3.3632,3.3632,3.377,3.4059,3.4059,3.4059,3.4059,3.3825,3.3825,3.3839,3.3894,3.3825,3.3687,3.3894,3.3894,3.6907,3.6677,3.6554,3.6492,3.6492,3.6492,3.6492,3.6492,3.6492,3.6492,3.6492,3.6289,3.5529,3.54,3.4993,3.3837,3.3353,3.3017,3.2632,3.2372,3.2182,3.2182,3.2182,3.2182,3.2182,3.23,3.2372,3.2372,3.2516,3.2731,3.2917,3.2917,3.2846,3.2588,3.2588,3.2588,3.2588,3.2588,3.2588,3.2588,3.2588,3.2717,3.2917,3.2917,3.2832,3.2747,3.2747,3.2362,0.0,3.1842,3.1683,3.1536,3.1609,3.1623,3.1549,3.1119,3.0983,3.0908,3.038,3.0532,3.0983,3.0983,3.1476,3.2119,3.2119,3.1623,3.1193,3.1696,3.1988,3.2218,3.2349,3.2648,3.296,3.3101,3.3465,3.3701,3.3701,3.3701,3.377,3.3991,3.4059,3.4128,3.4346,3.4414,3.4414,3.4414,3.4414,3.4414,3.4414,3.4414,3.4414,3.4414,3.4414,3.4196,3.377,3.3701,3.377,3.3991,3.4059,3.4128,3.4414,3.4414,3.4414,3.4414,3.4414,3.4414,3.4414,3.4414,3.4414,3.4414,3.4414,3.4414,0.0,3.6968,3.6769,3.66,3.6616,3.6554,3.6554,3.6492,0.0,3.6492,3.6492,3.6289,3.5608,3.5464,3.527,3.4514,3.3768,3.3283,3.3213,3.2632,3.2182,3.2182,3.2241,3.2255,3.2255,3.2574,3.2775,3.2775,3.3058,3.3339,3.3339,3.3339,3.3339,3.3409,3.3409,3.3339,3.3269,3.3269,3.3269,3.3269,3.3269,3.3339,3.3339,3.3339,3.3339,3.3409,3.3409,3.303,3.2506,3.2506,3.2205,3.1683,3.1928,3.2015,3.2015,3.2146,3.2146,3.2146,3.2146,3.2146,3.2218,3.2232,3.272,3.3297,3.3297,3.2946,3.2506,3.2506,3.296,3.3479,3.377,3.3839,3.3908,3.4346,3.4414,3.4414,3.4414,3.4414,3.4414,3.4414,3.4414,3.4414,3.4414,3.4414,3.4414,3.4414,3.4414,3.4414,3.4414,3.4414,3.4481,3.4481,3.4481,3.4534,3.4534,3.4481,3.4481,3.4481,3.4481,3.4534,3.4534,3.4534,3.4534,3.4534,3.4481,3.4481,3.4534,3.4481,3.4467,3.4481,3.4534,3.4534,3.8557,0.0,3.7531,3.7488,3.7429,3.7207,0.0,3.6538,3.6492,3.6492,3.6492,3.6429,3.6289,3.6211,3.6006,3.5255,3.4514,3.3837,3.3283,3.2632,3.2182,3.2182,3.2444,3.2561,3.2561,3.2917,3.3129,3.3129,3.3269,3.3409,3.3701,3.3701,3.3839,3.4128,3.4128,3.3839,3.3339,3.3269,3.3269,3.3269,3.3269,3.3409,3.3701,3.3701,3.3839,3.4128,3.4128,3.4045,3.3908,3.3908,3.3825,3.3742,3.3756,3.3756,3.3756,3.3157,3.2932,3.2861,3.229,3.2434,3.3017,3.3673,3.3977,3.4113,3.4113,3.4045,3.3908,3.3908,3.4045,3.4128,3.4264,3.4264,3.4264,3.4414,3.4414,3.4414,3.4414,3.4414,3.4414,3.4414,3.4414,3.4414,3.4414,3.4414,3.4414,3.4414,3.4414,3.4414,3.4414,3.4787,3.4986,3.4986,3.535,3.5544,3.5544,3.5234,3.4986,3.4986,3.535,3.5544,3.5544,3.5544,3.5544,3.5544,3.5169,3.5169,3.5544,3.5169,3.5037,3.5154,3.5706,3.577,3.9783,3.9069,3.8302,3.8246,3.8133,3.7921,3.7326,3.7103,3.6937,3.6662,3.6554,3.6492,3.6492,3.6492,3.6352,3.5943,3.527,3.4581,3.3837,3.3101,3.2704,3.2917,3.2775,3.2775,3.2988,3.3339,3.3548,3.3548,3.3701,3.3908,3.4059,3.4317,3.4452,3.4414,3.4854,3.4706,3.3839,3.377,3.377,3.377,3.377,3.3908,3.4059,3.4059,3.4196,3.4414,3.4414,3.4414,3.4414,3.4414,3.4414,3.4414,3.4414,3.4414,3.4346,3.3894,3.3742,3.3673,3.3311,3.3395,3.3811,3.4264,3.4414,3.4414,3.4414,3.4414,3.4414,3.4414,3.4414,3.4414,3.4414,3.4414,3.4414,3.4414,3.4414,3.4414,3.4414,3.4414,3.4414,3.4414,3.4601,3.4787,3.4787,3.4986,3.5103,3.5103,3.5219,3.5335,3.5335,3.5706,3.5946,3.5946,3.6134,3.6306,3.6306,3.6322,3.6087,3.5544,3.5785,3.5913,3.5913,3.6024,3.6212,3.6322,3.6056,3.6072,3.6306,3.6072,3.5993,3.6056,3.6415,3.6492,4.0776,4.0053,3.9176,3.8962,3.8908,3.869,3.8092,3.7806,3.7488,3.6997,3.6723,3.6554,3.6554,3.6554,3.6554,3.6554,3.5928,3.519,3.4514,3.3837,3.3561,3.3919,3.3451,3.3255,3.3604,3.3948,3.4099,3.4099,3.4452,3.4601,3.4601,3.5037,3.5103,3.4668,3.5479,3.5544,3.4721,3.4654,3.4601,3.4601,3.4601,3.4601,3.4601,3.4534,3.4534,3.4534,3.4414,0.0,3.4414,3.4414,3.4414,3.4414,3.4414,3.4414,3.4414,3.4414,3.4414,3.4414,3.4414,3.4414,3.4414,3.4414,3.4414,3.4414,3.4414,3.4414,3.4414,3.4414,3.4414,3.4414,3.4414,3.4414,3.4414,3.4414,3.4467,3.4534,3.4534,3.4601,3.4601,3.4601,3.5037,3.535,3.535,3.5721,3.6024,3.6024,3.6259,3.643,3.643,3.6722,3.6904,3.6904,3.7024,3.7024,3.7024,3.7472,3.731,3.6352,3.629,3.629,3.629,3.6585,3.6814,3.704,3.6964,3.6964,3.7024,3.6964,3.6964,3.6964,3.7084,3.7084,4.0871,4.0758,4.05,3.9935,3.9732,3.9456,3.8854,3.8246,3.7764,3.7648,3.7238,3.6938,3.6938,3.68,3.6662,3.6662,3.6039,3.537,3.4817,3.4633,3.4551,3.4633,3.4846,3.4993,3.5059,3.5385,3.5593,3.5593,3.5657,3.5657,3.5657,3.5721,3.5721,3.5657,3.5849,3.5961,3.6072,3.5834,3.5657,3.5657,3.5657,3.5657,3.5672,3.5234,3.5103,3.5037,0.0,3.4414,3.4414,3.4414,3.4414,3.4414,3.4414,3.4414,3.4414,3.4414,3.4414,3.4414,3.4414,3.4414,3.4414,3.4414,3.4414,3.4414,3.4414,3.4414,3.4414,3.4414,3.4414,3.4414,3.4414,3.4414,3.4414,3.4414,3.4735,3.5103,3.5103,3.5415,3.5657,3.5657,3.5961,3.6197,3.6197,3.6492,3.6661,3.6661,3.6722,3.6722,3.6722,3.7144,3.7472,3.7472,3.787,3.8132,3.8132,3.8205,3.8205,3.8033,3.8033,3.8033,3.8033,3.8091,3.8132,3.8132,3.7722,3.7722,3.8132,3.7722,3.7546,3.7738,3.827,3.8367,4.0935,4.0888,4.0823,4.0549,4.0434,4.022,3.9612,3.9176,3.869,3.8067,3.7695,3.7358,3.706,3.6938,3.6862,3.6862,3.66,3.6258,3.6039,3.5642,3.5514,3.5721,3.5529,3.5464,3.5657,3.5785,3.5913,3.5913,3.5913,3.5913,3.5913,3.6337,3.6446,3.6212,3.689,3.7207,3.704,3.7207,3.6951,3.6368,3.6368,3.6368,3.6368,3.6182,3.5897,3.5544,0.0,3.5103,3.4905,3.4721,3.4787,3.4905,3.4735,3.4668,3.4668,3.4668,3.4601,3.4563,3.4563,3.4481,3.4414,3.4549,3.4563,3.4563,3.4683,3.4668,3.4735,3.5103,3.4787,3.4481,3.4787,3.4854,3.492,3.5169,3.5415,3.5593,3.5834,3.6024,3.6197,3.6368,3.6737,3.7055,3.7055,3.737,3.7679,3.7679,3.778,3.7879,3.7879,3.8238,3.8495,3.8495,3.875,3.8892,3.8892,3.8892,3.8727,3.8391,3.8391,3.8448,3.86,3.86,3.8711,3.8892,3.8623,3.8623,3.8892,3.8623,3.8567,3.8694,3.9185,3.9329,4.0982,4.0935,4.0888,4.0888,4.0888,4.0776,4.0336,4.0003,3.9577,3.8739,3.8334,3.7953,3.7433,3.7165,3.706,3.706,3.706,3.706,3.7121,3.6646,3.6383,3.6677,3.6258,3.5976,3.6243,3.6243,3.629,3.6337,3.6337,3.6399,3.6477,3.7071,3.7251,3.689,3.7886,3.8246,3.7895,3.8303,3.8059,3.716,3.716,3.716,3.716,3.7024,3.6737,3.6275,3.615,3.5961,3.5691,3.5464,3.5529,3.5691,3.5464,3.5234,3.5118,3.4986,3.4817,3.4765,3.4765,3.4616,3.4534,3.4683,3.4765,3.475,3.4868,3.4986,3.5234,3.5737,3.5479,3.5088,3.5464,3.5578,3.5657,3.6024,3.6212,3.6399,3.6631,3.6753,3.6935,3.716,3.7589,3.7895,3.7895,3.8286,3.8616,3.8616,3.8766,3.8914,3.8914,3.9202,3.9432,3.9432,3.952,3.9556,3.9556,3.9556,3.9345,3.8898,3.8805,3.886,3.9152,3.9152,3.9276,3.9556,3.9556,3.9556,3.9556,3.9556,3.9556,3.9573,3.9867,4.002,4.1111,4.0982,4.0888,4.0888,4.0888,4.0888,4.0823,4.0385,3.9952,3.9902,3.9437,3.892,3.8294,3.7637,3.7194,3.7194,3.7194,3.7254,3.7421,3.7421,3.7421,3.7421,3.7405,3.7345,3.7405,3.7405,3.7508,3.777,3.777,3.7886,3.8205,3.8278,3.8278,3.8278,3.8335,3.8488,3.8678,3.875,3.86,3.8262,3.8262,3.8262,3.8278,3.7796,3.7531,3.7472,3.6964,3.6706,3.6722,3.6645,3.6661,3.6722,3.6645,3.6306,3.5721,3.5118,3.4868,3.4868,3.4868,3.4868,3.4868,3.4868,3.4868,3.4868,3.4935,3.5365,3.5849,3.5913,3.6244,3.6661,3.6645,3.6645,3.6722,3.6722,3.71,3.7472,3.7531,3.787,3.8262,3.8262,3.8528,3.8678,3.8678,3.8985,3.9218,3.9218,3.9272,3.9272,3.9272,3.959,3.9849,3.9849,4.0154,4.0302,4.0302,4.0302,4.0302,4.0252,3.9952,3.9969,4.0252,4.0302,4.0302,4.0302,4.0302,4.0302,4.0302,4.0302,4.0302,4.0302,4.0351,4.0351,4.1198,4.1134,4.1088,4.1088,4.1059,4.1,4.0935,4.071,4.0434,4.0053,3.9851,3.942,3.8446,3.8067,3.7796,3.7449,3.7405,3.7405,3.748,3.748,3.748,3.748,3.7626,3.7727,3.7727,3.7934,3.8107,3.8205,3.8205,3.8278,3.8391,3.8544,3.8655,3.8655,3.8821,3.9002,3.9094,3.9094,3.904,3.8947,3.8947,3.8947,3.8947,3.875,3.8423,3.8051,3.7806,3.7632,3.7488,3.7235,3.7294,3.7488,3.7235,3.7055,3.6814,3.6585,3.6399,3.6275,3.6275,3.6197,3.6119,3.6212,3.6275,3.6275,3.6399,3.6631,3.6935,3.7279,3.7573,3.769,3.7397,3.7279,3.7397,3.7738,3.7943,3.8116,3.8327,3.8511,3.8711,3.8947,3.9056,3.9094,3.9094,3.9218,3.9379,3.9642,3.9694,3.9729,3.9935,4.0137,4.0187,4.0187,4.0319,4.04,4.04,4.04,4.0514,4.0772,4.0434,4.0286,4.04,4.04,4.04,4.04,4.04,4.04,4.04,4.04,4.04,4.04,4.0659,4.0849,4.1272,4.1255,4.1209,4.1209,4.1198,4.1123,4.1012,4.0965,4.0758,4.0385,4.0103,3.9732,3.8978,3.8557,3.8181,3.7828,3.7642,3.748,3.748,3.7583,3.7642,3.7642,3.7902,3.8075,3.8075,3.8278,3.8448,3.8504,3.856,3.8544,3.8672,3.8876,3.8985,3.8985,3.9164,3.9272,3.9272,3.9272,3.9272,3.9272,3.9272,3.9272,3.9272,3.9272,3.9023,3.859,3.859,3.8495,3.8343,3.8084,3.8157,3.8286,3.7838,3.7706,3.7648,3.7488,3.731,3.7175,3.7175,3.71,3.704,3.7175,3.7175,3.7251,3.737,3.7531,3.7764,3.8165,3.8463,3.8535,3.8238,3.8124,3.8197,3.86,3.8672,3.8727,3.8931,3.8985,3.904,3.9272,3.9379,3.9484,3.9484,3.9573,3.9764,4.002,4.007,4.0154,4.0351,4.0514,4.0659,4.0754,4.0802,4.0802,4.0802,4.0802,4.0913,4.1163,4.0913,4.0802,4.0802,4.0802,4.0802,4.0802,4.0802,4.0802,4.0802,4.0802,4.0802,4.0879,4.1146,4.1436,4.138,4.1318,4.1192,4.1192,4.1209,4.1209,4.1209,4.1041,4.0871,4.0871,4.0434,4.0003,4.0003,3.9086,3.8278,3.8294,3.7828,3.7539,3.7539,3.7743,3.787,3.787,3.8205,3.8391,3.8391,3.8408,3.8504,3.8805,3.8805,3.8969,3.9272,3.9272,3.9272,3.9272,3.9325,3.9325,3.9272,3.9325,3.9325,3.9272,3.9272,3.9272,3.9272,3.9272,3.9272,3.9272,3.9272,3.9272,3.9272,3.9272,3.9272,3.9218,3.859,3.8294,3.8222,3.7663,3.7429,3.7429,3.7429,3.7429,3.7429,3.7429,3.7429,3.7429,3.7429,3.7822,3.8294,3.8294,3.8788,3.9272,3.9272,3.9272,3.9272,3.9272,3.9272,3.9272,3.9325,3.9325,3.9325,3.9325,3.9642,3.9901,3.9901,4.0187,4.04,4.04,4.04,4.04,4.04,4.0772,4.1163,4.156,4.1604,4.1604,4.1604,4.1604,4.1604,4.1604,4.1604,4.1604,4.1604,4.1604,4.1604,4.1604,4.1604,4.1604,4.1604,4.1604,4.1719,4.1917,4.1917,4.2044,4.156,4.1498,4.1498,4.1498,4.1408,4.1318,4.1318,4.1226,4.1117,4.1117,4.0948,4.0645,4.0203,3.9629,3.9065,3.8717,3.8375,3.8107,3.8107,3.8221,3.8262,3.8262,3.8488,3.8711,3.8711,3.8876,3.9056,3.9164,3.9148,3.9218,3.9272,3.9272,3.9272,3.9272,3.959,3.959,3.9272,3.959,3.959,3.9272,3.9272,3.9272,3.9272,3.9272,3.9272,3.9272,3.9272,3.9272,3.9272,3.9272,3.9272,3.9272,3.9077,3.9023,3.8969,3.8788,3.8733,3.8733,3.8733,3.8733,3.8733,3.8733,3.8733,3.8733,3.8733,3.8843,3.9023,3.9023,3.9148,3.9272,3.9272,3.9272,3.9272,3.9272,3.9272,3.9379,3.9642,3.9746,3.9781,4.0037,4.017,4.0237,4.0237,4.0319,4.0514,4.0772,4.0819,4.0913,4.1209,4.1363,4.1453,4.1604,4.1604,4.1604,4.1604,4.1719,4.1899,4.2098,4.2297,4.2274,4.2008,4.1744,4.1788,4.2216,4.2139,4.2198,4.2396,4.258,4.2678,4.2754,4.2754,4.2847,4.1604,4.1604,4.1604,4.1604,4.156,4.1471,4.1471,4.1318,4.1209,4.1209,4.118,4.1041,4.0642,4.0235,3.98,3.9506,3.9082,3.8827,3.8827,3.8936,3.9061,3.9061,3.9242,3.9454,3.9454,3.9627,3.9747,3.9747,3.9747,3.9747,3.9747,3.985,3.9901,3.9901,4.022,4.0252,4.0003,4.0187,4.0154,3.9901,3.9677,3.9537,3.9537,3.9379,3.9272,3.9272,3.9272,3.9272,3.9272,3.9272,3.9272,3.9272,3.9272,3.9272,3.9272,3.9272,3.9272,3.9272,3.9272,3.9272,3.9272,3.9272,3.9272,3.9272,3.9272,3.9272,3.9325,3.9484,3.9537,3.959,3.9696,3.9747,3.9644,3.9379,3.9432,3.959,3.9849,3.9969,4.0154,4.0368,4.0514,4.0659,4.0659,4.0754,4.096,4.1209,4.1226,4.1391,4.1788,4.1856,4.1924,4.205,4.2175,4.2198,4.2115,4.2279,4.2462,4.2621,4.2772,4.2847,4.2792,4.2422,4.2342,4.2734,4.2659,4.2716,4.2865,4.3032,4.3123,4.3212,4.3212,4.3318,4.1604,4.1604,4.1604,4.1604,4.1604,4.1604,4.1604,4.1408,4.1255,4.1255,4.1209,4.1209,4.1209,4.0802,4.0449,4.0449,3.9969,3.9578,3.9578,3.9817,4.0053,4.0053,4.0302,4.0449,4.0449,4.0431,4.0431,4.0431,4.0431,4.0431,4.0431,4.0689,4.0849,4.0849,4.1013,4.1133,4.1087,4.0955,4.0849,4.0849,4.0254,3.9986,3.9986,3.9537,3.9379,3.9415,3.9415,3.9379,3.9325,3.9325,3.9325,3.9325,3.9325,3.9325,3.9325,3.9325,3.9272,3.9325,3.9325,3.9325,3.9379,3.9362,3.9415,3.9415,3.9415,3.9415,3.9468,3.9833,3.9935,4.0037,4.0319,4.04,4.022,3.9556,3.9677,3.9935,3.9986,4.0254,4.0449,4.0546,4.0849,4.1071,4.1117,4.1408,4.1648,4.1675,4.1675,4.1813,4.2239,4.2324,4.2505,4.2792,4.2978,4.3032,4.2941,4.3032,4.3123,4.3159,4.3194,4.3387,4.3758,4.3334,4.3123,4.3194,4.3159,4.3159,4.3194,4.323,4.33,4.3508,4.3508,4.3609,4.1805,4.1719,4.1604,4.1604,4.1604,4.1604,4.1604,4.156,4.1498,4.1498,4.1408,4.1363,4.1363,4.1007,4.0707,4.0707,4.0449,4.0186,4.0186,4.0302,4.04,4.0594,4.0707,4.0784,4.0903,4.0949,4.0949,4.0949,4.0949,4.0949,4.0949,4.1013,4.1059,4.1059,4.1393,4.1393,4.1087,4.1366,4.1366,4.1013,4.092,4.0767,4.058,4.002,3.9918,4.017,4.017,3.9986,3.9746,3.9746,3.9746,3.9746,3.9432,3.9484,3.9746,3.9432,3.9272,3.9325,3.9642,3.9746,3.9833,4.0087,4.017,4.017,4.017,4.017,4.017,4.0269,4.0269,4.0319,4.04,4.04,4.0351,4.022,4.022,4.0368,4.0693,4.0836,4.1007,4.1507,4.1657,4.1788,4.1959,4.1934,4.1917,4.2139,4.2162,4.2324,4.2829,4.2923,4.2978,4.3014,4.3087,4.3087,4.3069,4.3248,4.3422,4.3656,4.3804,4.403,4.4306,4.3557,4.3318,4.3809,4.3689,4.3721,4.3886,4.4091,4.4229,4.4258,4.4258,4.4365,4.2061,4.2019,4.1952,4.1952,4.1952,4.1952,4.1952,4.1952,4.1952,4.1952,4.1692,4.1515,4.1515,4.1391,4.1311,4.1311,4.1311,4.1293,4.1293,4.1293,4.1356,4.149,4.1507,4.1578,4.1674,4.1674,4.1674,4.1674,4.1674,4.1674,4.1674,4.176,4.1803,4.1803,4.2115,4.218,4.1979,4.2074,4.2008,4.1803,4.1525,4.1276,4.1053,4.0434,4.0237,4.04,4.04,4.0319,4.0154,4.0154,4.0154,4.0104,3.9901,3.9935,4.0104,3.9901,3.985,3.985,4.0054,4.0154,4.0154,4.0351,4.04,4.04,4.04,4.04,4.0449,4.0611,4.0707,4.0754,4.1019,4.1111,4.1157,4.1293,4.1065,4.0943,4.1146,4.1436,4.1701,4.2019,4.2103,4.2145,4.2287,4.2292,4.236,4.2621,4.2698,4.2848,4.3353,4.3403,4.349,4.3642,4.374,4.3772,4.374,4.3855,4.398,4.4121,4.4318,4.4503,4.4629,4.4299,4.4157,4.4218,4.4151,4.4199,4.4306,4.4541,4.4629,4.4629,4.4783,4.4887,4.2328,4.2328,4.2287,4.2287,4.2287,4.2287,4.2287,4.2287,4.2287,4.2287,4.1995,4.1736,4.1736,4.1849,4.1977,4.1977,4.2163,4.2287,4.2287,4.2287,4.2328,4.2328,4.2369,4.2369,4.2409,4.2391,4.2391,4.2391,4.2391,4.2391,4.2391,4.2552,4.2631,4.2631,4.2824,4.2882,4.2882,4.2747,4.2631,4.2649,4.211,4.177,4.1613,4.0926,4.0642,4.0611,4.0611,4.0563,4.0497,4.0497,4.0497,4.0514,4.0449,4.0449,4.0514,4.0417,4.04,4.04,4.0466,4.0497,4.0514,4.0594,4.0611,4.0611,4.0611,4.0642,4.0737,4.1053,4.1209,4.1346,4.1831,4.1977,4.2019,4.2246,4.2002,4.1666,4.1552,4.1977,4.2328,4.2391,4.2512,4.2534,4.2512,4.2673,4.2903,4.3194,4.323,4.3369,4.3772,4.3886,4.4011,4.4296,4.443,4.4487,4.4411,4.4496,4.4532,4.4532,4.4764,4.4872,4.4872,4.5074,4.5026,4.464,4.4613,4.4613,4.4613,4.4789,4.4872,4.4872,4.5096,4.5222,4.253,4.245,4.2287,4.2287,4.2287,4.2287,4.2287,4.2287,4.2287,4.2287,4.2246,4.2205,4.2205,4.2246,4.2246,4.2246,4.2287,4.2287,4.2287,4.2287,4.2369,4.253,4.257,4.2631,4.2806,4.2806,4.2806,4.2806,4.2806,4.2806,4.2806,4.2862,4.2862,4.2862,4.29,4.2882,4.2882,4.2882,4.2862,4.2862,4.2591,4.2472,4.2432,4.1917,4.1613,4.1453,4.1453,4.1255,4.0913,4.0913,4.0913,4.0866,4.0563,4.0611,4.0866,4.0514,4.04,4.0449,4.0819,4.0913,4.0977,4.1318,4.1453,4.1453,4.1453,4.1569,4.1683,4.1744,4.1934,4.2145,4.2246,4.2246,4.2246,4.2287,4.2555,4.2675,4.2269,4.2246,4.2432,4.2808,4.3249,4.3458,4.3266,4.3301,4.3387,4.3689,4.3721,4.3868,4.4335,4.4411,4.4411,4.4487,4.4487,4.4515,4.4487,4.4655,4.477,4.477,4.5007,4.5159,4.5159,4.518,4.518,4.5115,4.5115,4.5115,4.5115,4.5118,4.5159,4.5159,4.518,4.5284,4.2747,4.2806,4.2826,4.2652,4.2631,4.2631,4.2631,4.2631,4.2631,4.2631,4.2631,4.2552,4.2328,4.2409,4.249,4.249,4.2552,4.2631,4.2631,4.2631,4.267,4.2747,4.2786,4.2824,4.2882,4.2882,4.2882,4.2882,4.2882,4.2882,4.2882,4.2882,4.2882,4.2882,4.2882,4.2882,4.2882,4.2882,4.2882,4.2882,4.2824,4.2709,4.2609,4.2391,4.2103,4.1762,4.1762,4.1675,4.1525,4.1657,4.1657,4.148,4.1311,4.1283,4.1318,4.1146,4.1128,4.1265,4.13,4.1391,4.1525,4.1719,4.1762,4.1805,4.1952,4.2061,4.2103,4.2103,4.2205,4.2328,4.245,4.2573,4.2711,4.2826,4.3142,4.3355,4.3142,4.3069,4.3142,4.3355,4.3579,4.3712,4.3791,4.3791,4.3886,4.4151,4.4181,4.4258,4.4468,4.4515,4.4515,4.4515,4.4595,4.4681,4.4681,4.4891,4.503,4.503,4.5244,4.5362,4.5362,4.5472,4.5543,4.5543,4.5304,4.5201,4.5201,4.5304,4.5362,4.5362,4.5472,4.561,4.2995,4.3196,4.3338,4.316,4.3087,4.3105,4.3032,4.3032,4.3032,4.2975,4.2975,4.2882,4.2591,4.2649,4.2727,4.2765,4.2862,4.2975,4.2975,4.2975,4.2975,4.2975,4.2975,4.2975,4.2938,4.2938,4.2938,4.2882,4.2882,4.2882,4.2882,4.2882,4.2882,4.2882,4.2882,4.2882,4.2882,4.2882,4.2882,4.2882,4.2882,4.2862,4.2786,4.2631,4.2472,4.2192,4.2044,4.2019,4.2019,4.2246,4.2187,4.2019,4.2019,4.1892,4.178,4.178,4.1849,4.1977,4.1823,4.1892,4.2019,4.2086,4.211,4.2151,4.2396,4.2534,4.2573,4.2573,4.2613,4.2691,4.2844,4.305,4.3213,4.3373,4.3612,4.3777,4.3712,4.3744,4.3809,4.3809,4.3841,4.3986,4.417,4.4199,4.4277,4.4468,4.4515,4.4524,4.456,4.4587,4.4613,4.4674,4.4814,4.4896,4.4896,4.514,4.5283,4.5283,4.5454,4.5594,4.5594,4.5757,4.5827,4.5827,4.5541,4.5381,4.5343,4.5524,4.5591,4.561,4.5752,4.5867,4.3267,4.3477,4.3679,4.3646,4.3646,4.3579,4.3338,4.3356,4.3393,4.3123,4.316,4.316,4.316,4.3123,4.3086,4.3178,4.316,4.316,4.316,4.316,4.316,4.316,4.316,4.3142,4.3104,4.3104,4.3049,4.29,4.2882,4.2882,4.2882,4.2882,4.2882,4.2882,4.2882,4.2882,4.2882,4.2882,4.2882,4.2882,4.2882,4.3032,4.3232,4.2806,4.2729,4.2921,4.2454,4.2287,4.2287,4.2287,4.2287,4.2287,4.2287,4.2287,4.2246,4.2246,4.2287,4.2287,4.2287,4.2287,4.2328,4.2555,4.2673,4.2693,4.2996,4.3177,4.3336,4.3336,4.3493,4.3612,4.3646,4.3646,4.3679,4.3679,4.3873,4.3999,4.3744,4.3905,4.406,4.406,4.4277,4.444,4.4487,4.4487,4.4468,4.4515,4.4515,4.456,4.477,4.4776,4.4891,4.5137,4.518,4.518,4.518,4.5362,4.5472,4.5472,4.5673,4.5814,4.588,4.5893,4.5887,4.5886,4.5873,4.5835,4.5766,4.5835,4.588,4.588,4.5893,4.5925,4.3338,4.3675,4.4023,4.3868,4.3881,4.3924,4.3831,4.3862,4.3818,4.3545,4.3511,4.3477,4.3358,4.3233,4.3178,4.3214,4.3214,4.3214,4.3214,4.3214,4.3214,4.3214,4.3214,4.3178,4.3178,4.3356,4.3356,4.3049,4.3355,4.344,4.316,4.3303,4.3408,4.3408,4.3408,4.3408,4.3408,4.3232,4.3232,4.3408,4.3232,4.3303,4.3545,4.3373,4.3373,4.3424,4.3284,4.3032,4.275,4.2902,4.2864,4.275,4.275,4.2673,4.2573,4.2573,4.275,4.2977,4.2865,4.2903,4.3014,4.3123,4.3159,4.3195,4.3406,4.3526,4.3594,4.3594,4.3646,4.3712,4.3712,4.3809,4.3999,4.417,4.4277,4.4335,4.4248,4.4277,4.4383,4.4383,4.444,4.4515,4.4515,4.4515,4.4551,4.4681,4.4688,4.4789,4.503,4.5052,4.5096,4.5201,4.5323,4.5381,4.5381,4.5577,4.5688,4.5688,4.5752,4.5814,4.5827,4.5893,4.5925,4.5958,4.6008,4.5977,4.5848,4.5936,4.5959,4.5968,4.6005,4.604,4.3477,4.3931,4.4393,4.4202,4.427,4.4337,4.4261,4.4261,4.4194,4.3943,4.3931,4.3899,4.3744,4.366,4.356,4.3495,4.3477,4.3493,4.3609,4.3675,4.3675,4.3642,4.3642,4.3627,4.356,4.3772,4.3772,4.3477,4.374,4.3786,4.3526,4.3646,4.3712,4.3712,4.3712,4.3712,4.3712,4.3511,4.3511,4.3679,4.3511,4.3579,4.3841,4.3744,4.3744,4.3841,4.3744,4.3526,4.3249,4.3373,4.3373,4.3231,4.3231,4.3123,4.3032,4.3032,4.3231,4.3474,4.3353,4.3406,4.3526,4.3609,4.3642,4.3693,4.3905,4.3986,4.3986,4.3986,4.3986,4.3986,4.3986,4.4109,4.4277,4.4458,4.4532,4.4595,4.4595,4.4551,4.4524,4.4587,4.4595,4.4621,4.4726,4.4726,4.4783,4.4915,4.4919,4.5011,4.5264,4.5284,4.5323,4.5399,4.5507,4.561,4.561,4.5737,4.5827,4.5827,4.5861,4.5879,4.591,4.5947,4.5988,4.6057,4.6105,4.6091,4.5998,4.6057,4.6059,4.6033,4.6103,4.6136,0.0,0.0,0.0,4.4712,4.4796,4.4827,4.4591,4.4572,4.4565,4.4346,4.4374,4.4411,4.4383,4.4383,4.4318,4.4079,4.4023,4.4136,4.4447,4.4572,4.4553,4.4519,4.4493,4.4438,4.4318,4.4318,4.4242,4.4117,4.3986,4.3912,4.3912,4.3791,4.3712,4.3712,4.3712,4.3712,4.3712,4.3712,4.3712,4.3712,4.3712,4.3841,4.4091,4.3841,4.3873,4.4109,4.3841,4.3712,4.3712,4.373,4.3712,4.3712,4.3712,4.3712,4.3712,4.3712,4.3712,4.3712,4.3712,4.3712,4.3777,4.403,4.4091,4.417,4.4411,4.4515,4.4515,4.4515,4.4515,4.4515,4.4515,4.4515,4.4496,4.4524,4.4681,4.48,4.48,4.4655,4.4587,4.477,4.48,4.4896,4.5159,4.5201,4.5201,4.5222,4.5222,4.5264,4.5472,4.5507,4.5594,4.5766,4.5794,4.5814,4.5814,4.5874,4.5906,4.5906,4.5968,4.6033,4.6096,4.6103,4.6132,4.6202,4.6206,4.6206,4.6206,4.6206,4.616,4.6093,4.6163,4.6202,4.3804,0.0,0.0,0.0,0.0,0.0,4.5106,4.5087,4.5023,4.4701,4.4676,4.4624,4.4457,4.4438,4.4493,4.4565,4.4411,4.4355,4.4493,4.4519,4.4519,4.4493,4.4493,4.4465,4.4374,4.4546,4.4546,0.0,4.4484,4.4503,4.4184,4.4258,4.4277,4.4277,4.4277,4.4277,4.4277,4.4079,4.4079,4.4277,4.4079,4.414,4.4383,4.4306,4.4306,4.4383,4.4306,4.4277,4.4248,4.4079,4.3999,4.3999,4.3999,4.3999,4.3999,4.3999,4.4109,4.4277,4.4277,4.4277,4.4277,4.4383,4.4383,4.4411,4.4487,4.4515,4.4515,4.4515,4.4515,4.4524,4.4681,4.4714,4.4764,4.4957,4.5049,4.5096,4.5096,4.5049,4.5026,4.5074,4.5096,4.5118,4.5201,4.5201,4.5263,4.5399,4.5418,4.549,4.5688,4.5723,4.5771,4.586,4.591,4.5933,4.5893,4.5988,4.6021,4.5969,4.6037,4.6086,4.6092,4.6099,4.6124,4.6205,4.6208,4.6211,4.6264,4.6211,4.6189,4.6169,4.6249,4.6261,4.3881,4.443,4.4991,4.508,0.0,0.0,4.5297,4.5297,4.5235,4.5045,4.5023,4.4957,4.4814,4.4838,4.491,4.5045,4.491,4.4838,4.4887,4.4891,4.4872,4.4887,4.4887,4.4862,4.4789,4.491,4.491,4.4739,4.4827,4.4751,4.4383,4.4468,4.4515,4.4515,4.4515,4.4515,4.4515,4.4335,4.4354,4.4515,4.4335,4.4335,4.4515,4.4515,4.4515,4.4515,4.4515,4.4515,4.4487,4.4335,4.4277,4.4277,4.4277,4.4277,4.4277,4.4277,4.4383,4.4515,4.4515,4.4515,4.4515,4.4515,4.4515,4.4515,4.4515,4.4515,4.4524,4.4595,4.4726,4.4833,4.4938,4.4985,4.5007,4.5161,4.5264,4.5342,4.5342,4.5381,4.5418,4.5343,4.5342,4.5343,4.5436,4.5454,4.549,4.5661,4.5677,4.5708,4.5841,4.5866,4.5902,4.5944,4.5998,4.6041,4.5998,4.6053,4.6084,4.6047,4.6108,4.6131,4.6131,4.6165,4.6191,4.6248,4.6246,4.6258,4.63,4.6258,4.6245,4.6245,4.627,4.6273,4.3912,4.4511,4.5103,4.5125,4.5213,0.0,4.5297,4.5297,4.5297,4.5297,4.5317,4.5317,4.5317,4.5359,4.5399,4.5399,4.5418,4.5399,4.5399,4.54,4.54,4.5399,4.5398,4.5359,4.5317,4.5297,4.5297,4.5297,4.5038,4.477,4.4496,4.4515,4.4515,4.4515,4.4515,4.4515,4.4515,4.4515,4.4515,4.4515,4.4515,4.4515,4.4515,4.4515,4.4515,4.4515,4.4515,4.4496,4.4524,4.4524,4.4524,4.4515,4.4515,4.4496,4.4524,4.4524,4.4551,4.4578,4.4578,4.4578,4.4578,4.4578,4.4578,4.4578,4.4578,4.4578,4.4613,4.4795,4.503,4.5201,4.5243,4.5223,4.5243,4.5244,4.5399,4.5524,4.5524,4.5673,4.5752,4.5577,4.5543,4.5594,4.5786,4.5814,4.5827,4.5893,4.5919,4.5912,4.591,4.5969,4.6013,4.6013,4.6066,4.6119,4.6114,4.6113,4.6124,4.6117,4.6169,4.621,4.621,4.6276,4.63,4.63,4.6296,4.6273,4.6269,4.6273,4.6273,4.6273,4.6269,4.6187,4.4028,4.4572,4.5125,4.5235,4.5275,0.0,4.5297,4.5297,4.5297,4.5297,4.5338,4.5398,4.5398,4.5458,4.5457,4.5419,4.5438,4.5457,4.5419,4.54,4.5399,4.5398,4.5398,4.5359,4.5317,4.5297,4.5297,4.5297,4.5038,4.477,4.4496,4.4515,4.4515,4.4515,4.4515,4.4515,4.4515,4.4515,4.4515,4.4515,4.4515,4.4515,4.4515,4.4515,4.4515,4.4515,4.4515,4.4595,4.4745,4.4745,4.4629,4.4515,4.4515,4.4595,4.4745,4.4745,4.4887,4.5071,4.5071,4.5071,4.5071,4.5071,4.5071,4.5071,4.5071,4.5071,4.5071,4.5096,4.5159,4.5243,4.5399,4.5436,4.5472,4.5642,4.5723,4.5737,4.5737,4.5766,4.58,4.5819,4.5786,4.5766,4.586,4.5893,4.5887,4.5893,4.5947,4.5988,4.5988,4.6045,4.6078,4.6089,4.615,4.618,4.6179,4.623,4.6247,4.6171,4.6245,4.627,4.627,4.6284,4.63,4.63,4.6187,4.6091,4.5987,4.6091,4.6138,4.6138,4.6041,4.5949,4.4069,4.465,4.5213,4.5297,4.5297,0.0,0.0,4.5297,4.5317,4.5338,4.5378,4.5399,4.54,4.5457,4.5495,4.5476,4.5438,4.5438,4.5438,4.5419,4.5398,4.5338,4.5338,4.5338,4.5297,4.5297,4.5235,4.5125,4.4986,4.477,4.4496,4.4515,4.4515,4.4515,4.4515,4.4515,4.4515,4.4595,4.4655,4.4655,4.4783,4.4783,4.4655,4.4783,4.4783,4.4655,4.4783,4.491,4.5007,4.5007,4.4938,4.4857,4.4857,4.491,4.5007,4.5007,4.5074,4.5201,4.5201,4.5201,4.5201,4.5201,4.5201,4.5201,4.5201,4.5264,4.5343,4.5343,4.5418,4.5507,4.5626,4.5642,4.5692,4.5786,4.58,4.5814,4.5847,4.5847,4.5867,4.5944,4.5925,4.5906,4.5936,4.5956,4.5968,4.5985,4.6033,4.606,4.6105,4.6132,4.6158,4.6141,4.6211,4.6248,4.625,4.6278,4.6287,4.6243,4.627,4.63,4.63,4.63,4.6273,4.6206,4.6064,4.5978,4.5899,4.5919,4.5969,4.5996,4.593,4.5867,4.4098,4.4676,4.5275,4.5297,4.5297,4.5297,0.0,0.0,0.0,4.5359,4.5398,4.5399,4.54,4.5438,4.5437,4.5265,4.5342,4.5362,4.5246,4.5323,4.5398,4.5317,4.5317,4.5297,4.5297,4.5297,4.5192,4.4919,4.4895,4.477,4.4496,4.4515,4.4515,4.4515,4.4551,4.456,4.456,4.4764,4.4891,4.4872,4.5096,4.5074,4.4872,4.5096,4.5074,4.4872,4.5096,4.5222,4.5263,4.5263,4.5264,4.5304,4.5243,4.5222,4.5263,4.5263,4.5264,4.5323,4.5323,4.5323,4.5323,4.5323,4.5323,4.5323,4.5323,4.5418,4.556,4.556,4.5673,4.58,4.58,4.58,4.58,4.58,4.5814,4.5827,4.5912,4.5925,4.5933,4.6005,4.601,4.601,4.601,4.601,4.604,4.6104,4.612,4.6147,4.6192,4.6209,4.6229,4.6229,4.6276,4.63,4.63,4.63,4.63,4.63,4.63,4.63,4.63,4.6273,4.6206,4.6057,4.5949,4.5875,4.5832,4.5775,4.5802,4.5886,4.5844,4.5809,4.4087,4.4599,4.5148,0.0,4.5297,4.5297,4.5297,0.0,4.5297,4.5317,0.0,4.5398,4.5399,0.0,0.0,4.4461,4.494,4.5112,4.4365,4.492,4.5398,4.5398,4.5338,4.5297,4.5297,4.5297,4.5192,4.4919,4.4895,4.477,4.4496,4.4515,4.4515,4.4515,4.4681,4.477,4.477,4.503,4.514,4.514,4.518,4.518,4.5159,4.5201,4.518,4.5159,4.5201,4.5304,4.5454,4.5454,4.5577,4.5708,4.5343,4.5304,4.5454,4.5454,4.5577,4.5737,4.5737,4.5737,4.5737,4.5737,4.5737,4.5737,4.5737,4.5752,4.5786,4.5786,4.5766,4.58,4.58,4.58,4.58,4.58,4.5847,4.5912,4.5958,4.5979,4.6013,4.6084,4.6099,4.6099,4.6099,4.6099,4.6104,4.6179,4.6184,4.6191,4.6191,4.6245,4.6287,4.6287,4.6303,4.63,4.63,4.63,4.63,4.63,4.63,4.63,4.63,4.6181,4.6057,4.592,4.5847,4.5737,4.5635,4.5637,4.57,4.5808,4.568,4.5618,4.3955,4.4465,0.0,0.0,0.0,0.0,4.5297,0.0,4.5317,4.5338,0.0,0.0,0.0,0.0,0.0,0.0,4.5246,4.5398,4.5013,4.5318,4.5514,4.5359,4.5317,4.5297,4.5297,4.5213,4.5151,4.5068,4.5,4.4934,4.4905,4.4905,4.4905,4.4905,4.5004,4.503,4.503,4.5264,4.5362,4.5381,4.549,4.549,4.5381,4.549,4.5472,4.5381,4.549,4.5594,4.5673,4.5673,4.5723,4.5766,4.561,4.561,4.5673,4.5673,4.5723,4.58,4.58,4.58,4.58,4.58,4.58,4.58,4.58,4.58,4.58,4.58,4.58,4.58,4.58,4.5867,4.591,4.5933,4.5978,4.6024,4.604,4.606,4.6089,4.6158,4.6165,4.6168,4.6211,4.619,4.6187,4.625,4.6265,4.6261,4.6261,4.629,4.63,4.63,4.63,4.63,4.63,4.63,4.63,4.63,4.6236,4.6181,4.6181,4.6026,4.5914,4.5835,4.5737,4.5671,4.5586,4.5586,4.5637,4.5684,4.562,4.5586,4.3881,0.0,0.0,0.0,0.0,0.0,0.0,0.0,0.0,0.0,4.5438,0.0,0.0,0.0,4.5361,4.5149,0.0,4.5507,4.5305,4.551,4.5616,4.5419,4.54,4.54,4.538,4.5281,4.5241,4.5243,4.5161,4.5137,4.5201,4.5201,4.5201,4.5201,4.5244,4.5264,4.5264,4.5472,4.5594,4.5594,4.5737,4.5723,4.5594,4.5737,4.5723,4.5594,4.5737,4.58,4.58,4.58,4.58,4.58,4.58,4.58,4.58,4.58,4.58,4.58,4.58,4.58,4.58,4.58,4.58,4.5814,4.5835,4.5848,4.5848,4.5886,4.5879,4.5879,4.5879,4.5947,4.6036,4.6035,4.6059,4.6108,4.612,4.6128,4.6158,4.621,4.6229,4.6245,4.6284,4.6261,4.6245,4.6284,4.63,4.63,4.63,4.63,4.63,4.63,4.63,4.63,4.63,4.6269,4.624,4.6187,4.6098,4.6049,4.6049,4.5891,4.58,4.58,4.5668,4.5586,4.5586,4.5586,4.5586,4.5586,4.5586,4.5586,0.0,0.0,0.0,4.487,0.0,0.0,0.0,0.0,4.5359,0.0,0.0,4.5531,4.5668,4.5565,4.526,0.0,4.5026,0.0,0.0,4.516,4.5696,4.5688,4.5696,4.5665,4.5596,4.5596,4.5528,4.54,4.54,4.5322,4.5201,4.5201,4.5201,4.5201,4.5381,4.549,4.549,4.5692,4.58,4.58,4.58,4.58,4.58,4.58,4.58,4.58,4.58,4.58,4.58,4.58,4.58,4.58,4.58,4.58,4.58,4.58,4.58,4.58,4.58,4.58,4.58,4.58,4.58,4.5808,4.5944,4.5997,4.6017,4.6068,4.6091,4.6091,4.6091,4.6086,4.6105,4.6105,4.6108,4.612,4.6186,4.6191,4.6229,4.629,4.6303,4.6303,4.63,4.63,4.6303,4.63,4.63,4.63,4.63,4.63,4.63,4.63,4.63,4.63,4.63,4.6181,4.6049,4.592,4.591,4.591,4.591,4.5841,4.58,4.58,4.5668,4.5586,4.5586,4.5586,4.5586,4.5586,4.5586,4.5586,0.0,0.0,4.4605,4.4719,0.0,0.0,0.0,0.0,0.0,0.0,0.0,0.0,4.57,4.5632,4.5466,0.0,0.0,4.5603,0.0,4.5626,4.5822,4.5835,4.5723,4.5613,4.5596,4.551,4.5493,4.5599,4.5528,4.5509,4.5594,4.5594,4.5594,4.5594,4.5658,4.5708,4.5708,4.5786,4.58,4.58,4.58,4.58,4.58,4.58,4.58,4.58,4.58,4.58,4.5814,4.5905,4.5922,4.5953,4.5988,4.5988,4.5979,4.5861,4.5867,4.5933,4.5988,4.5988,4.5988,4.5988,4.5988,4.6017,4.6052,4.608,4.6068,4.6091,4.6098,4.6105,4.6092,4.6133,4.6163,4.6173,4.6208,4.6249,4.6262,4.6278,4.6273,4.6303,4.63,4.63,4.63,4.63,4.63,4.63,4.63,4.63,4.63,4.63,4.63,4.63,4.6216,4.6176,4.6176,4.6049,4.594,4.5899,4.5871,4.5841,4.5841,4.5727,4.5668,4.5668,4.5566,4.5531,4.5531,4.5495,4.5476,4.5476,4.5476,4.5495,4.3809,4.417,0.0,4.4605,4.4659,0.0,4.5115,0.0,4.5342,0.0,0.0,0.0,0.0,0.0,0.0,0.0,0.0,4.5795,0.0,4.5867,4.5905,4.5905,4.5794,4.5708,4.5712,4.5632,4.5632,4.5727,4.5661,4.5658,4.578,4.58,4.58,4.58,4.58,4.58,4.58,4.58,4.58,4.58,4.58,4.5808,4.5861,4.5861,4.5886,4.5914,4.5914,4.5914,4.5914,4.6008,4.6036,4.6046,4.6084,4.6098,4.6091,4.5949,4.5958,4.6046,4.6084,4.6098,4.6098,4.6098,4.6098,4.6105,4.6131,4.6137,4.6142,4.6158,4.6167,4.6171,4.6179,4.62,4.6249,4.623,4.6262,4.6306,4.6303,4.63,4.63,4.63,4.63,4.63,4.63,4.63,4.63,4.63,4.63,4.63,4.63,4.63,4.6277,4.6221,4.6144,4.6076,4.5998,4.5908,4.584,4.579,4.5733,4.5677,4.5677,4.5601,4.5531,4.5531,4.5495,4.5457,4.5457,4.5419,4.54,4.54,4.54,4.5419]}]]